Darstellungsparameter: Aktuell verwendete Einstellungen:
Skalierung der Graphiken ... ?
xyx+y,   Skalierungsfaktor:      Skalierung: Modus: x, Faktor: 1
Darstellungszeitraum ... ?
Vom - - bis: - -   Zeitraum: 13.02.2004 - 12.08.2004
Min/Max/Avg-Anzeige ... ?
Zeige MMA aktuell
Zeige MMA Monat
Zeige MMA alles
Zeige --A aktuell
Zeige --A Monat
Zeige --A alles
Keine MMA-Anzeige
MMA:
Minimum Maximum Average (ber die Originaldaten)
MMA-Basis: 13.02.2004 - 12.08.2004
Quicknavigation für Darstellung... ?
Tage:      1T, 2T, 3T, 5T -1T -2T -3T -5T +1T +2T +3T +5T
Wochen: 1W, 2W, 3W -1W -2W -3W +1W +2W +3W
Monate: 1M, 3M, 6M -1M -3M -6M +1M +3M +6M
Jahre:    1J, 3J, 5J, 10J -1J -3J -5J -10J +1J +3J +5J +10J
Nutze für die Darstellung ... ?
Originaldaten oder Mittelwerte auf ...
Stundenbasis Tagesbasis Wochenbasis
Monatsbasis Jahresbasis      Datenbasis: Original-Daten
Darstellen als:
Statistik (Auto) Statistik J:M      Darstellung:
Zur Graphik,    zurück zur Übersicht aller Sensoren.
 
Tabellarische Datenbersicht: ?
 
Sensor: Nr:Datum:Temp:Feuchte:Taupunkt:
Aussen-T/F 1 13-02-2004 00:00:00 3.7 C 70 % -1.25 C
2 13-02-2004 00:00:59 3.8 C 71 % -0.96 C
3 13-02-2004 00:12:59 3.9 C 71 % -0.87 C
4 13-02-2004 00:24:59 4 C 70 % -0.96 C
5 13-02-2004 00:36:57 3.9 C 72 % -0.68 C
6 13-02-2004 00:48:01 3.7 C 74 % -0.49 C
7 13-02-2004 01:00:01 3.7 C 76 % -0.13 C
8 13-02-2004 01:12:01 3.6 C 78 % 0.13 C
9 13-02-2004 01:24:01 3.5 C 79 % 0.21 C
10 13-02-2004 01:36:01 3.4 C 80 % 0.29 C
11 13-02-2004 01:48:01 3.3 C 81 % 0.36 C
12 13-02-2004 02:00:01 3.3 C 82 % 0.53 C
13 13-02-2004 02:12:01 3.4 C 82 % 0.63 C
14 13-02-2004 02:24:01 3.4 C 82 % 0.63 C
15 13-02-2004 02:36:01 3.5 C 81 % 0.55 C
16 13-02-2004 02:49:01 3.5 C 80 % 0.38 C
17 13-02-2004 03:01:01 3.6 C 80 % 0.48 C
18 13-02-2004 03:13:59 3.6 C 79 % 0.31 C
19 13-02-2004 03:24:59 3.6 C 79 % 0.31 C
20 13-02-2004 03:37:01 3.7 C 79 % 0.4 C
21 13-02-2004 03:49:01 3.7 C 78 % 0.23 C
22 13-02-2004 04:01:01 3.8 C 78 % 0.33 C
23 13-02-2004 04:13:01 3.8 C 78 % 0.33 C
24 13-02-2004 04:25:01 3.8 C 77 % 0.15 C
25 13-02-2004 04:37:01 3.8 C 78 % 0.33 C
Sensor: Nr:Datum:Temp:Feuchte:Taupunkt:
Aussen-T/F 26 13-02-2004 04:49:00 3.8 C 79 % 0.5 C
27 13-02-2004 05:01:59 3.9 C 79 % 0.6 C
28 13-02-2004 05:13:59 3.9 C 80 % 0.77 C
29 13-02-2004 05:25:58 3.9 C 80 % 0.77 C
30 13-02-2004 05:37:57 3.9 C 80 % 0.77 C
31 13-02-2004 05:49:01 3.9 C 80 % 0.77 C
32 13-02-2004 06:01:01 4 C 79 % 0.7 C
33 13-02-2004 06:13:01 4 C 80 % 0.87 C
34 13-02-2004 06:25:01 4 C 80 % 0.87 C
35 13-02-2004 06:37:00 4.1 C 80 % 0.97 C
36 13-02-2004 06:49:01 4.1 C 80 % 0.97 C
37 13-02-2004 07:01:01 4.1 C 80 % 0.97 C
38 13-02-2004 07:13:01 4.1 C 80 % 0.97 C
39 13-02-2004 07:25:01 4.2 C 81 % 1.24 C
40 13-02-2004 07:37:01 4.2 C 81 % 1.24 C
41 13-02-2004 07:49:00 4.3 C 81 % 1.34 C
42 13-02-2004 08:01:00 4.4 C 81 % 1.43 C
43 13-02-2004 08:13:00 4.5 C 81 % 1.53 C
44 13-02-2004 08:25:58 4.5 C 81 % 1.53 C
45 13-02-2004 08:37:57 4.6 C 80 % 1.46 C
46 13-02-2004 08:49:01 4.6 C 80 % 1.46 C
47 13-02-2004 09:01:01 4.7 C 79 % 1.38 C
48 13-02-2004 09:13:01 4.8 C 79 % 1.47 C
49 13-02-2004 09:25:01 4.9 C 79 % 1.57 C
50 13-02-2004 09:37:01 5 C 78 % 1.49 C
Sensor: Nr:Datum:Temp:Feuchte:Taupunkt:
Aussen-T/F 51 13-02-2004 09:49:00 5.1 C 77 % 1.41 C
52 13-02-2004 10:01:59 5.1 C 77 % 1.41 C
53 13-02-2004 10:13:59 5.3 C 77 % 1.6 C
54 13-02-2004 10:25:58 5.3 C 77 % 1.6 C
55 13-02-2004 10:37:57 5.3 C 77 % 1.6 C
56 13-02-2004 10:49:01 5.4 C 77 % 1.7 C
57 13-02-2004 11:01:01 5.6 C 76 % 1.71 C
58 13-02-2004 11:13:01 5.8 C 76 % 1.91 C
59 13-02-2004 11:25:01 5.9 C 75 % 1.82 C
60 13-02-2004 11:37:00 5.9 C 75 % 1.82 C
61 13-02-2004 11:49:01 6.1 C 74 % 1.82 C
62 13-02-2004 12:01:01 6.2 C 73 % 1.73 C
63 13-02-2004 12:13:01 6.5 C 73 % 2.02 C
64 13-02-2004 12:25:01 6.5 C 72 % 1.83 C
65 13-02-2004 12:37:01 6.6 C 72 % 1.92 C
66 13-02-2004 12:49:00 6.8 C 72 % 2.12 C
67 13-02-2004 13:01:00 7.1 C 70 % 2.01 C
68 13-02-2004 13:13:00 7.1 C 70 % 2.01 C
69 13-02-2004 13:25:58 7.2 C 69 % 1.9 C
70 13-02-2004 13:37:57 7.4 C 70 % 2.3 C
71 13-02-2004 13:49:01 7.3 C 69 % 2 C
72 13-02-2004 14:01:01 7.4 C 69 % 2.1 C
73 13-02-2004 14:13:01 7.5 C 69 % 2.19 C
74 13-02-2004 14:25:01 7.5 C 69 % 2.19 C
75 13-02-2004 14:37:01 7.6 C 68 % 2.08 C
Sensor: Nr:Datum:Temp:Feuchte:Taupunkt:
Aussen-T/F 76 13-02-2004 14:49:01 7.6 C 68 % 2.08 C
77 13-02-2004 15:01:01 7.7 C 68 % 2.18 C
78 13-02-2004 15:13:01 7.8 C 67 % 2.07 C
79 13-02-2004 15:25:01 7.8 C 68 % 2.27 C
80 13-02-2004 15:37:08 7.7 C 68 % 2.18 C
81 13-02-2004 15:49:37 7.8 C 68 % 2.27 C
82 13-02-2004 16:01:00 7.7 C 68 % 2.18 C
83 13-02-2004 16:13:00 7.8 C 68 % 2.27 C
84 13-02-2004 16:25:59 7.7 C 68 % 2.18 C
85 13-02-2004 16:37:57 7.7 C 68 % 2.18 C
86 13-02-2004 16:49:01 7.7 C 68 % 2.18 C
87 13-02-2004 17:01:01 7.6 C 69 % 2.29 C
88 13-02-2004 17:13:01 7.5 C 71 % 2.59 C
89 13-02-2004 17:25:01 7.3 C 72 % 2.6 C
90 13-02-2004 17:37:01 7.4 C 72 % 2.69 C
91 13-02-2004 17:49:00 7.1 C 72 % 2.4 C
92 13-02-2004 18:01:00 7 C 72 % 2.31 C
93 13-02-2004 18:13:00 6.9 C 74 % 2.6 C
94 13-02-2004 18:25:58 6.8 C 73 % 2.31 C
95 13-02-2004 18:37:57 6.8 C 74 % 2.5 C
96 13-02-2004 18:49:01 6.8 C 74 % 2.5 C
97 13-02-2004 19:01:01 6.7 C 75 % 2.59 C
98 13-02-2004 19:13:01 6.7 C 75 % 2.59 C
99 13-02-2004 19:25:01 6.8 C 75 % 2.69 C
100 13-02-2004 19:37:01 6.7 C 75 % 2.59 C
Sensor: Nr:Datum:Temp:Feuchte:Taupunkt:
Aussen-T/F 101 13-02-2004 19:49:01 6.7 C 75 % 2.59 C
102 13-02-2004 20:01:01 6.7 C 75 % 2.59 C
103 13-02-2004 20:13:01 6.7 C 75 % 2.59 C
104 13-02-2004 20:25:01 6.7 C 75 % 2.59 C
105 13-02-2004 20:37:01 6.6 C 75 % 2.49 C
106 13-02-2004 20:49:00 6.7 C 75 % 2.59 C
107 13-02-2004 21:01:00 6.5 C 75 % 2.4 C
108 13-02-2004 21:13:00 6.5 C 76 % 2.58 C
109 13-02-2004 21:25:59 6.4 C 77 % 2.67 C
110 13-02-2004 21:37:57 6.4 C 77 % 2.67 C
111 13-02-2004 21:49:01 6.4 C 77 % 2.67 C
112 13-02-2004 22:01:01 6.4 C 77 % 2.67 C
113 13-02-2004 22:13:01 6.4 C 77 % 2.67 C
114 13-02-2004 22:25:01 6.5 C 77 % 2.77 C
115 13-02-2004 22:37:01 6.3 C 77 % 2.57 C
116 13-02-2004 22:49:00 6.3 C 77 % 2.57 C
117 13-02-2004 23:00:59 6.4 C 77 % 2.67 C
118 13-02-2004 23:12:59 6.4 C 78 % 2.85 C
119 13-02-2004 23:25:58 6.4 C 77 % 2.67 C
120 13-02-2004 23:37:57 6.4 C 77 % 2.67 C
121 13-02-2004 23:49:01 6.3 C 78 % 2.75 C
122 14-02-2004 00:01:01 6.3 C 78 % 2.75 C
123 14-02-2004 00:13:01 6.3 C 78 % 2.75 C
124 14-02-2004 00:25:01 6.3 C 78 % 2.75 C
125 14-02-2004 00:37:01 6.2 C 78 % 2.66 C
Sensor: Nr:Datum:Temp:Feuchte:Taupunkt:
Aussen-T/F 126 14-02-2004 00:49:00 6.2 C 78 % 2.66 C
127 14-02-2004 01:01:00 6.2 C 78 % 2.66 C
128 14-02-2004 01:13:00 6.2 C 78 % 2.66 C
129 14-02-2004 01:25:59 6 C 78 % 2.46 C
130 14-02-2004 01:37:58 6.1 C 78 % 2.56 C
131 14-02-2004 01:49:01 6.1 C 78 % 2.56 C
132 14-02-2004 02:01:01 6.1 C 78 % 2.56 C
133 14-02-2004 02:13:01 6.1 C 78 % 2.56 C
134 14-02-2004 02:25:01 6 C 78 % 2.46 C
135 14-02-2004 02:37:01 6 C 78 % 2.46 C
136 14-02-2004 02:50:01 6 C 78 % 2.46 C
137 14-02-2004 03:02:01 6 C 78 % 2.46 C
138 14-02-2004 03:14:00 6 C 78 % 2.46 C
139 14-02-2004 03:26:00 6 C 78 % 2.46 C
140 14-02-2004 03:38:01 5.9 C 79 % 2.54 C
141 14-02-2004 03:50:01 5.9 C 79 % 2.54 C
142 14-02-2004 04:02:01 5.9 C 79 % 2.54 C
143 14-02-2004 04:14:01 5.9 C 79 % 2.54 C
144 14-02-2004 04:26:00 5.9 C 79 % 2.54 C
145 14-02-2004 04:38:00 5.8 C 79 % 2.45 C
146 14-02-2004 04:50:01 5.8 C 79 % 2.45 C
147 14-02-2004 05:02:01 5.7 C 79 % 2.35 C
148 14-02-2004 05:14:01 5.7 C 80 % 2.53 C
149 14-02-2004 05:26:01 5.6 C 80 % 2.43 C
150 14-02-2004 05:38:01 5.5 C 80 % 2.33 C
Sensor: Nr:Datum:Temp:Feuchte:Taupunkt:
Aussen-T/F 151 14-02-2004 05:50:00 5.6 C 80 % 2.43 C
152 14-02-2004 06:02:59 5.6 C 80 % 2.43 C
153 14-02-2004 06:14:58 5.6 C 80 % 2.43 C
154 14-02-2004 06:26:58 5.5 C 80 % 2.33 C
155 14-02-2004 06:38:57 5.5 C 80 % 2.33 C
156 14-02-2004 06:50:01 5.5 C 81 % 2.51 C
157 14-02-2004 07:02:01 5.5 C 81 % 2.51 C
158 14-02-2004 07:14:01 5.5 C 81 % 2.51 C
159 14-02-2004 07:26:01 5.5 C 81 % 2.51 C
160 14-02-2004 07:38:00 5.3 C 81 % 2.31 C
161 14-02-2004 07:50:01 5.3 C 81 % 2.31 C
162 14-02-2004 08:02:01 5.3 C 81 % 2.31 C
163 14-02-2004 08:14:01 5.4 C 81 % 2.41 C
164 14-02-2004 08:26:01 5.5 C 81 % 2.51 C
165 14-02-2004 08:38:01 5.6 C 81 % 2.6 C
166 14-02-2004 08:50:00 5.7 C 80 % 2.53 C
167 14-02-2004 09:02:00 5.9 C 79 % 2.54 C
168 14-02-2004 09:14:00 6 C 78 % 2.46 C
169 14-02-2004 09:26:59 6.1 C 77 % 2.38 C
170 14-02-2004 09:38:58 6.2 C 77 % 2.48 C
171 14-02-2004 09:50:01 6.4 C 76 % 2.49 C
172 14-02-2004 10:02:01 6.5 C 76 % 2.58 C
173 14-02-2004 10:14:01 6.6 C 76 % 2.68 C
174 14-02-2004 10:26:01 6.9 C 75 % 2.78 C
175 14-02-2004 10:38:01 7.2 C 73 % 2.69 C
Sensor: Nr:Datum:Temp:Feuchte:Taupunkt:
Aussen-T/F 176 14-02-2004 10:50:01 7.2 C 73 % 2.69 C
177 14-02-2004 11:02:01 7.4 C 72 % 2.69 C
178 14-02-2004 11:14:01 7.5 C 72 % 2.79 C
179 14-02-2004 11:26:01 7.8 C 71 % 2.88 C
180 14-02-2004 11:38:01 8.2 C 69 % 2.86 C
181 14-02-2004 11:50:01 8.4 C 69 % 3.05 C
182 14-02-2004 12:02:00 8.1 C 68 % 2.56 C
183 14-02-2004 12:14:00 8.2 C 69 % 2.86 C
184 14-02-2004 12:26:59 8.4 C 69 % 3.05 C
185 14-02-2004 12:38:57 8.7 C 67 % 2.92 C
186 14-02-2004 12:50:01 8.8 C 67 % 3.02 C
187 14-02-2004 13:02:01 8.7 C 67 % 2.92 C
188 14-02-2004 13:14:01 8.7 C 68 % 3.13 C
189 14-02-2004 13:26:01 8.6 C 66 % 2.62 C
190 14-02-2004 13:38:01 8.6 C 67 % 2.83 C
191 14-02-2004 13:50:00 8.5 C 67 % 2.73 C
192 14-02-2004 14:14:00 8.2 C 69 % 2.86 C
193 14-02-2004 14:14:58 8.2 C 70 % 3.06 C
194 14-02-2004 14:26:58 8.4 C 70 % 3.26 C
195 14-02-2004 14:38:57 8.6 C 69 % 3.24 C
196 14-02-2004 14:50:01 8.6 C 68 % 3.04 C
197 14-02-2004 15:02:01 8.6 C 68 % 3.04 C
198 14-02-2004 15:14:01 8.4 C 68 % 2.85 C
199 14-02-2004 15:26:01 8.5 C 69 % 3.15 C
200 14-02-2004 15:38:01 8.5 C 69 % 3.15 C
Sensor: Nr:Datum:Temp:Feuchte:Taupunkt:
Aussen-T/F 201 14-02-2004 15:50:01 8.6 C 68 % 3.04 C
202 14-02-2004 16:02:01 8.6 C 68 % 3.04 C
203 14-02-2004 16:14:01 8.6 C 68 % 3.04 C
204 14-02-2004 16:26:01 8.5 C 67 % 2.73 C
205 14-02-2004 16:38:01 8.4 C 66 % 2.43 C
206 14-02-2004 16:50:00 8.5 C 66 % 2.52 C
207 14-02-2004 17:02:00 8.4 C 67 % 2.64 C
208 14-02-2004 17:14:00 8.3 C 66 % 2.33 C
209 14-02-2004 17:26:59 8.1 C 67 % 2.35 C
210 14-02-2004 17:38:58 8 C 68 % 2.47 C
211 14-02-2004 17:50:01 7.9 C 70 % 2.78 C
212 14-02-2004 18:02:01 7.8 C 67 % 2.07 C
213 14-02-2004 18:14:01 7.7 C 68 % 2.18 C
214 14-02-2004 18:26:01 7.6 C 65 % 1.45 C
215 14-02-2004 18:38:01 7.6 C 68 % 2.08 C
216 14-02-2004 18:50:00 7.4 C 69 % 2.1 C
217 14-02-2004 19:14:00 7.3 C 68 % 1.8 C
218 14-02-2004 19:14:58 7.3 C 68 % 1.8 C
219 14-02-2004 19:26:58 7.1 C 68 % 1.61 C
220 14-02-2004 19:38:57 7.2 C 68 % 1.7 C
221 14-02-2004 19:50:01 7.1 C 70 % 2.01 C
222 14-02-2004 20:02:01 7 C 70 % 1.91 C
223 14-02-2004 20:14:01 7 C 69 % 1.71 C
224 14-02-2004 20:26:01 7 C 69 % 1.71 C
225 14-02-2004 20:38:01 6.9 C 70 % 1.82 C
Sensor: Nr:Datum:Temp:Feuchte:Taupunkt:
Aussen-T/F 226 14-02-2004 20:50:01 6.9 C 71 % 2.02 C
227 14-02-2004 21:02:01 6.8 C 72 % 2.12 C
228 14-02-2004 21:14:01 6.7 C 72 % 2.02 C
229 14-02-2004 21:26:01 6.7 C 72 % 2.02 C
230 14-02-2004 21:38:01 6.7 C 73 % 2.21 C
231 14-02-2004 21:50:00 6.6 C 73 % 2.12 C
232 14-02-2004 22:02:00 6.6 C 73 % 2.12 C
233 14-02-2004 22:14:00 6.6 C 73 % 2.12 C
234 14-02-2004 22:26:59 6.5 C 73 % 2.02 C
235 14-02-2004 22:38:57 6.5 C 74 % 2.21 C
236 14-02-2004 22:50:01 6.5 C 74 % 2.21 C
237 14-02-2004 23:02:01 6.4 C 74 % 2.11 C
238 14-02-2004 23:14:01 6.4 C 74 % 2.11 C
239 14-02-2004 23:26:01 6.3 C 74 % 2.02 C
240 14-02-2004 23:38:01 6.2 C 74 % 1.92 C
241 14-02-2004 23:50:00 6.2 C 75 % 2.11 C
242 15-02-2004 00:13:59 6.1 C 75 % 2.01 C
243 15-02-2004 00:14:59 6 C 75 % 1.91 C
244 15-02-2004 00:26:59 6 C 75 % 1.91 C
245 15-02-2004 00:38:57 6 C 75 % 1.91 C
246 15-02-2004 00:50:01 6 C 76 % 2.1 C
247 15-02-2004 01:02:01 6 C 76 % 2.1 C
248 15-02-2004 01:14:01 5.9 C 77 % 2.19 C
249 15-02-2004 01:26:01 5.9 C 77 % 2.19 C
250 15-02-2004 01:38:01 5.9 C 77 % 2.19 C
Sensor: Nr:Datum:Temp:Feuchte:Taupunkt:
Aussen-T/F 251 15-02-2004 01:50:01 5.8 C 77 % 2.09 C
252 15-02-2004 02:02:01 5.8 C 77 % 2.09 C
253 15-02-2004 02:14:01 5.7 C 77 % 1.99 C
254 15-02-2004 02:26:01 5.7 C 77 % 1.99 C
255 15-02-2004 02:38:01 5.7 C 78 % 2.17 C
256 15-02-2004 02:51:01 5.7 C 77 % 1.99 C
257 15-02-2004 03:03:01 5.6 C 78 % 2.07 C
258 15-02-2004 03:15:00 5.6 C 78 % 2.07 C
259 15-02-2004 03:27:00 5.5 C 78 % 1.98 C
260 15-02-2004 03:39:01 5.4 C 79 % 2.06 C
261 15-02-2004 03:51:01 5.4 C 79 % 2.06 C
262 15-02-2004 04:03:01 5.4 C 79 % 2.06 C
263 15-02-2004 04:15:00 5.4 C 79 % 2.06 C
264 15-02-2004 04:27:00 5.4 C 79 % 2.06 C
265 15-02-2004 04:39:00 5.4 C 79 % 2.06 C
266 15-02-2004 04:51:01 5.3 C 79 % 1.96 C
267 15-02-2004 05:03:01 5.3 C 79 % 1.96 C
268 15-02-2004 05:15:01 5.2 C 79 % 1.86 C
269 15-02-2004 05:27:01 5.2 C 79 % 1.86 C
270 15-02-2004 05:39:01 5.1 C 79 % 1.77 C
271 15-02-2004 05:51:00 5.1 C 79 % 1.77 C
272 15-02-2004 06:03:59 5.1 C 79 % 1.77 C
273 15-02-2004 06:15:58 5 C 79 % 1.67 C
274 15-02-2004 06:27:58 5 C 79 % 1.67 C
275 15-02-2004 06:39:57 5 C 79 % 1.67 C
Sensor: Nr:Datum:Temp:Feuchte:Taupunkt:
Aussen-T/F 276 15-02-2004 06:51:01 5 C 79 % 1.67 C
277 15-02-2004 07:03:01 5 C 79 % 1.67 C
278 15-02-2004 07:15:01 5 C 80 % 1.84 C
279 15-02-2004 07:27:01 5 C 79 % 1.67 C
280 15-02-2004 07:39:01 5 C 79 % 1.67 C
281 15-02-2004 07:51:01 5 C 79 % 1.67 C
282 15-02-2004 08:03:01 5 C 79 % 1.67 C
283 15-02-2004 08:15:01 5 C 79 % 1.67 C
284 15-02-2004 08:27:01 5 C 79 % 1.67 C
285 15-02-2004 08:39:01 5.1 C 78 % 1.59 C
286 15-02-2004 08:51:00 5.1 C 78 % 1.59 C
287 15-02-2004 09:03:00 5.1 C 78 % 1.59 C
288 15-02-2004 09:15:58 5.2 C 78 % 1.69 C
289 15-02-2004 09:27:58 5.2 C 78 % 1.69 C
290 15-02-2004 09:39:57 5.3 C 78 % 1.78 C
291 15-02-2004 09:51:01 5.4 C 78 % 1.88 C
292 15-02-2004 10:03:01 5.4 C 77 % 1.7 C
293 15-02-2004 10:15:01 5.7 C 76 % 1.81 C
294 15-02-2004 10:27:01 5.9 C 75 % 1.82 C
295 15-02-2004 10:39:01 6 C 73 % 1.54 C
296 15-02-2004 10:51:00 6.3 C 72 % 1.63 C
297 15-02-2004 11:03:59 6.6 C 71 % 1.73 C
298 15-02-2004 11:15:58 6.6 C 71 % 1.73 C
299 15-02-2004 11:27:58 6.8 C 70 % 1.72 C
300 15-02-2004 11:39:57 6.9 C 70 % 1.82 C
Sensor: Nr:Datum:Temp:Feuchte:Taupunkt:
Aussen-T/F 301 15-02-2004 11:51:01 7.1 C 66 % 1.19 C
302 15-02-2004 12:03:01 7.3 C 66 % 1.38 C
303 15-02-2004 12:15:01 7.5 C 65 % 1.36 C
304 15-02-2004 12:27:01 7.5 C 65 % 1.36 C
305 15-02-2004 12:39:00 7.6 C 66 % 1.67 C
306 15-02-2004 12:51:01 7.6 C 65 % 1.45 C
307 15-02-2004 13:03:01 7.6 C 65 % 1.45 C
308 15-02-2004 13:15:01 7.5 C 65 % 1.36 C
309 15-02-2004 13:27:01 7.5 C 65 % 1.36 C
310 15-02-2004 13:39:01 7.7 C 64 % 1.33 C
311 15-02-2004 13:51:01 7.8 C 63 % 1.21 C
312 15-02-2004 14:03:00 7.7 C 62 % 0.89 C
313 15-02-2004 14:15:58 7.9 C 61 % 0.86 C
314 15-02-2004 14:27:58 7.6 C 62 % 0.8 C
315 15-02-2004 14:39:57 7.6 C 62 % 0.8 C
316 15-02-2004 14:51:01 7.6 C 62 % 0.8 C
317 15-02-2004 15:03:02 7.6 C 62 % 0.8 C
318 15-02-2004 15:15:01 7.7 C 62 % 0.89 C
319 15-02-2004 15:27:01 7.6 C 62 % 0.8 C
320 15-02-2004 15:39:01 7.6 C 63 % 1.02 C
321 15-02-2004 15:51:00 7.6 C 64 % 1.24 C
322 15-02-2004 16:03:59 7.5 C 64 % 1.14 C
323 15-02-2004 16:15:58 7.4 C 65 % 1.26 C
324 15-02-2004 16:27:58 7.4 C 65 % 1.26 C
325 15-02-2004 16:39:57 7.3 C 65 % 1.17 C
Sensor: Nr:Datum:Temp:Feuchte:Taupunkt:
Aussen-T/F 326 15-02-2004 16:51:01 7.3 C 66 % 1.38 C
327 15-02-2004 17:03:01 7.2 C 66 % 1.29 C
328 15-02-2004 17:15:01 7.2 C 67 % 1.49 C
329 15-02-2004 17:27:01 7.1 C 67 % 1.4 C
330 15-02-2004 17:39:01 6.9 C 68 % 1.41 C
331 15-02-2004 17:51:01 6.8 C 69 % 1.52 C
332 15-02-2004 18:03:01 6.7 C 70 % 1.63 C
333 15-02-2004 18:15:01 6.7 C 70 % 1.63 C
334 15-02-2004 18:27:01 6.7 C 70 % 1.63 C
335 15-02-2004 18:39:01 6.6 C 71 % 1.73 C
336 15-02-2004 18:51:00 6.7 C 71 % 1.82 C
337 15-02-2004 19:03:00 6.7 C 71 % 1.82 C
338 15-02-2004 19:15:58 6.6 C 72 % 1.92 C
339 15-02-2004 19:27:58 6.5 C 72 % 1.83 C
340 15-02-2004 19:39:57 6.4 C 72 % 1.73 C
341 15-02-2004 19:51:01 6.4 C 73 % 1.92 C
342 15-02-2004 20:03:01 6.4 C 73 % 1.92 C
343 15-02-2004 20:15:01 6.4 C 74 % 2.11 C
344 15-02-2004 20:27:01 6.5 C 74 % 2.21 C
345 15-02-2004 20:39:01 6.5 C 74 % 2.21 C
346 15-02-2004 20:51:00 6.5 C 74 % 2.21 C
347 15-02-2004 21:03:00 6.6 C 73 % 2.12 C
348 15-02-2004 21:15:58 6.6 C 74 % 2.31 C
349 15-02-2004 21:27:58 6.6 C 74 % 2.31 C
350 15-02-2004 21:39:57 6.5 C 75 % 2.4 C
Sensor: Nr:Datum:Temp:Feuchte:Taupunkt:
Aussen-T/F 351 15-02-2004 21:51:01 6.3 C 76 % 2.39 C
352 15-02-2004 22:03:01 6.4 C 77 % 2.67 C
353 15-02-2004 22:15:30 6.3 C 77 % 2.57 C
354 15-02-2004 22:27:01 6.3 C 77 % 2.57 C
355 15-02-2004 22:39:01 6.4 C 76 % 2.49 C
356 15-02-2004 22:51:01 6.4 C 76 % 2.49 C
357 15-02-2004 23:03:01 6.4 C 75 % 2.3 C
358 15-02-2004 23:15:01 6.4 C 75 % 2.3 C
359 15-02-2004 23:27:01 6.4 C 75 % 2.3 C
360 15-02-2004 23:39:01 6.2 C 75 % 2.11 C
361 15-02-2004 23:51:00 5.9 C 77 % 2.19 C
362 16-02-2004 00:03:00 5.7 C 77 % 1.99 C
363 16-02-2004 00:15:59 5.6 C 78 % 2.07 C
364 16-02-2004 00:27:59 5.5 C 78 % 1.98 C
365 16-02-2004 00:39:58 5.5 C 78 % 1.98 C
366 16-02-2004 00:51:01 5.5 C 79 % 2.16 C
367 16-02-2004 01:03:00 5.5 C 79 % 2.16 C
368 16-02-2004 01:15:00 5.5 C 79 % 2.16 C
369 16-02-2004 01:27:00 5.6 C 79 % 2.25 C
370 16-02-2004 01:39:00 5.4 C 78 % 1.88 C
371 16-02-2004 01:51:01 5.5 C 79 % 2.16 C
372 16-02-2004 02:03:01 5.2 C 78 % 1.69 C
373 16-02-2004 02:15:01 5.1 C 78 % 1.59 C
374 16-02-2004 02:27:01 4.9 C 79 % 1.57 C
375 16-02-2004 02:39:01 4.9 C 79 % 1.57 C
Sensor: Nr:Datum:Temp:Feuchte:Taupunkt:
Aussen-T/F 376 16-02-2004 02:52:03 4.9 C 80 % 1.75 C
377 16-02-2004 03:04:03 5 C 79 % 1.67 C
378 16-02-2004 03:16:03 5 C 79 % 1.67 C
379 16-02-2004 03:28:03 5.1 C 78 % 1.59 C
380 16-02-2004 03:40:00 4.9 C 78 % 1.39 C
381 16-02-2004 03:52:00 4.7 C 78 % 1.2 C
382 16-02-2004 04:04:00 4.7 C 78 % 1.2 C
383 16-02-2004 04:16:59 4.6 C 78 % 1.1 C
384 16-02-2004 04:28:59 4.5 C 77 % 0.83 C
385 16-02-2004 04:40:58 4.4 C 77 % 0.73 C
386 16-02-2004 04:52:01 4.3 C 77 % 0.63 C
387 16-02-2004 05:04:01 4.2 C 77 % 0.54 C
388 16-02-2004 05:16:00 4.2 C 77 % 0.54 C
389 16-02-2004 05:28:00 4.1 C 76 % 0.26 C
390 16-02-2004 05:40:00 3.9 C 77 % 0.25 C
391 16-02-2004 05:52:01 3.7 C 77 % 0.05 C
392 16-02-2004 06:04:01 3.6 C 77 % -0.05 C
393 16-02-2004 06:16:01 3.6 C 77 % -0.05 C
394 16-02-2004 06:28:01 3.4 C 77 % -0.24 C
395 16-02-2004 06:40:01 3.3 C 77 % -0.34 C
396 16-02-2004 06:52:01 3 C 77 % -0.63 C
397 16-02-2004 07:04:01 2.6 C 78 % -0.84 C
398 16-02-2004 07:16:01 2.3 C 79 % -0.96 C
399 16-02-2004 07:28:01 2 C 79 % -1.25 C
400 16-02-2004 07:40:01 1.7 C 81 % -1.2 C
Sensor: Nr:Datum:Temp:Feuchte:Taupunkt:
Aussen-T/F 401 16-02-2004 07:52:00 1.6 C 81 % -1.3 C
402 16-02-2004 08:04:00 1.6 C 81 % -1.3 C
403 16-02-2004 08:16:59 1.6 C 82 % -1.13 C
404 16-02-2004 08:28:59 1.5 C 81 % -1.4 C
405 16-02-2004 08:40:57 1.6 C 82 % -1.13 C
406 16-02-2004 08:52:01 1.6 C 82 % -1.13 C
407 16-02-2004 09:04:01 1.6 C 82 % -1.13 C
408 16-02-2004 09:16:01 1.7 C 82 % -1.03 C
409 16-02-2004 09:28:01 1.9 C 83 % -0.67 C
410 16-02-2004 09:40:01 2.5 C 83 % -0.09 C
411 16-02-2004 09:52:00 3 C 83 % 0.4 C
412 16-02-2004 10:03:59 3.3 C 79 % 0.02 C
413 16-02-2004 10:16:58 3.9 C 77 % 0.25 C
414 16-02-2004 10:28:58 4 C 75 % -0.02 C
415 16-02-2004 10:40:57 4.4 C 74 % 0.18 C
416 16-02-2004 10:52:01 5.1 C 71 % 0.29 C
417 16-02-2004 11:04:01 5.2 C 69 % -0.01 C
418 16-02-2004 11:16:01 5.2 C 69 % -0.01 C
419 16-02-2004 11:28:01 5.5 C 68 % 0.08 C
420 16-02-2004 11:40:01 6.2 C 65 % 0.12 C
421 16-02-2004 11:52:01 6.5 C 62 % -0.24 C
422 16-02-2004 12:04:01 6.7 C 63 % 0.17 C
423 16-02-2004 12:16:01 7 C 61 % 0.01 C
424 16-02-2004 12:28:01 7.4 C 60 % 0.16 C
425 16-02-2004 12:40:01 7.6 C 59 % 0.11 C
Sensor: Nr:Datum:Temp:Feuchte:Taupunkt:
Aussen-T/F 426 16-02-2004 12:52:00 7.9 C 58 % 0.16 C
427 16-02-2004 13:04:00 8.6 C 55 % 0.08 C
428 16-02-2004 13:16:58 9 C 54 % 0.2 C
429 16-02-2004 13:28:58 9.1 C 51 % -0.49 C
430 16-02-2004 13:40:57 9.5 C 51 % -0.12 C
431 16-02-2004 13:52:01 9.2 C 50 % -0.67 C
432 16-02-2004 14:04:01 10.1 C 49 % -0.11 C
433 16-02-2004 14:16:01 10.1 C 49 % -0.11 C
434 16-02-2004 14:28:01 10 C 49 % -0.21 C
435 16-02-2004 14:40:01 10.2 C 48 % -0.31 C
436 16-02-2004 14:52:00 10.3 C 48 % -0.21 C
437 16-02-2004 15:04:59 10.2 C 48 % -0.31 C
438 16-02-2004 15:16:58 9.8 C 48 % -0.67 C
439 16-02-2004 15:28:58 9.3 C 49 % -0.85 C
440 16-02-2004 15:40:57 9.5 C 49 % -0.67 C
441 16-02-2004 15:52:01 8.7 C 50 % -1.13 C
442 16-02-2004 16:04:01 8.4 C 50 % -1.4 C
443 16-02-2004 16:16:01 8.3 C 52 % -0.96 C
444 16-02-2004 16:28:01 8 C 52 % -1.24 C
445 16-02-2004 16:40:00 8.3 C 52 % -0.96 C
446 16-02-2004 16:52:01 8.6 C 52 % -0.68 C
447 16-02-2004 17:04:01 8.1 C 53 % -0.89 C
448 16-02-2004 17:16:01 6.4 C 56 % -1.72 C
449 16-02-2004 17:28:01 6.5 C 59 % -0.92 C
450 16-02-2004 17:40:01 6.2 C 60 % -0.97 C
Sensor: Nr:Datum:Temp:Feuchte:Taupunkt:
Aussen-T/F 451 16-02-2004 17:52:00 5.7 C 62 % -1 C
452 16-02-2004 18:04:00 5.1 C 64 % -1.13 C
453 16-02-2004 18:16:58 4.7 C 67 % -0.89 C
454 16-02-2004 18:28:58 4.5 C 69 % -0.68 C
455 16-02-2004 18:40:57 4.3 C 70 % -0.68 C
456 16-02-2004 18:52:01 4.3 C 71 % -0.48 C
457 16-02-2004 19:04:01 4.2 C 71 % -0.58 C
458 16-02-2004 19:16:01 4.1 C 71 % -0.67 C
459 16-02-2004 19:28:01 4 C 72 % -0.58 C
460 16-02-2004 19:40:01 4.1 C 73 % -0.29 C
461 16-02-2004 19:52:01 4.3 C 72 % -0.29 C
462 16-02-2004 20:04:01 4.7 C 72 % 0.09 C
463 16-02-2004 20:16:01 4.9 C 71 % 0.09 C
464 16-02-2004 20:28:01 5.1 C 69 % -0.11 C
465 16-02-2004 20:40:02 5.1 C 69 % -0.11 C
466 16-02-2004 20:52:01 5.2 C 69 % -0.01 C
467 16-02-2004 21:04:01 5.1 C 69 % -0.11 C
468 16-02-2004 21:16:01 5.2 C 69 % -0.01 C
469 16-02-2004 21:28:01 5.1 C 69 % -0.11 C
470 16-02-2004 21:40:58 5.2 C 69 % -0.01 C
471 16-02-2004 21:52:00 5.1 C 70 % 0.09 C
472 16-02-2004 22:04:00 5.2 C 70 % 0.19 C
473 16-02-2004 22:16:00 5.1 C 70 % 0.09 C
474 16-02-2004 22:28:00 5 C 70 % 0 C
475 16-02-2004 22:40:01 5 C 70 % 0 C
Sensor: Nr:Datum:Temp:Feuchte:Taupunkt:
Aussen-T/F 476 16-02-2004 22:52:00 5 C 70 % 0 C
477 16-02-2004 23:04:00 5 C 70 % 0 C
478 16-02-2004 23:16:59 5 C 70 % 0 C
479 16-02-2004 23:28:59 4.9 C 70 % -0.1 C
480 16-02-2004 23:40:57 4.7 C 70 % -0.29 C
481 16-02-2004 23:52:01 4.6 C 70 % -0.39 C
482 17-02-2004 00:04:01 4.5 C 70 % -0.48 C
483 17-02-2004 00:16:01 4.5 C 71 % -0.29 C
484 17-02-2004 00:28:01 4.4 C 71 % -0.39 C
485 17-02-2004 00:40:01 4.4 C 71 % -0.39 C
486 17-02-2004 00:52:00 4.3 C 71 % -0.48 C
487 17-02-2004 01:04:00 4.3 C 71 % -0.48 C
488 17-02-2004 01:16:58 4.3 C 71 % -0.48 C
489 17-02-2004 01:28:58 4.1 C 71 % -0.67 C
490 17-02-2004 01:40:57 4.1 C 71 % -0.67 C
491 17-02-2004 01:52:01 4.1 C 71 % -0.67 C
492 17-02-2004 02:04:01 4 C 71 % -0.77 C
493 17-02-2004 02:16:01 4 C 71 % -0.77 C
494 17-02-2004 02:28:01 3.9 C 72 % -0.68 C
495 17-02-2004 02:40:01 4 C 71 % -0.77 C
496 17-02-2004 02:53:02 4 C 71 % -0.77 C
497 17-02-2004 03:05:02 3.8 C 72 % -0.77 C
498 17-02-2004 03:17:02 3.8 C 72 % -0.77 C
499 17-02-2004 03:29:02 3.7 C 72 % -0.87 C
500 17-02-2004 03:41:00 3.6 C 72 % -0.96 C
Sensor: Nr:Datum:Temp:Feuchte:Taupunkt:
Aussen-T/F 501 17-02-2004 03:53:00 3.6 C 72 % -0.96 C
502 17-02-2004 04:05:00 3.6 C 72 % -0.96 C
503 17-02-2004 04:17:59 3.6 C 72 % -0.96 C
504 17-02-2004 04:29:59 3.6 C 71 % -1.15 C
505 17-02-2004 04:41:57 3.5 C 71 % -1.25 C
506 17-02-2004 04:53:01 3.5 C 72 % -1.06 C
507 17-02-2004 05:05:01 3.4 C 71 % -1.35 C
508 17-02-2004 05:17:01 3.4 C 71 % -1.35 C
509 17-02-2004 05:29:01 3.3 C 71 % -1.44 C
510 17-02-2004 05:41:01 3.3 C 71 % -1.44 C
511 17-02-2004 05:53:00 3.3 C 71 % -1.44 C
512 17-02-2004 06:05:59 3.3 C 71 % -1.44 C
513 17-02-2004 06:17:58 3.3 C 70 % -1.64 C
514 17-02-2004 06:29:58 3 C 71 % -1.73 C
515 17-02-2004 06:41:57 2.9 C 72 % -1.64 C
516 17-02-2004 06:53:01 2.9 C 71 % -1.83 C
517 17-02-2004 07:05:01 2.8 C 71 % -1.92 C
518 17-02-2004 07:17:01 2.9 C 71 % -1.83 C
519 17-02-2004 07:29:01 2.8 C 71 % -1.92 C
520 17-02-2004 07:41:01 2.5 C 72 % -2.02 C
521 17-02-2004 07:53:01 2.5 C 72 % -2.02 C
522 17-02-2004 08:05:01 2.5 C 72 % -2.02 C
523 17-02-2004 08:17:01 2.5 C 72 % -2.02 C
524 17-02-2004 08:29:01 2.6 C 72 % -1.93 C
525 17-02-2004 08:41:01 2.4 C 72 % -2.12 C
Sensor: Nr:Datum:Temp:Feuchte:Taupunkt:
Aussen-T/F 526 17-02-2004 08:53:00 2.3 C 71 % -2.4 C
527 17-02-2004 09:05:00 2.4 C 71 % -2.31 C
528 17-02-2004 09:17:58 2.5 C 71 % -2.21 C
529 17-02-2004 09:29:58 2.5 C 71 % -2.21 C
530 17-02-2004 09:41:57 2.5 C 71 % -2.21 C
531 17-02-2004 09:53:01 2.6 C 71 % -2.12 C
532 17-02-2004 10:05:01 3 C 71 % -1.73 C
533 17-02-2004 10:17:01 2.8 C 71 % -1.92 C
534 17-02-2004 10:29:01 2.8 C 71 % -1.92 C
535 17-02-2004 10:41:01 3.2 C 70 % -1.73 C
536 17-02-2004 10:53:00 3.2 C 69 % -1.93 C
537 17-02-2004 11:05:45 3.1 C 68 % -2.22 C
538 17-02-2004 11:17:58 3 C 69 % -2.12 C
539 17-02-2004 11:29:58 3.2 C 68 % -2.12 C
540 17-02-2004 11:41:57 2.8 C 69 % -2.31 C
541 17-02-2004 11:53:01 2.9 C 69 % -2.21 C
542 17-02-2004 12:05:01 3 C 67 % -2.51 C
543 17-02-2004 12:17:01 3.1 C 67 % -2.42 C
544 17-02-2004 12:29:01 3.2 C 66 % -2.53 C
545 17-02-2004 12:41:00 3.2 C 66 % -2.53 C
546 17-02-2004 12:53:01 3.2 C 67 % -2.32 C
547 17-02-2004 13:05:01 3.2 C 67 % -2.32 C
548 17-02-2004 13:17:01 2.9 C 68 % -2.41 C
549 17-02-2004 13:29:01 3.1 C 68 % -2.22 C
550 17-02-2004 13:41:01 3.3 C 65 % -2.64 C
Sensor: Nr:Datum:Temp:Feuchte:Taupunkt:
Aussen-T/F 551 17-02-2004 13:53:00 3.2 C 65 % -2.73 C
552 17-02-2004 14:05:00 3.2 C 64 % -2.94 C
553 17-02-2004 14:17:58 3.2 C 64 % -2.94 C
554 17-02-2004 14:29:58 3.2 C 64 % -2.94 C
555 17-02-2004 14:41:57 3.2 C 64 % -2.94 C
556 17-02-2004 14:53:01 3.3 C 63 % -3.05 C
557 17-02-2004 15:05:01 3.5 C 63 % -2.86 C
558 17-02-2004 15:17:01 3.5 C 63 % -2.86 C
559 17-02-2004 15:29:01 3.5 C 64 % -2.65 C
560 17-02-2004 15:41:01 3.6 C 63 % -2.77 C
561 17-02-2004 15:53:00 3.6 C 63 % -2.77 C
562 17-02-2004 16:05:59 3.6 C 63 % -2.77 C
563 17-02-2004 16:17:58 3.6 C 63 % -2.77 C
564 17-02-2004 16:29:58 3.4 C 63 % -2.96 C
565 17-02-2004 16:41:57 3.4 C 64 % -2.75 C
566 17-02-2004 16:53:01 3.5 C 64 % -2.65 C
567 17-02-2004 17:05:01 3.6 C 65 % -2.35 C
568 17-02-2004 17:17:01 3.6 C 64 % -2.56 C
569 17-02-2004 17:29:01 3.5 C 65 % -2.44 C
570 17-02-2004 17:41:02 3.5 C 65 % -2.44 C
571 17-02-2004 17:53:04 3.4 C 65 % -2.54 C
572 17-02-2004 18:05:07 3.4 C 66 % -2.33 C
573 17-02-2004 18:17:07 3.4 C 66 % -2.33 C
574 17-02-2004 18:29:07 3.4 C 66 % -2.33 C
575 17-02-2004 18:41:14 3.5 C 66 % -2.24 C
Sensor: Nr:Datum:Temp:Feuchte:Taupunkt:
Aussen-T/F 576 17-02-2004 18:53:01 3.4 C 66 % -2.33 C
577 17-02-2004 19:05:01 3.4 C 66 % -2.33 C
578 17-02-2004 19:17:00 3.3 C 66 % -2.43 C
579 17-02-2004 19:29:00 3.3 C 67 % -2.23 C
580 17-02-2004 19:41:00 3.2 C 67 % -2.32 C
581 17-02-2004 19:53:01 3.3 C 67 % -2.23 C
582 17-02-2004 20:05:01 3.3 C 68 % -2.03 C
583 17-02-2004 20:17:01 3.3 C 68 % -2.03 C
584 17-02-2004 20:29:01 3.3 C 68 % -2.03 C
585 17-02-2004 20:41:01 3.3 C 68 % -2.03 C
586 17-02-2004 20:53:01 3.3 C 68 % -2.03 C
587 17-02-2004 21:05:01 3.3 C 68 % -2.03 C
588 17-02-2004 21:17:01 3.3 C 68 % -2.03 C
589 17-02-2004 21:29:01 3.3 C 68 % -2.03 C
590 17-02-2004 21:41:01 3.3 C 68 % -2.03 C
591 17-02-2004 21:53:00 3.3 C 68 % -2.03 C
592 17-02-2004 22:05:59 3.4 C 68 % -1.93 C
593 17-02-2004 22:17:56 3.4 C 69 % -1.73 C
594 17-02-2004 22:29:56 3.4 C 69 % -1.73 C
595 17-02-2004 22:41:55 3.3 C 70 % -1.64 C
596 17-02-2004 22:53:00 3.4 C 70 % -1.54 C
597 17-02-2004 23:05:00 3.3 C 70 % -1.64 C
598 17-02-2004 23:17:59 3.3 C 70 % -1.64 C
599 17-02-2004 23:29:59 3.4 C 70 % -1.54 C
600 17-02-2004 23:41:58 3.4 C 70 % -1.54 C
Sensor: Nr:Datum:Temp:Feuchte:Taupunkt:
Aussen-T/F 601 17-02-2004 23:53:01 3.3 C 70 % -1.64 C
602 18-02-2004 00:05:00 3.3 C 71 % -1.44 C
603 18-02-2004 00:17:00 3.3 C 71 % -1.44 C
604 18-02-2004 00:29:00 3.3 C 72 % -1.25 C
605 18-02-2004 00:41:00 3.3 C 72 % -1.25 C
606 18-02-2004 00:53:01 3.4 C 72 % -1.16 C
607 18-02-2004 01:05:01 3.4 C 72 % -1.16 C
608 18-02-2004 01:17:01 3.4 C 72 % -1.16 C
609 18-02-2004 01:29:01 3.5 C 72 % -1.06 C
610 18-02-2004 01:41:01 3.4 C 72 % -1.16 C
611 18-02-2004 01:53:01 3.5 C 72 % -1.06 C
612 18-02-2004 02:05:01 3.5 C 72 % -1.06 C
613 18-02-2004 02:17:01 3.5 C 72 % -1.06 C
614 18-02-2004 02:29:01 3.6 C 72 % -0.96 C
615 18-02-2004 02:41:01 3.5 C 74 % -0.69 C
616 18-02-2004 02:54:01 3.4 C 76 % -0.42 C
617 18-02-2004 03:06:01 3.4 C 77 % -0.24 C
618 18-02-2004 03:18:00 3.7 C 79 % 0.4 C
619 18-02-2004 03:30:00 3.8 C 79 % 0.5 C
620 18-02-2004 03:42:01 3.8 C 79 % 0.5 C
621 18-02-2004 03:54:01 3.8 C 79 % 0.5 C
622 18-02-2004 04:06:01 3.9 C 78 % 0.42 C
623 18-02-2004 04:18:00 3.8 C 78 % 0.33 C
624 18-02-2004 04:30:00 3.9 C 77 % 0.25 C
625 18-02-2004 04:42:00 3.8 C 77 % 0.15 C
Sensor: Nr:Datum:Temp:Feuchte:Taupunkt:
Aussen-T/F 626 18-02-2004 04:54:01 4 C 73 % -0.39 C
627 18-02-2004 05:06:01 3.9 C 73 % -0.49 C
628 18-02-2004 05:18:01 3.9 C 72 % -0.68 C
629 18-02-2004 05:30:01 3.6 C 73 % -0.78 C
630 18-02-2004 05:42:01 3.7 C 68 % -1.64 C
631 18-02-2004 05:54:01 3.7 C 65 % -2.25 C
632 18-02-2004 06:06:01 3.8 C 63 % -2.58 C
633 18-02-2004 06:18:01 3.8 C 65 % -2.16 C
634 18-02-2004 06:30:01 3.8 C 66 % -1.95 C
635 18-02-2004 06:42:01 3.8 C 66 % -1.95 C
636 18-02-2004 06:54:00 3.8 C 66 % -1.95 C
637 18-02-2004 07:06:00 3.7 C 67 % -1.85 C
638 18-02-2004 07:18:59 3.8 C 66 % -1.95 C
639 18-02-2004 07:30:57 3.7 C 67 % -1.85 C
640 18-02-2004 07:42:57 3.8 C 67 % -1.75 C
641 18-02-2004 07:54:01 3.8 C 66 % -1.95 C
642 18-02-2004 08:06:01 3.9 C 67 % -1.65 C
643 18-02-2004 08:18:01 3.9 C 67 % -1.65 C
644 18-02-2004 08:30:01 4 C 66 % -1.76 C
645 18-02-2004 08:42:01 4.1 C 66 % -1.67 C
646 18-02-2004 08:54:00 4.2 C 66 % -1.57 C
647 18-02-2004 09:05:59 4.3 C 65 % -1.68 C
648 18-02-2004 09:18:58 4.4 C 65 % -1.59 C
649 18-02-2004 09:30:57 4.5 C 64 % -1.7 C
650 18-02-2004 09:42:57 4.7 C 64 % -1.51 C
Sensor: Nr:Datum:Temp:Feuchte:Taupunkt:
Aussen-T/F 651 18-02-2004 09:54:01 4.7 C 64 % -1.51 C
652 18-02-2004 10:06:01 4.7 C 64 % -1.51 C
653 18-02-2004 10:18:01 4.6 C 63 % -1.82 C
654 18-02-2004 10:30:01 4.6 C 63 % -1.82 C
655 18-02-2004 10:42:01 5.3 C 57 % -2.51 C
656 18-02-2004 10:54:01 5.3 C 57 % -2.51 C
657 18-02-2004 11:06:01 5 C 59 % -2.33 C
658 18-02-2004 11:18:01 5 C 54 % -3.52 C
659 18-02-2004 11:30:01 5.6 C 46 % -5.09 C
660 18-02-2004 11:42:01 5.5 C 46 % -5.18 C
661 18-02-2004 11:54:00 5.6 C 45 % -5.38 C
662 18-02-2004 12:06:00 5.7 C 46 % -5 C
663 18-02-2004 12:18:59 5.7 C 48 % -4.43 C
664 18-02-2004 12:30:57 5.6 C 52 % -3.46 C
665 18-02-2004 12:42:57 5.5 C 53 % -3.3 C
666 18-02-2004 12:54:01 5.4 C 55 % -2.9 C
667 18-02-2004 13:06:01 5.5 C 57 % -2.33 C
668 18-02-2004 13:18:01 5.6 C 57 % -2.23 C
669 18-02-2004 13:30:01 5.6 C 57 % -2.23 C
670 18-02-2004 13:42:01 5.2 C 60 % -1.92 C
671 18-02-2004 13:54:00 4.8 C 66 % -1 C
672 18-02-2004 14:06:00 4.5 C 69 % -0.68 C
673 18-02-2004 14:18:58 4.7 C 69 % -0.49 C
674 18-02-2004 14:30:57 5.6 C 69 % 0.37 C
675 18-02-2004 14:42:57 5.8 C 63 % -0.69 C
Sensor: Nr:Datum:Temp:Feuchte:Taupunkt:
Aussen-T/F 676 18-02-2004 14:54:01 6.6 C 59 % -0.83 C
677 18-02-2004 15:06:01 6.9 C 51 % -2.52 C
678 18-02-2004 15:18:01 6.7 C 54 % -1.94 C
679 18-02-2004 15:30:01 6.3 C 51 % -3.08 C
680 18-02-2004 15:42:01 7 C 52 % -2.17 C
681 18-02-2004 15:54:01 7.8 C 46 % -3.08 C
682 18-02-2004 16:06:01 7.1 C 48 % -3.15 C
683 18-02-2004 16:18:01 6.6 C 48 % -3.61 C
684 18-02-2004 16:30:01 6.7 C 49 % -3.24 C
685 18-02-2004 16:42:01 7.2 C 46 % -3.63 C
686 18-02-2004 16:54:00 7 C 45 % -4.1 C
687 18-02-2004 17:06:00 7.2 C 45 % -3.92 C
688 18-02-2004 17:18:58 7.2 C 45 % -3.92 C
689 18-02-2004 17:30:57 6.5 C 46 % -4.27 C
690 18-02-2004 17:42:57 6 C 48 % -4.16 C
691 18-02-2004 17:54:01 5.6 C 50 % -3.99 C
692 18-02-2004 18:06:01 5.2 C 51 % -4.09 C
693 18-02-2004 18:18:01 4.9 C 53 % -3.86 C
694 18-02-2004 18:30:01 4.6 C 54 % -3.89 C
695 18-02-2004 18:42:01 4.3 C 56 % -3.69 C
696 18-02-2004 18:54:00 3.8 C 60 % -3.23 C
697 18-02-2004 19:06:59 3.9 C 60 % -3.14 C
698 18-02-2004 19:18:58 4.1 C 58 % -3.41 C
699 18-02-2004 19:30:57 4.1 C 58 % -3.41 C
700 18-02-2004 19:42:57 4.1 C 60 % -2.95 C
Sensor: Nr:Datum:Temp:Feuchte:Taupunkt:
Aussen-T/F 701 18-02-2004 19:54:01 3.7 C 61 % -3.11 C
702 18-02-2004 20:06:01 3.3 C 63 % -3.05 C
703 18-02-2004 20:18:01 2.7 C 65 % -3.21 C
704 18-02-2004 20:30:01 2.4 C 67 % -3.09 C
705 18-02-2004 20:42:01 2 C 67 % -3.47 C
706 18-02-2004 20:54:01 1.8 C 69 % -3.27 C
707 18-02-2004 21:06:01 1.6 C 70 % -3.27 C
708 18-02-2004 21:18:01 1.4 C 70 % -3.46 C
709 18-02-2004 21:30:01 1.2 C 71 % -3.46 C
710 18-02-2004 21:42:01 0.9 C 72 % -3.56 C
711 18-02-2004 21:54:00 0.7 C 72 % -3.76 C
712 18-02-2004 22:06:00 0.6 C 73 % -3.67 C
713 18-02-2004 22:18:58 0.5 C 74 % -3.58 C
714 18-02-2004 22:30:57 0.2 C 74 % -3.87 C
715 18-02-2004 22:42:57 0.1 C 74 % -3.97 C
716 18-02-2004 22:54:01 0.1 C 75 % -3.79 C
717 18-02-2004 23:06:01 0 C 76 % -3.71 C
718 18-02-2004 23:18:01 0.2 C 76 % -3.52 C
719 18-02-2004 23:30:01 0 C 75 % -3.89 C
720 18-02-2004 23:42:01 0.1 C 75 % -3.79 C
721 18-02-2004 23:54:00 0.4 C 75 % -3.5 C
722 19-02-2004 00:06:59 0.3 C 74 % -3.78 C
723 19-02-2004 00:18:58 0.1 C 74 % -3.97 C
724 19-02-2004 00:30:57 0.1 C 75 % -3.79 C
725 19-02-2004 00:42:57 0.2 C 75 % -3.69 C
Sensor: Nr:Datum:Temp:Feuchte:Taupunkt:
Aussen-T/F 726 19-02-2004 00:54:01 0.2 C 75 % -3.69 C
727 19-02-2004 01:06:01 0.3 C 75 % -3.6 C
728 19-02-2004 01:18:01 0.1 C 75 % -3.79 C
729 19-02-2004 01:30:01 -0.1 C 75 % -3.99 C
730 19-02-2004 01:42:01 -0.3 C 76 % -4.01 C
731 19-02-2004 01:54:01 -0.4 C 76 % -4.1 C
732 19-02-2004 02:06:01 -0.6 C 76 % -4.3 C
733 19-02-2004 02:18:01 -0.8 C 76 % -4.49 C
734 19-02-2004 02:30:01 -1 C 77 % -4.51 C
735 19-02-2004 02:42:01 -1 C 77 % -4.51 C
736 19-02-2004 02:55:01 -1.2 C 77 % -4.71 C
737 19-02-2004 03:07:01 -1.3 C 77 % -4.8 C
738 19-02-2004 03:19:00 -1.2 C 78 % -4.54 C
739 19-02-2004 03:31:01 -1.3 C 79 % -4.46 C
740 19-02-2004 03:43:01 -1.5 C 78 % -4.83 C
741 19-02-2004 03:55:01 -1.8 C 78 % -5.12 C
742 19-02-2004 04:07:01 -1.9 C 78 % -5.22 C
743 19-02-2004 04:19:00 -2 C 79 % -5.15 C
744 19-02-2004 04:31:00 -2.1 C 79 % -5.24 C
745 19-02-2004 04:43:00 -2 C 79 % -5.15 C
746 19-02-2004 04:55:01 -1.2 C 80 % -4.2 C
747 19-02-2004 05:07:01 -1.2 C 82 % -3.87 C
748 19-02-2004 05:19:01 -1.1 C 82 % -3.77 C
749 19-02-2004 05:31:01 -1 C 82 % -3.68 C
750 19-02-2004 05:43:01 -1 C 82 % -3.68 C
Sensor: Nr:Datum:Temp:Feuchte:Taupunkt:
Aussen-T/F 751 19-02-2004 05:55:01 -0.7 C 82 % -3.38 C
752 19-02-2004 06:07:01 -0.5 C 82 % -3.19 C
753 19-02-2004 06:19:01 -0.4 C 81 % -3.25 C
754 19-02-2004 06:31:01 -0.3 C 80 % -3.32 C
755 19-02-2004 06:43:01 -0.3 C 79 % -3.49 C
756 19-02-2004 06:55:00 -0.2 C 78 % -3.56 C
757 19-02-2004 07:07:00 -0.2 C 77 % -3.74 C
758 19-02-2004 07:19:59 0 C 77 % -3.54 C
759 19-02-2004 07:31:57 0 C 77 % -3.54 C
760 19-02-2004 07:43:57 0.2 C 76 % -3.52 C
761 19-02-2004 07:55:01 0.3 C 75 % -3.6 C
762 19-02-2004 08:07:01 0.4 C 74 % -3.68 C
763 19-02-2004 08:19:01 0.5 C 74 % -3.58 C
764 19-02-2004 08:31:01 0.8 C 75 % -3.11 C
765 19-02-2004 08:43:01 1.1 C 73 % -3.19 C
766 19-02-2004 08:55:00 1.3 C 73 % -2.99 C
767 19-02-2004 09:06:59 1.7 C 72 % -2.79 C
768 19-02-2004 09:19:58 1.9 C 70 % -2.98 C
769 19-02-2004 09:31:57 2.2 C 68 % -3.08 C
770 19-02-2004 09:43:57 2.4 C 64 % -3.7 C
771 19-02-2004 09:55:01 2.7 C 60 % -4.27 C
772 19-02-2004 10:07:01 2.8 C 58 % -4.63 C
773 19-02-2004 10:19:01 2.5 C 58 % -4.91 C
774 19-02-2004 10:31:01 2.9 C 57 % -4.76 C
775 19-02-2004 10:43:01 3.2 C 51 % -5.94 C
Sensor: Nr:Datum:Temp:Feuchte:Taupunkt:
Aussen-T/F 776 19-02-2004 10:55:01 3.1 C 46 % -7.37 C
777 19-02-2004 11:07:01 3.1 C 45 % -7.66 C
778 19-02-2004 11:19:01 3.7 C 45 % -7.11 C
779 19-02-2004 11:31:01 3.7 C 45 % -7.11 C
780 19-02-2004 11:43:01 3.4 C 46 % -7.1 C
781 19-02-2004 11:55:00 3.7 C 43 % -7.7 C
782 19-02-2004 12:07:00 4.1 C 41 % -7.95 C
783 19-02-2004 12:19:58 4.5 C 39 % -8.23 C
784 19-02-2004 12:31:57 4.6 C 38 % -8.47 C
785 19-02-2004 12:43:57 4.7 C 39 % -8.05 C
786 19-02-2004 12:55:01 4.4 C 38 % -8.65 C
787 19-02-2004 13:07:01 4.2 C 37 % -9.17 C
788 19-02-2004 13:19:01 4.1 C 37 % -9.26 C
789 19-02-2004 13:31:01 3.8 C 39 % -8.86 C
790 19-02-2004 13:43:01 3.5 C 39 % -9.12 C
791 19-02-2004 13:55:00 3.5 C 39 % -9.12 C
792 19-02-2004 14:07:00 3.6 C 40 % -8.71 C
793 19-02-2004 14:19:58 3.4 C 42 % -8.27 C
794 19-02-2004 14:31:57 3.4 C 44 % -7.67 C
795 19-02-2004 14:43:57 3.3 C 45 % -7.47 C
796 19-02-2004 14:55:01 3.1 C 45 % -7.66 C
797 19-02-2004 15:07:01 3 C 45 % -7.75 C
798 19-02-2004 15:19:01 2.9 C 46 % -7.56 C
799 19-02-2004 15:31:02 2.8 C 46 % -7.65 C
800 19-02-2004 15:43:02 2.7 C 47 % -7.46 C
Sensor: Nr:Datum:Temp:Feuchte:Taupunkt:
Aussen-T/F 801 19-02-2004 15:55:00 2.6 C 47 % -7.55 C
802 19-02-2004 16:07:00 2.4 C 46 % -8.01 C
803 19-02-2004 16:19:59 2.4 C 46 % -8.01 C
804 19-02-2004 16:31:59 2.5 C 46 % -7.92 C
805 19-02-2004 16:43:59 2.3 C 45 % -8.39 C
806 19-02-2004 16:55:01 2.3 C 45 % -8.39 C
807 19-02-2004 17:07:01 2.2 C 45 % -8.48 C
808 19-02-2004 17:19:01 2 C 45 % -8.66 C
809 19-02-2004 17:31:02 1.8 C 46 % -8.56 C
810 19-02-2004 17:43:02 1.7 C 46 % -8.65 C
811 19-02-2004 17:55:01 1.6 C 46 % -8.75 C
812 19-02-2004 18:07:01 1.5 C 45 % -9.12 C
813 19-02-2004 18:19:01 1.4 C 46 % -8.93 C
814 19-02-2004 18:31:01 1.4 C 46 % -8.93 C
815 19-02-2004 18:43:01 1.3 C 46 % -9.02 C
816 19-02-2004 18:55:00 1.2 C 46 % -9.11 C
817 19-02-2004 19:07:00 1.2 C 46 % -9.11 C
818 19-02-2004 19:19:59 1.2 C 46 % -9.11 C
819 19-02-2004 19:31:57 1.2 C 46 % -9.11 C
820 19-02-2004 19:43:57 1.1 C 47 % -8.93 C
821 19-02-2004 19:55:01 1.1 C 47 % -8.93 C
822 19-02-2004 20:07:01 1.1 C 47 % -8.93 C
823 19-02-2004 20:19:01 1.1 C 47 % -8.93 C
824 19-02-2004 20:31:01 1.1 C 47 % -8.93 C
825 19-02-2004 20:43:01 1.1 C 47 % -8.93 C
Sensor: Nr:Datum:Temp:Feuchte:Taupunkt:
Aussen-T/F 826 19-02-2004 20:55:00 1.1 C 47 % -8.93 C
827 19-02-2004 21:07:00 1.1 C 48 % -8.66 C
828 19-02-2004 21:19:58 1.1 C 48 % -8.66 C
829 19-02-2004 21:31:57 1.1 C 48 % -8.66 C
830 19-02-2004 21:43:57 1.1 C 48 % -8.66 C
831 19-02-2004 21:55:01 1 C 48 % -8.75 C
832 19-02-2004 22:07:01 0.9 C 50 % -8.33 C
833 19-02-2004 22:19:01 1 C 48 % -8.75 C
834 19-02-2004 22:31:01 0.9 C 49 % -8.58 C
835 19-02-2004 22:43:01 0.9 C 48 % -8.85 C
836 19-02-2004 22:55:01 1 C 47 % -9.02 C
837 19-02-2004 23:07:01 0.9 C 49 % -8.58 C
838 19-02-2004 23:19:01 0.9 C 49 % -8.58 C
839 19-02-2004 23:31:01 0.9 C 49 % -8.58 C
840 19-02-2004 23:43:01 0.8 C 49 % -8.68 C
841 19-02-2004 23:55:01 0.8 C 50 % -8.42 C
842 20-02-2004 00:07:00 0.8 C 49 % -8.68 C
843 20-02-2004 00:19:59 0.8 C 49 % -8.68 C
844 20-02-2004 00:31:57 0.8 C 49 % -8.68 C
845 20-02-2004 00:43:57 0.7 C 49 % -8.77 C
846 20-02-2004 00:55:01 0.7 C 49 % -8.77 C
847 20-02-2004 01:07:01 0.7 C 49 % -8.77 C
848 20-02-2004 01:19:01 0.4 C 50 % -8.79 C
849 20-02-2004 01:31:01 0.3 C 51 % -8.63 C
850 20-02-2004 01:43:01 0.2 C 51 % -8.72 C
Sensor: Nr:Datum:Temp:Feuchte:Taupunkt:
Aussen-T/F 851 20-02-2004 01:55:00 0.3 C 51 % -8.63 C
852 20-02-2004 02:07:59 0.3 C 51 % -8.63 C
853 20-02-2004 02:19:58 0.1 C 52 % -8.56 C
854 20-02-2004 02:31:57 0 C 52 % -8.66 C
855 20-02-2004 02:43:57 -0.2 C 54 % -8.37 C
856 20-02-2004 02:56:02 -0.2 C 54 % -8.37 C
857 20-02-2004 03:08:02 -0.3 C 54 % -8.47 C
858 20-02-2004 03:20:02 -0.3 C 55 % -8.23 C
859 20-02-2004 03:32:00 -0.3 C 55 % -8.23 C
860 20-02-2004 03:44:00 -0.3 C 55 % -8.23 C
861 20-02-2004 03:56:00 -0.4 C 56 % -8.09 C
862 20-02-2004 04:08:00 -0.6 C 56 % -8.28 C
863 20-02-2004 04:20:59 -0.7 C 56 % -8.38 C
864 20-02-2004 04:32:57 -1 C 57 % -8.43 C
865 20-02-2004 04:44:01 -1.1 C 57 % -8.52 C
866 20-02-2004 04:56:01 -1.1 C 57 % -8.52 C
867 20-02-2004 05:08:01 -1.2 C 57 % -8.62 C
868 20-02-2004 05:20:01 -1.2 C 57 % -8.62 C
869 20-02-2004 05:32:01 -1.2 C 57 % -8.62 C
870 20-02-2004 05:44:01 -1.3 C 58 % -8.49 C
871 20-02-2004 05:56:00 -1.5 C 58 % -8.68 C
872 20-02-2004 06:08:00 -1.6 C 60 % -8.34 C
873 20-02-2004 06:20:58 -1.5 C 59 % -8.46 C
874 20-02-2004 06:32:57 -1.4 C 59 % -8.36 C
875 20-02-2004 06:44:01 -1.4 C 59 % -8.36 C
Sensor: Nr:Datum:Temp:Feuchte:Taupunkt:
Aussen-T/F 876 20-02-2004 06:56:01 -1.5 C 59 % -8.46 C
877 20-02-2004 07:08:01 -1.6 C 60 % -8.34 C
878 20-02-2004 07:20:01 -1.6 C 61 % -8.13 C
879 20-02-2004 07:32:01 -1.7 C 61 % -8.22 C
880 20-02-2004 07:44:01 -1.8 C 61 % -8.31 C
881 20-02-2004 07:56:01 -1.8 C 61 % -8.31 C
882 20-02-2004 08:08:01 -1.6 C 61 % -8.13 C
883 20-02-2004 08:20:01 -1.6 C 60 % -8.34 C
884 20-02-2004 08:32:01 -1.5 C 60 % -8.24 C
885 20-02-2004 08:44:01 -1.4 C 60 % -8.15 C
886 20-02-2004 08:56:00 -1.2 C 59 % -8.18 C
887 20-02-2004 09:08:00 -1.3 C 59 % -8.27 C
888 20-02-2004 09:20:59 -1.2 C 59 % -8.18 C
889 20-02-2004 09:32:58 -1.1 C 58 % -8.3 C
890 20-02-2004 09:44:01 -0.8 C 57 % -8.24 C
891 20-02-2004 09:56:01 -0.7 C 57 % -8.15 C
892 20-02-2004 10:08:01 -0.6 C 56 % -8.28 C
893 20-02-2004 10:20:01 -0.2 C 55 % -8.14 C
894 20-02-2004 10:32:01 0.4 C 54 % -7.8 C
895 20-02-2004 10:44:01 0.7 C 52 % -8.01 C
896 20-02-2004 10:56:00 1.2 C 50 % -8.05 C
897 20-02-2004 11:08:00 1.5 C 49 % -8.03 C
898 20-02-2004 11:20:58 2 C 47 % -8.1 C
899 20-02-2004 11:32:57 2.2 C 46 % -8.2 C
900 20-02-2004 11:44:01 2.6 C 44 % -8.4 C
Sensor: Nr:Datum:Temp:Feuchte:Taupunkt:
Aussen-T/F 901 20-02-2004 11:56:01 2.9 C 43 % -8.42 C
902 20-02-2004 12:08:01 3.4 C 42 % -8.27 C
903 20-02-2004 12:20:01 3.9 C 40 % -8.44 C
904 20-02-2004 12:32:01 4.3 C 38 % -8.74 C
905 20-02-2004 12:44:01 4.6 C 37 % -8.81 C
906 20-02-2004 12:56:00 5 C 37 % -8.45 C
907 20-02-2004 13:08:59 5.6 C 36 % -8.27 C
908 20-02-2004 13:20:58 6 C 33 % -9.03 C
909 20-02-2004 13:32:57 6.6 C 34 % -8.12 C
910 20-02-2004 13:44:01 6.9 C 31 % -9.03 C
911 20-02-2004 13:56:01 7.1 C 30 % -9.27 C
912 20-02-2004 14:08:01 7.7 C 29 % -9.18 C
913 20-02-2004 14:20:01 8.2 C 29 % -8.75 C
914 20-02-2004 14:32:00 8.2 C 26 % -10.13 C
915 20-02-2004 14:44:00 8.4 C 27 % -9.48 C
916 20-02-2004 14:56:01 8.7 C 26 % -9.7 C
917 20-02-2004 15:08:01 9.1 C 25 % -9.86 C
918 20-02-2004 15:20:01 8.9 C 25 % -10.03 C
919 20-02-2004 15:32:01 9.1 C 25 % -9.86 C
920 20-02-2004 15:44:01 9.2 C 25 % -9.77 C
921 20-02-2004 15:56:00 9.3 C 25 % -9.69 C
922 20-02-2004 16:07:59 9.1 C 26 % -9.36 C
923 20-02-2004 16:20:58 9.3 C 25 % -9.69 C
924 20-02-2004 16:32:04 9.2 C 25 % -9.77 C
925 20-02-2004 16:44:04 8.8 C 26 % -9.62 C
Sensor: Nr:Datum:Temp:Feuchte:Taupunkt:
Aussen-T/F 926 20-02-2004 16:56:02 8.7 C 29 % -8.32 C
927 20-02-2004 17:08:02 8.6 C 30 % -7.97 C
928 20-02-2004 17:20:10 7.9 C 32 % -7.75 C
929 20-02-2004 17:32:13 7.1 C 34 % -7.67 C
930 20-02-2004 17:44:13 5.8 C 38 % -7.4 C
931 20-02-2004 17:56:01 5 C 40 % -7.45 C
932 20-02-2004 18:08:01 4.2 C 42 % -7.55 C
933 20-02-2004 18:20:01 3.6 C 45 % -7.2 C
934 20-02-2004 18:32:01 3.3 C 46 % -7.19 C
935 20-02-2004 18:44:01 3.1 C 46 % -7.37 C
936 20-02-2004 18:56:01 2.9 C 48 % -7.01 C
937 20-02-2004 19:08:01 2.7 C 48 % -7.19 C
938 20-02-2004 19:20:01 2.5 C 49 % -7.11 C
939 20-02-2004 19:32:01 2.4 C 50 % -6.94 C
940 20-02-2004 19:44:01 2.3 C 50 % -7.03 C
941 20-02-2004 19:56:00 2.3 C 50 % -7.03 C
942 20-02-2004 20:08:57 2.1 C 51 % -6.96 C
943 20-02-2004 20:20:56 1.9 C 52 % -6.89 C
944 20-02-2004 20:32:54 1.7 C 53 % -6.83 C
945 20-02-2004 20:44:00 1.5 C 53 % -7.02 C
946 20-02-2004 20:56:00 1.4 C 54 % -6.87 C
947 20-02-2004 21:08:00 1.3 C 55 % -6.73 C
948 20-02-2004 21:20:59 1.2 C 55 % -6.82 C
949 20-02-2004 21:32:58 1 C 56 % -6.77 C
950 20-02-2004 21:44:01 0.9 C 57 % -6.64 C
Sensor: Nr:Datum:Temp:Feuchte:Taupunkt:
Aussen-T/F 951 20-02-2004 21:56:01 0.7 C 57 % -6.82 C
952 20-02-2004 22:08:00 0.6 C 58 % -6.69 C
953 20-02-2004 22:20:59 0.5 C 59 % -6.56 C
954 20-02-2004 22:32:58 0.4 C 59 % -6.66 C
955 20-02-2004 22:44:01 0.2 C 59 % -6.85 C
956 20-02-2004 22:56:01 0.1 C 59 % -6.94 C
957 20-02-2004 23:08:01 0 C 60 % -6.82 C
958 20-02-2004 23:20:00 -0.1 C 60 % -6.92 C
959 20-02-2004 23:32:00 -0.1 C 60 % -6.92 C
960 20-02-2004 23:44:00 -0.1 C 59 % -7.14 C
961 20-02-2004 23:56:01 -0.1 C 59 % -7.14 C
962 21-02-2004 00:08:01 -0.2 C 59 % -7.23 C
963 21-02-2004 00:20:02 -0.3 C 60 % -7.11 C
964 21-02-2004 00:32:01 -0.3 C 60 % -7.11 C
965 21-02-2004 00:44:01 -0.4 C 61 % -6.99 C
966 21-02-2004 00:56:01 -0.6 C 62 % -6.97 C
967 21-02-2004 01:08:01 -0.9 C 61 % -7.46 C
968 21-02-2004 01:20:01 -1 C 62 % -7.35 C
969 21-02-2004 01:32:01 -1.1 C 63 % -7.24 C
970 21-02-2004 01:44:01 -1.3 C 64 % -7.22 C
971 21-02-2004 01:56:01 -1.2 C 63 % -7.33 C
972 21-02-2004 02:08:01 -1.4 C 63 % -7.52 C
973 21-02-2004 02:20:01 -1.4 C 63 % -7.52 C
974 21-02-2004 02:32:01 -1.3 C 63 % -7.43 C
975 21-02-2004 02:44:01 -1.5 C 65 % -7.21 C
Sensor: Nr:Datum:Temp:Feuchte:Taupunkt:
Aussen-T/F 976 21-02-2004 02:57:01 -1.6 C 66 % -7.11 C
977 21-02-2004 03:09:01 -1.8 C 65 % -7.5 C
978 21-02-2004 03:20:59 -1.9 C 66 % -7.4 C
979 21-02-2004 03:33:01 -2 C 65 % -7.69 C
980 21-02-2004 03:45:01 -2.1 C 66 % -7.59 C
981 21-02-2004 03:57:01 -2.3 C 66 % -7.78 C
982 21-02-2004 04:09:01 -2.5 C 66 % -7.97 C
983 21-02-2004 04:21:01 -2.4 C 66 % -7.87 C
984 21-02-2004 04:33:01 -2.3 C 67 % -7.58 C
985 21-02-2004 04:45:00 -2 C 66 % -7.49 C
986 21-02-2004 04:57:00 -1.9 C 65 % -7.59 C
987 21-02-2004 05:09:59 -1.8 C 63 % -7.9 C
988 21-02-2004 05:21:58 -1.8 C 63 % -7.9 C
989 21-02-2004 05:33:57 -1.8 C 62 % -8.11 C
990 21-02-2004 05:45:01 -1.8 C 62 % -8.11 C
991 21-02-2004 05:57:01 -2 C 63 % -8.09 C
992 21-02-2004 06:09:01 -1.9 C 63 % -8 C
993 21-02-2004 06:21:01 -2 C 63 % -8.09 C
994 21-02-2004 06:33:01 -2 C 63 % -8.09 C
995 21-02-2004 06:45:01 -2 C 64 % -7.89 C
996 21-02-2004 06:57:01 -1.8 C 63 % -7.9 C
997 21-02-2004 07:09:01 -1.4 C 61 % -7.94 C
998 21-02-2004 07:21:01 -1.4 C 60 % -8.15 C
999 21-02-2004 07:33:01 -1.1 C 59 % -8.08 C
1000 21-02-2004 07:45:00 -1.1 C 58 % -8.3 C
Sensor: Nr:Datum:Temp:Feuchte:Taupunkt:
Aussen-T/F 1001 21-02-2004 07:57:00 -1.4 C 60 % -8.15 C
1002 21-02-2004 08:09:00 -0.9 C 58 % -8.11 C
1003 21-02-2004 08:21:58 -0.7 C 58 % -7.92 C
1004 21-02-2004 08:33:57 -0.4 C 56 % -8.09 C
1005 21-02-2004 08:45:01 -0.4 C 56 % -8.09 C
1006 21-02-2004 08:57:01 -0.4 C 57 % -7.87 C
1007 21-02-2004 09:09:01 -0.3 C 57 % -7.77 C
1008 21-02-2004 09:21:01 0.1 C 56 % -7.61 C
1009 21-02-2004 09:33:01 0.4 C 55 % -7.57 C
1010 21-02-2004 09:45:00 0.5 C 54 % -7.71 C
1011 21-02-2004 09:57:00 0.7 C 54 % -7.52 C
1012 21-02-2004 10:09:59 1 C 52 % -7.73 C
1013 21-02-2004 10:21:58 1.1 C 52 % -7.64 C
1014 21-02-2004 10:33:57 1.2 C 53 % -7.3 C
1015 21-02-2004 10:45:01 1.3 C 51 % -7.7 C
1016 21-02-2004 10:57:01 1.5 C 50 % -7.77 C
1017 21-02-2004 11:09:01 1.5 C 50 % -7.77 C
1018 21-02-2004 11:21:01 1.5 C 51 % -7.52 C
1019 21-02-2004 11:33:01 1.6 C 51 % -7.42 C
1020 21-02-2004 11:45:01 1.8 C 51 % -7.24 C
1021 21-02-2004 11:57:01 2.2 C 50 % -7.12 C
1022 21-02-2004 12:09:01 2.4 C 50 % -6.94 C
1023 21-02-2004 12:21:01 3 C 46 % -7.47 C
1024 21-02-2004 12:33:01 3.1 C 45 % -7.66 C
1025 21-02-2004 12:45:00 3.3 C 46 % -7.19 C
Sensor: Nr:Datum:Temp:Feuchte:Taupunkt:
Aussen-T/F 1026 21-02-2004 12:57:00 3.5 C 45 % -7.29 C
1027 21-02-2004 13:09:00 3.4 C 45 % -7.38 C
1028 21-02-2004 13:21:58 3.7 C 45 % -7.11 C
1029 21-02-2004 13:33:57 3.7 C 45 % -7.11 C
1030 21-02-2004 13:45:01 3.5 C 46 % -7.01 C
1031 21-02-2004 13:57:01 3.5 C 46 % -7.01 C
1032 21-02-2004 14:09:01 3.6 C 45 % -7.2 C
1033 21-02-2004 14:21:01 3.6 C 45 % -7.2 C
1034 21-02-2004 14:33:01 3.7 C 45 % -7.11 C
1035 21-02-2004 14:45:01 3.9 C 45 % -6.93 C
1036 21-02-2004 14:57:01 4.2 C 44 % -6.94 C
1037 21-02-2004 15:09:28 4.4 C 44 % -6.76 C
1038 21-02-2004 15:21:01 4.8 C 43 % -6.7 C
1039 21-02-2004 15:33:01 5.3 C 41 % -6.86 C
1040 21-02-2004 15:45:00 5.5 C 41 % -6.68 C
1041 21-02-2004 15:57:00 5.5 C 41 % -6.68 C
1042 21-02-2004 16:09:00 5.8 C 41 % -6.41 C
1043 21-02-2004 16:21:59 5.7 C 40 % -6.82 C
1044 21-02-2004 16:33:57 5.5 C 41 % -6.68 C
1045 21-02-2004 16:45:02 5.1 C 42 % -6.73 C
1046 21-02-2004 16:57:02 4.8 C 43 % -6.7 C
1047 21-02-2004 17:09:04 4.6 C 44 % -6.58 C
1048 21-02-2004 17:21:02 4.4 C 45 % -6.47 C
1049 21-02-2004 17:33:02 4.3 C 45 % -6.56 C
1050 21-02-2004 17:45:02 4.2 C 45 % -6.65 C
Sensor: Nr:Datum:Temp:Feuchte:Taupunkt:
Aussen-T/F 1051 21-02-2004 17:57:02 4.1 C 46 % -6.46 C
1052 21-02-2004 18:09:01 3.9 C 47 % -6.36 C
1053 21-02-2004 18:21:59 3.8 C 49 % -5.91 C
1054 21-02-2004 18:33:59 3.7 C 48 % -6.27 C
1055 21-02-2004 18:45:01 3.7 C 50 % -5.74 C
1056 21-02-2004 18:57:01 3.6 C 50 % -5.83 C
1057 21-02-2004 19:09:01 3.4 C 51 % -5.76 C
1058 21-02-2004 19:21:00 3 C 51 % -6.13 C
1059 21-02-2004 19:33:00 2.7 C 53 % -5.9 C
1060 21-02-2004 19:45:01 2.5 C 54 % -5.85 C
1061 21-02-2004 19:57:01 2.5 C 55 % -5.61 C
1062 21-02-2004 20:09:01 2.6 C 55 % -5.51 C
1063 21-02-2004 20:21:01 2.7 C 55 % -5.42 C
1064 21-02-2004 20:33:01 2.8 C 56 % -5.09 C
1065 21-02-2004 20:45:01 2.9 C 55 % -5.23 C
1066 21-02-2004 20:57:01 2.8 C 55 % -5.33 C
1067 21-02-2004 21:09:01 2.8 C 56 % -5.09 C
1068 21-02-2004 21:21:01 2.4 C 56 % -5.46 C
1069 21-02-2004 21:33:01 1.9 C 58 % -5.47 C
1070 21-02-2004 21:45:00 1.6 C 59 % -5.53 C
1071 21-02-2004 21:57:00 1.4 C 59 % -5.72 C
1072 21-02-2004 22:09:00 1.2 C 60 % -5.69 C
1073 21-02-2004 22:21:58 1.1 C 61 % -5.56 C
1074 21-02-2004 22:33:57 0.9 C 62 % -5.54 C
1075 21-02-2004 22:45:01 0.9 C 62 % -5.54 C
Sensor: Nr:Datum:Temp:Feuchte:Taupunkt:
Aussen-T/F 1076 21-02-2004 22:57:01 0.7 C 63 % -5.52 C
1077 21-02-2004 23:09:01 0.6 C 64 % -5.41 C
1078 21-02-2004 23:21:01 0.4 C 65 % -5.39 C
1079 21-02-2004 23:33:01 0.3 C 65 % -5.49 C
1080 21-02-2004 23:45:01 0.3 C 66 % -5.29 C
1081 21-02-2004 23:57:01 0.1 C 66 % -5.48 C
1082 22-02-2004 00:09:01 0.2 C 66 % -5.38 C
1083 22-02-2004 00:21:01 0.1 C 66 % -5.48 C
1084 22-02-2004 00:33:01 0 C 66 % -5.58 C
1085 22-02-2004 00:45:00 0 C 65 % -5.78 C
1086 22-02-2004 00:57:00 -0.1 C 66 % -5.68 C
1087 22-02-2004 01:09:00 -0.2 C 67 % -5.58 C
1088 22-02-2004 01:21:59 -0.1 C 67 % -5.48 C
1089 22-02-2004 01:33:57 -0.1 C 68 % -5.29 C
1090 22-02-2004 01:45:01 0 C 67 % -5.38 C
1091 22-02-2004 01:57:01 0.2 C 67 % -5.19 C
1092 22-02-2004 02:09:01 0.3 C 67 % -5.09 C
1093 22-02-2004 02:21:01 0.2 C 66 % -5.38 C
1094 22-02-2004 02:33:01 0.1 C 67 % -5.28 C
1095 22-02-2004 02:46:01 -0.1 C 67 % -5.48 C
1096 22-02-2004 02:58:01 -0.2 C 68 % -5.38 C
1097 22-02-2004 03:10:00 -0.3 C 69 % -5.29 C
1098 22-02-2004 03:22:00 -0.3 C 69 % -5.29 C
1099 22-02-2004 03:34:01 -0.1 C 69 % -5.09 C
1100 22-02-2004 03:46:01 0.2 C 68 % -4.99 C
Sensor: Nr:Datum:Temp:Feuchte:Taupunkt:
Aussen-T/F 1101 22-02-2004 03:58:01 0.1 C 69 % -4.9 C
1102 22-02-2004 04:10:00 0.1 C 69 % -4.9 C
1103 22-02-2004 04:22:00 0.2 C 68 % -4.99 C
1104 22-02-2004 04:34:00 0.2 C 68 % -4.99 C
1105 22-02-2004 04:46:01 0.3 C 68 % -4.9 C
1106 22-02-2004 04:58:01 0.4 C 67 % -5 C
1107 22-02-2004 05:10:01 0.4 C 67 % -5 C
1108 22-02-2004 05:22:01 0.4 C 68 % -4.8 C
1109 22-02-2004 05:34:00 0.4 C 69 % -4.61 C
1110 22-02-2004 05:46:01 0.4 C 69 % -4.61 C
1111 22-02-2004 05:58:01 0.4 C 69 % -4.61 C
1112 22-02-2004 06:10:01 0.4 C 69 % -4.61 C
1113 22-02-2004 06:22:01 0.4 C 69 % -4.61 C
1114 22-02-2004 06:34:01 0.5 C 69 % -4.51 C
1115 22-02-2004 06:46:00 0.4 C 69 % -4.61 C
1116 22-02-2004 06:58:00 0.4 C 70 % -4.42 C
1117 22-02-2004 07:10:00 0.5 C 69 % -4.51 C
1118 22-02-2004 07:22:58 0.6 C 69 % -4.42 C
1119 22-02-2004 07:34:57 0.7 C 68 % -4.51 C
1120 22-02-2004 07:46:01 1 C 67 % -4.42 C
1121 22-02-2004 07:58:01 1.2 C 66 % -4.43 C
1122 22-02-2004 08:10:01 1.3 C 66 % -4.34 C
1123 22-02-2004 08:22:01 1.4 C 66 % -4.24 C
1124 22-02-2004 08:34:01 1.5 C 66 % -4.15 C
1125 22-02-2004 08:46:00 1.6 C 65 % -4.25 C
Sensor: Nr:Datum:Temp:Feuchte:Taupunkt:
Aussen-T/F 1126 22-02-2004 08:58:00 1.7 C 65 % -4.16 C
1127 22-02-2004 09:10:59 1.8 C 65 % -4.06 C
1128 22-02-2004 09:22:58 1.8 C 65 % -4.06 C
1129 22-02-2004 09:34:57 2 C 65 % -3.87 C
1130 22-02-2004 09:46:01 1.9 C 66 % -3.76 C
1131 22-02-2004 09:58:01 1.9 C 66 % -3.76 C
1132 22-02-2004 10:10:01 1.8 C 66 % -3.86 C
1133 22-02-2004 10:22:01 1.6 C 66 % -4.05 C
1134 22-02-2004 10:34:00 1.7 C 66 % -3.95 C
1135 22-02-2004 10:46:16 1.5 C 66 % -4.15 C
1136 22-02-2004 10:58:01 1.7 C 66 % -3.95 C
1137 22-02-2004 11:10:01 1.8 C 66 % -3.86 C
1138 22-02-2004 11:22:01 1.7 C 66 % -3.95 C
1139 22-02-2004 11:34:01 1.9 C 66 % -3.76 C
1140 22-02-2004 11:46:40 2.1 C 64 % -3.98 C
1141 22-02-2004 11:58:00 2 C 63 % -4.29 C
1142 22-02-2004 12:10:00 1.9 C 65 % -3.97 C
1143 22-02-2004 12:22:59 1.6 C 64 % -4.46 C
1144 22-02-2004 12:34:58 2 C 63 % -4.29 C
1145 22-02-2004 12:46:01 1.9 C 63 % -4.38 C
1146 22-02-2004 12:58:01 2.1 C 62 % -4.4 C
1147 22-02-2004 13:10:01 2.3 C 60 % -4.65 C
1148 22-02-2004 13:22:01 2.5 C 58 % -4.91 C
1149 22-02-2004 13:34:01 2.8 C 58 % -4.63 C
1150 22-02-2004 13:46:00 2.8 C 56 % -5.09 C
Sensor: Nr:Datum:Temp:Feuchte:Taupunkt:
Aussen-T/F 1151 22-02-2004 13:58:00 3.3 C 54 % -5.1 C
1152 22-02-2004 14:10:00 3.3 C 53 % -5.35 C
1153 22-02-2004 14:22:59 3.4 C 52 % -5.5 C
1154 22-02-2004 14:34:57 3.6 C 51 % -5.57 C
1155 22-02-2004 14:46:01 4 C 49 % -5.73 C
1156 22-02-2004 14:58:01 4.3 C 46 % -6.28 C
1157 22-02-2004 15:10:01 4.5 C 44 % -6.67 C
1158 22-02-2004 15:22:01 5.1 C 41 % -7.04 C
1159 22-02-2004 15:34:01 5.4 C 38 % -7.75 C
1160 22-02-2004 15:46:00 5.8 C 37 % -7.74 C
1161 22-02-2004 15:58:00 5.5 C 36 % -8.36 C
1162 22-02-2004 16:09:59 4.8 C 41 % -7.31 C
1163 22-02-2004 16:22:58 4.7 C 43 % -6.79 C
1164 22-02-2004 16:34:57 4.6 C 45 % -6.29 C
1165 22-02-2004 16:46:01 4.4 C 46 % -6.18 C
1166 22-02-2004 16:58:01 4.1 C 46 % -6.46 C
1167 22-02-2004 17:10:01 3.9 C 47 % -6.36 C
1168 22-02-2004 17:22:01 3.7 C 47 % -6.55 C
1169 22-02-2004 17:34:01 3.6 C 48 % -6.36 C
1170 22-02-2004 17:46:01 3.6 C 49 % -6.1 C
1171 22-02-2004 17:58:01 3.6 C 49 % -6.1 C
1172 22-02-2004 18:10:01 3.5 C 49 % -6.19 C
1173 22-02-2004 18:22:01 3.5 C 50 % -5.92 C
1174 22-02-2004 18:34:01 3.5 C 50 % -5.92 C
1175 22-02-2004 18:46:00 3.5 C 51 % -5.66 C
Sensor: Nr:Datum:Temp:Feuchte:Taupunkt:
Aussen-T/F 1176 22-02-2004 18:58:00 3.5 C 51 % -5.66 C
1177 22-02-2004 19:10:00 3.5 C 52 % -5.41 C
1178 22-02-2004 19:22:59 3.5 C 53 % -5.16 C
1179 22-02-2004 19:34:57 3.3 C 53 % -5.35 C
1180 22-02-2004 19:46:01 2.7 C 56 % -5.18 C
1181 22-02-2004 19:58:01 2.4 C 58 % -5 C
1182 22-02-2004 20:10:01 2.5 C 58 % -4.91 C
1183 22-02-2004 20:22:01 2.6 C 59 % -4.59 C
1184 22-02-2004 20:34:01 2.7 C 58 % -4.72 C
1185 22-02-2004 20:46:00 2.8 C 58 % -4.63 C
1186 22-02-2004 20:58:00 2.9 C 59 % -4.31 C
1187 22-02-2004 21:10:59 2.9 C 60 % -4.08 C
1188 22-02-2004 21:22:58 3 C 58 % -4.44 C
1189 22-02-2004 21:34:57 3 C 58 % -4.44 C
1190 22-02-2004 21:46:01 3 C 58 % -4.44 C
1191 22-02-2004 21:58:01 3.1 C 58 % -4.34 C
1192 22-02-2004 22:10:01 3.1 C 56 % -4.81 C
1193 22-02-2004 22:22:01 3 C 53 % -5.62 C
1194 22-02-2004 22:34:01 2.8 C 51 % -6.31 C
1195 22-02-2004 22:46:01 2.6 C 49 % -7.02 C
1196 22-02-2004 22:58:01 2.2 C 48 % -7.65 C
1197 22-02-2004 23:10:01 2 C 47 % -8.1 C
1198 22-02-2004 23:22:01 1.8 C 48 % -8.02 C
1199 22-02-2004 23:34:01 1.5 C 50 % -7.77 C
1200 22-02-2004 23:46:00 1.3 C 51 % -7.7 C
Sensor: Nr:Datum:Temp:Feuchte:Taupunkt:
Aussen-T/F 1201 22-02-2004 23:58:00 1.1 C 52 % -7.64 C
1202 23-02-2004 00:10:00 0.8 C 54 % -7.43 C
1203 23-02-2004 00:22:59 0.8 C 55 % -7.19 C
1204 23-02-2004 00:34:57 0.6 C 56 % -7.15 C
1205 23-02-2004 00:46:01 0.4 C 56 % -7.33 C
1206 23-02-2004 00:58:01 0.3 C 57 % -7.2 C
1207 23-02-2004 01:10:01 0.2 C 58 % -7.07 C
1208 23-02-2004 01:22:01 0 C 60 % -6.82 C
1209 23-02-2004 01:34:01 -0.3 C 61 % -6.9 C
1210 23-02-2004 01:46:00 -0.4 C 61 % -6.99 C
1211 23-02-2004 01:58:00 -0.3 C 62 % -6.68 C
1212 23-02-2004 02:09:59 -0.3 C 62 % -6.68 C
1213 23-02-2004 02:22:58 -0.6 C 63 % -6.76 C
1214 23-02-2004 02:34:57 -0.9 C 63 % -7.05 C
1215 23-02-2004 02:47:02 -0.9 C 65 % -6.64 C
1216 23-02-2004 02:59:02 -1 C 66 % -6.54 C
1217 23-02-2004 03:11:02 -1.1 C 67 % -6.44 C
1218 23-02-2004 03:23:02 -1.1 C 67 % -6.44 C
1219 23-02-2004 03:35:00 -1.5 C 67 % -6.82 C
1220 23-02-2004 03:47:00 -1.7 C 69 % -6.63 C
1221 23-02-2004 03:59:00 -1.9 C 70 % -6.63 C
1222 23-02-2004 04:11:00 -1.6 C 71 % -6.16 C
1223 23-02-2004 04:23:59 -1.4 C 70 % -6.15 C
1224 23-02-2004 04:35:57 -1.4 C 70 % -6.15 C
1225 23-02-2004 04:47:01 -1.4 C 70 % -6.15 C
Sensor: Nr:Datum:Temp:Feuchte:Taupunkt:
Aussen-T/F 1226 23-02-2004 04:59:01 -1.4 C 69 % -6.34 C
1227 23-02-2004 05:11:01 -1.4 C 70 % -6.15 C
1228 23-02-2004 05:23:01 -1 C 69 % -5.96 C
1229 23-02-2004 05:35:01 -0.9 C 68 % -6.05 C
1230 23-02-2004 05:47:00 -0.9 C 67 % -6.25 C
1231 23-02-2004 05:59:00 -0.9 C 67 % -6.25 C
1232 23-02-2004 06:11:00 -0.8 C 68 % -5.96 C
1233 23-02-2004 06:23:58 -0.7 C 67 % -6.05 C
1234 23-02-2004 06:35:57 -0.7 C 68 % -5.86 C
1235 23-02-2004 06:47:01 -0.7 C 68 % -5.86 C
1236 23-02-2004 06:59:01 -0.6 C 68 % -5.76 C
1237 23-02-2004 07:11:01 -0.6 C 68 % -5.76 C
1238 23-02-2004 07:23:01 -0.6 C 68 % -5.76 C
1239 23-02-2004 07:35:01 -0.5 C 68 % -5.67 C
1240 23-02-2004 07:47:01 -0.4 C 68 % -5.57 C
1241 23-02-2004 07:59:01 -0.4 C 68 % -5.57 C
1242 23-02-2004 08:11:01 -0.3 C 68 % -5.48 C
1243 23-02-2004 08:23:01 -0.3 C 68 % -5.48 C
1244 23-02-2004 08:35:01 -0.3 C 68 % -5.48 C
1245 23-02-2004 08:47:00 -0.4 C 69 % -5.38 C
1246 23-02-2004 08:59:00 -0.1 C 69 % -5.09 C
1247 23-02-2004 09:11:00 0.2 C 68 % -4.99 C
1248 23-02-2004 09:23:59 0.5 C 66 % -5.1 C
1249 23-02-2004 09:35:57 0.7 C 65 % -5.11 C
1250 23-02-2004 09:47:23 0.8 C 65 % -5.01 C
Sensor: Nr:Datum:Temp:Feuchte:Taupunkt:
Aussen-T/F 1251 23-02-2004 09:59:02 1.1 C 63 % -5.14 C
1252 23-02-2004 10:02:24 0.8 C 64 % -5.22 C
1253 23-02-2004 10:05:01 0.8 C 64 % -5.22 C
1254 23-02-2004 10:14:01 1 C 63 % -5.23 C
1255 23-02-2004 10:26:01 1 C 63 % -5.23 C
1256 23-02-2004 10:38:01 1 C 63 % -5.23 C
1257 23-02-2004 10:50:01 1.3 C 63 % -4.95 C
1258 23-02-2004 11:13:59 1.4 C 62 % -5.07 C
1259 23-02-2004 11:14:58 1.5 C 60 % -5.4 C
1260 23-02-2004 11:26:58 1.9 C 57 % -5.7 C
1261 23-02-2004 11:38:57 1.9 C 58 % -5.47 C
1262 23-02-2004 11:50:01 2.5 C 56 % -5.37 C
1263 23-02-2004 12:02:01 2.2 C 56 % -5.65 C
1264 23-02-2004 12:14:01 2.6 C 57 % -5.04 C
1265 23-02-2004 12:26:01 2.8 C 55 % -5.33 C
1266 23-02-2004 12:38:01 3 C 51 % -6.13 C
1267 23-02-2004 12:50:01 3.8 C 48 % -6.18 C
1268 23-02-2004 13:02:01 3.7 C 45 % -7.11 C
1269 23-02-2004 13:14:01 4.1 C 44 % -7.04 C
1270 23-02-2004 13:26:01 4.3 C 43 % -7.15 C
1271 23-02-2004 13:38:01 4.6 C 42 % -7.18 C
1272 23-02-2004 13:50:00 5 C 39 % -7.78 C
1273 23-02-2004 14:02:00 3.6 C 46 % -6.92 C
1274 23-02-2004 14:14:00 1.7 C 60 % -5.21 C
1275 23-02-2004 14:26:59 2.1 C 57 % -5.51 C
Sensor: Nr:Datum:Temp:Feuchte:Taupunkt:
Aussen-T/F 1276 23-02-2004 14:38:57 3 C 52 % -5.87 C
1277 23-02-2004 14:50:01 3.3 C 53 % -5.35 C
1278 23-02-2004 15:02:01 4.2 C 50 % -5.28 C
1279 23-02-2004 15:14:01 4.9 C 47 % -5.45 C
1280 23-02-2004 15:26:01 3.6 C 47 % -6.64 C
1281 23-02-2004 15:38:01 2.9 C 51 % -6.22 C
1282 23-02-2004 15:50:01 2.7 C 49 % -6.92 C
1283 23-02-2004 16:02:59 3.1 C 45 % -7.66 C
1284 23-02-2004 16:13:59 3.6 C 42 % -8.09 C
1285 23-02-2004 16:26:58 3.2 C 38 % -9.72 C
1286 23-02-2004 16:38:57 3.5 C 37 % -9.79 C
1287 23-02-2004 16:50:01 3.8 C 35 % -10.23 C
1288 23-02-2004 17:02:01 3.8 C 35 % -10.23 C
1289 23-02-2004 17:14:01 3.7 C 35 % -10.31 C
1290 23-02-2004 17:26:01 3.2 C 37 % -10.06 C
1291 23-02-2004 17:38:01 2.6 C 40 % -9.61 C
1292 23-02-2004 17:50:01 2.4 C 42 % -9.18 C
1293 23-02-2004 18:02:01 2.3 C 45 % -8.39 C
1294 23-02-2004 18:14:01 2 C 50 % -7.31 C
1295 23-02-2004 18:26:01 1.5 C 54 % -6.78 C
1296 23-02-2004 18:38:01 1 C 56 % -6.77 C
1297 23-02-2004 18:50:00 0.6 C 59 % -6.47 C
1298 23-02-2004 19:02:00 0.2 C 60 % -6.63 C
1299 23-02-2004 19:14:00 0.2 C 59 % -6.85 C
1300 23-02-2004 19:26:59 -0.2 C 60 % -7.02 C
Sensor: Nr:Datum:Temp:Feuchte:Taupunkt:
Aussen-T/F 1301 23-02-2004 19:38:58 -0.5 C 61 % -7.08 C
1302 23-02-2004 19:50:01 -0.5 C 61 % -7.08 C
1303 23-02-2004 20:02:01 -0.8 C 62 % -7.16 C
1304 23-02-2004 20:14:01 -0.9 C 64 % -6.84 C
1305 23-02-2004 20:26:01 -1 C 65 % -6.74 C
1306 23-02-2004 20:38:01 -1.3 C 65 % -7.02 C
1307 23-02-2004 20:50:00 -1.3 C 67 % -6.63 C
1308 23-02-2004 21:02:00 -1.6 C 67 % -6.91 C
1309 23-02-2004 21:14:00 -1.8 C 67 % -7.11 C
1310 23-02-2004 21:26:59 -2 C 67 % -7.3 C
1311 23-02-2004 21:38:57 -2.1 C 68 % -7.2 C
1312 23-02-2004 21:50:01 -2.3 C 68 % -7.39 C
1313 23-02-2004 22:02:01 -2.3 C 69 % -7.2 C
1314 23-02-2004 22:14:01 -2.4 C 69 % -7.3 C
1315 23-02-2004 22:26:01 -2.4 C 69 % -7.3 C
1316 23-02-2004 22:38:01 -2.6 C 70 % -7.31 C
1317 23-02-2004 22:50:00 -2.6 C 70 % -7.31 C
1318 23-02-2004 23:02:59 -2.7 C 71 % -7.22 C
1319 23-02-2004 23:14:58 -3 C 71 % -7.51 C
1320 23-02-2004 23:26:58 -2.9 C 72 % -7.23 C
1321 23-02-2004 23:38:57 -2.9 C 72 % -7.23 C
1322 23-02-2004 23:50:01 -3 C 73 % -7.15 C
1323 24-02-2004 00:02:01 -3.2 C 73 % -7.34 C
1324 24-02-2004 00:14:01 -3.2 C 73 % -7.34 C
1325 24-02-2004 00:26:01 -3.4 C 72 % -7.71 C
Sensor: Nr:Datum:Temp:Feuchte:Taupunkt:
Aussen-T/F 1326 24-02-2004 00:38:01 -3.2 C 72 % -7.52 C
1327 24-02-2004 00:50:01 -3.4 C 73 % -7.53 C
1328 24-02-2004 01:02:01 -3.5 C 73 % -7.63 C
1329 24-02-2004 01:14:01 -3.7 C 74 % -7.65 C
1330 24-02-2004 01:26:01 -3.7 C 74 % -7.65 C
1331 24-02-2004 01:38:01 -3.8 C 74 % -7.75 C
1332 24-02-2004 01:50:00 -4 C 74 % -7.94 C
1333 24-02-2004 02:02:00 -4 C 74 % -7.94 C
1334 24-02-2004 02:14:00 -4 C 74 % -7.94 C
1335 24-02-2004 02:26:58 -4.2 C 74 % -8.13 C
1336 24-02-2004 02:38:57 -4.3 C 74 % -8.23 C
1337 24-02-2004 02:51:03 -4.5 C 74 % -8.42 C
1338 24-02-2004 03:03:03 -4.6 C 74 % -8.52 C
1339 24-02-2004 03:15:02 -4.6 C 74 % -8.52 C
1340 24-02-2004 03:27:02 -4.8 C 74 % -8.71 C
1341 24-02-2004 03:39:00 -4.8 C 74 % -8.71 C
1342 24-02-2004 03:51:00 -5.1 C 73 % -9.18 C
1343 24-02-2004 04:03:00 -4.9 C 73 % -8.98 C
1344 24-02-2004 04:15:59 -5 C 73 % -9.08 C
1345 24-02-2004 04:27:59 -5.3 C 73 % -9.37 C
1346 24-02-2004 04:39:58 -5.2 C 73 % -9.27 C
1347 24-02-2004 04:51:01 -5.3 C 73 % -9.37 C
1348 24-02-2004 05:03:01 -5.6 C 73 % -9.66 C
1349 24-02-2004 05:15:01 -5.7 C 73 % -9.75 C
1350 24-02-2004 05:27:01 -5.6 C 73 % -9.66 C
Sensor: Nr:Datum:Temp:Feuchte:Taupunkt:
Aussen-T/F 1351 24-02-2004 05:39:01 -5.6 C 73 % -9.66 C
1352 24-02-2004 05:51:00 -5.8 C 73 % -9.85 C
1353 24-02-2004 06:03:00 -5.8 C 73 % -9.85 C
1354 24-02-2004 06:15:59 -6 C 73 % -10.04 C
1355 24-02-2004 06:27:59 -6.1 C 73 % -10.14 C
1356 24-02-2004 06:39:57 -6.1 C 73 % -10.14 C
1357 24-02-2004 06:51:01 -6.1 C 73 % -10.14 C
1358 24-02-2004 07:03:01 -6.2 C 72 % -10.41 C
1359 24-02-2004 07:15:01 -6.2 C 73 % -10.24 C
1360 24-02-2004 07:27:01 -6.1 C 72 % -10.32 C
1361 24-02-2004 07:39:01 -6 C 72 % -10.22 C
1362 24-02-2004 07:51:00 -5.7 C 71 % -10.11 C
1363 24-02-2004 08:03:59 -5.5 C 70 % -10.09 C
1364 24-02-2004 08:15:58 -5.3 C 69 % -10.08 C
1365 24-02-2004 08:27:58 -4.8 C 69 % -9.6 C
1366 24-02-2004 08:39:57 -4.4 C 67 % -9.59 C
1367 24-02-2004 08:51:01 -4.4 C 67 % -9.59 C
1368 24-02-2004 09:03:01 -4.1 C 67 % -9.31 C
1369 24-02-2004 09:15:01 -3.9 C 67 % -9.11 C
1370 24-02-2004 09:27:01 -3.5 C 67 % -8.73 C
1371 24-02-2004 09:39:01 -3.1 C 66 % -8.54 C
1372 24-02-2004 09:51:01 -2.6 C 65 % -8.26 C
1373 24-02-2004 10:03:01 -2.3 C 64 % -8.17 C
1374 24-02-2004 10:15:01 -1.9 C 64 % -7.79 C
1375 24-02-2004 10:27:01 -1.4 C 62 % -7.73 C
Sensor: Nr:Datum:Temp:Feuchte:Taupunkt:
Aussen-T/F 1376 24-02-2004 10:39:01 -1.1 C 61 % -7.65 C
1377 24-02-2004 10:51:01 -0.6 C 60 % -7.39 C
1378 24-02-2004 11:03:01 -0.1 C 59 % -7.14 C
1379 24-02-2004 11:15:01 0 C 56 % -7.71 C
1380 24-02-2004 11:27:01 0.2 C 56 % -7.52 C
1381 24-02-2004 11:39:01 0.5 C 55 % -7.47 C
1382 24-02-2004 11:51:01 0.8 C 52 % -7.92 C
1383 24-02-2004 12:03:01 1.3 C 51 % -7.7 C
1384 24-02-2004 12:15:01 1.9 C 50 % -7.4 C
1385 24-02-2004 12:27:01 2.3 C 46 % -8.11 C
1386 24-02-2004 12:39:01 2.3 C 45 % -8.39 C
1387 24-02-2004 12:51:01 2.5 C 44 % -8.49 C
1388 24-02-2004 13:03:02 2.6 C 42 % -8.99 C
1389 24-02-2004 13:15:01 3.1 C 40 % -9.16 C
1390 24-02-2004 13:27:01 3.1 C 40 % -9.16 C
1391 24-02-2004 13:39:01 3.4 C 40 % -8.89 C
1392 24-02-2004 13:51:01 3.8 C 40 % -8.53 C
1393 24-02-2004 14:03:01 3.3 C 41 % -8.67 C
1394 24-02-2004 14:15:01 3.4 C 43 % -7.97 C
1395 24-02-2004 14:27:01 3.5 C 44 % -7.58 C
1396 24-02-2004 14:39:01 3.5 C 46 % -7.01 C
1397 24-02-2004 14:51:00 3.3 C 46 % -7.19 C
1398 24-02-2004 15:03:00 3.3 C 46 % -7.19 C
1399 24-02-2004 15:15:59 3.2 C 47 % -7 C
1400 24-02-2004 15:27:59 3.2 C 47 % -7 C
Sensor: Nr:Datum:Temp:Feuchte:Taupunkt:
Aussen-T/F 1401 24-02-2004 15:39:58 3.3 C 47 % -6.91 C
1402 24-02-2004 15:51:01 3.3 C 47 % -6.91 C
1403 24-02-2004 16:03:01 3.2 C 47 % -7 C
1404 24-02-2004 16:15:01 3.2 C 48 % -6.73 C
1405 24-02-2004 16:27:01 3 C 48 % -6.92 C
1406 24-02-2004 16:39:01 2.7 C 50 % -6.66 C
1407 24-02-2004 16:51:01 2.7 C 51 % -6.41 C
1408 24-02-2004 17:03:01 2.7 C 52 % -6.15 C
1409 24-02-2004 17:15:01 2.7 C 53 % -5.9 C
1410 24-02-2004 17:27:01 2.5 C 54 % -5.85 C
1411 24-02-2004 17:39:01 2.1 C 56 % -5.74 C
1412 24-02-2004 17:51:00 1.8 C 59 % -5.34 C
1413 24-02-2004 18:03:00 1.7 C 60 % -5.21 C
1414 24-02-2004 18:15:59 1.7 C 60 % -5.21 C
1415 24-02-2004 18:27:59 1.6 C 60 % -5.31 C
1416 24-02-2004 18:39:58 1.6 C 60 % -5.31 C
1417 24-02-2004 18:51:01 1.5 C 60 % -5.4 C
1418 24-02-2004 19:03:01 1.6 C 60 % -5.31 C
1419 24-02-2004 19:15:01 1.6 C 59 % -5.53 C
1420 24-02-2004 19:27:01 1.6 C 59 % -5.53 C
1421 24-02-2004 19:39:02 1.5 C 59 % -5.62 C
1422 24-02-2004 19:51:00 1.5 C 58 % -5.85 C
1423 24-02-2004 20:03:00 1.4 C 58 % -5.94 C
1424 24-02-2004 20:15:59 1.4 C 58 % -5.94 C
1425 24-02-2004 20:27:59 1.4 C 58 % -5.94 C
Sensor: Nr:Datum:Temp:Feuchte:Taupunkt:
Aussen-T/F 1426 24-02-2004 20:39:57 1.2 C 58 % -6.13 C
1427 24-02-2004 20:51:01 1.2 C 59 % -5.91 C
1428 24-02-2004 21:03:01 1.2 C 59 % -5.91 C
1429 24-02-2004 21:15:01 1.2 C 58 % -6.13 C
1430 24-02-2004 21:27:01 1.3 C 58 % -6.03 C
1431 24-02-2004 21:39:01 1.2 C 59 % -5.91 C
1432 24-02-2004 21:51:01 1.1 C 60 % -5.78 C
1433 24-02-2004 22:03:00 1.2 C 60 % -5.69 C
1434 24-02-2004 22:15:58 1.3 C 60 % -5.59 C
1435 24-02-2004 22:27:58 1.3 C 60 % -5.59 C
1436 24-02-2004 22:39:57 1.3 C 61 % -5.37 C
1437 24-02-2004 22:51:01 1.3 C 61 % -5.37 C
1438 24-02-2004 23:03:01 1.4 C 61 % -5.28 C
1439 24-02-2004 23:15:01 1.3 C 63 % -4.95 C
1440 24-02-2004 23:27:01 1.3 C 65 % -4.54 C
1441 24-02-2004 23:39:01 1.3 C 66 % -4.34 C
1442 24-02-2004 23:51:01 1.2 C 67 % -4.23 C
1443 25-02-2004 00:03:01 1.2 C 67 % -4.23 C
1444 25-02-2004 00:15:01 1.5 C 65 % -4.35 C
1445 25-02-2004 00:27:01 1.5 C 64 % -4.55 C
1446 25-02-2004 00:39:02 1.6 C 63 % -4.67 C
1447 25-02-2004 00:51:00 1.6 C 63 % -4.67 C
1448 25-02-2004 01:03:00 1.6 C 63 % -4.67 C
1449 25-02-2004 01:15:59 1.6 C 63 % -4.67 C
1450 25-02-2004 01:27:59 1.6 C 63 % -4.67 C
Sensor: Nr:Datum:Temp:Feuchte:Taupunkt:
Aussen-T/F 1451 25-02-2004 01:39:58 1.5 C 64 % -4.55 C
1452 25-02-2004 01:51:01 1.5 C 65 % -4.35 C
1453 25-02-2004 02:03:01 1.5 C 65 % -4.35 C
1454 25-02-2004 02:15:01 1.4 C 65 % -4.44 C
1455 25-02-2004 02:27:01 1.2 C 68 % -4.04 C
1456 25-02-2004 02:39:00 1.2 C 68 % -4.04 C
1457 25-02-2004 02:52:03 1.2 C 68 % -4.04 C
1458 25-02-2004 03:04:03 1.3 C 67 % -4.14 C
1459 25-02-2004 03:16:02 1.3 C 67 % -4.14 C
1460 25-02-2004 03:28:02 1.3 C 66 % -4.34 C
1461 25-02-2004 03:40:00 1.3 C 67 % -4.14 C
1462 25-02-2004 03:52:00 1.2 C 69 % -3.84 C
1463 25-02-2004 04:04:00 1 C 72 % -3.47 C
1464 25-02-2004 04:16:59 0.7 C 75 % -3.21 C
1465 25-02-2004 04:28:59 0.7 C 76 % -3.03 C
1466 25-02-2004 04:40:58 0.7 C 76 % -3.03 C
1467 25-02-2004 04:52:00 0.7 C 75 % -3.21 C
1468 25-02-2004 05:04:00 0.6 C 77 % -2.96 C
1469 25-02-2004 05:16:00 0.6 C 77 % -2.96 C
1470 25-02-2004 05:28:00 0.5 C 78 % -2.88 C
1471 25-02-2004 05:40:00 0.5 C 79 % -2.71 C
1472 25-02-2004 05:52:01 0.4 C 79 % -2.81 C
1473 25-02-2004 06:04:01 0.5 C 79 % -2.71 C
1474 25-02-2004 06:16:01 0.5 C 79 % -2.71 C
1475 25-02-2004 06:28:01 0.5 C 79 % -2.71 C
Sensor: Nr:Datum:Temp:Feuchte:Taupunkt:
Aussen-T/F 1476 25-02-2004 06:40:01 0.6 C 79 % -2.61 C
1477 25-02-2004 06:52:00 0.5 C 80 % -2.54 C
1478 25-02-2004 07:04:00 0.4 C 81 % -2.47 C
1479 25-02-2004 07:16:58 0.4 C 82 % -2.3 C
1480 25-02-2004 07:28:58 0.4 C 82 % -2.3 C
1481 25-02-2004 07:40:57 0.4 C 82 % -2.3 C
1482 25-02-2004 07:52:01 0.5 C 82 % -2.21 C
1483 25-02-2004 08:04:01 0.5 C 82 % -2.21 C
1484 25-02-2004 08:16:01 0.4 C 83 % -2.14 C
1485 25-02-2004 08:28:01 0.4 C 83 % -2.14 C
1486 25-02-2004 08:40:01 0.4 C 84 % -1.98 C
1487 25-02-2004 08:52:00 0.4 C 84 % -1.98 C
1488 25-02-2004 09:04:59 0.4 C 84 % -1.98 C
1489 25-02-2004 09:16:58 0.5 C 84 % -1.88 C
1490 25-02-2004 09:28:58 0.6 C 84 % -1.78 C
1491 25-02-2004 09:40:57 0.8 C 82 % -1.91 C
1492 25-02-2004 09:52:01 1 C 81 % -1.88 C
1493 25-02-2004 10:04:01 1.2 C 80 % -1.86 C
1494 25-02-2004 10:16:01 1.5 C 80 % -1.57 C
1495 25-02-2004 10:28:01 1.6 C 80 % -1.47 C
1496 25-02-2004 10:40:00 1.9 C 79 % -1.35 C
1497 25-02-2004 10:52:01 2.2 C 77 % -1.4 C
1498 25-02-2004 11:04:01 2.2 C 75 % -1.76 C
1499 25-02-2004 11:16:01 2.6 C 74 % -1.56 C
1500 25-02-2004 11:28:01 3 C 71 % -1.73 C
Sensor: Nr:Datum:Temp:Feuchte:Taupunkt:
Aussen-T/F 1501 25-02-2004 11:40:01 3.7 C 68 % -1.64 C
1502 25-02-2004 11:52:00 3.6 C 65 % -2.35 C
1503 25-02-2004 12:04:00 3.4 C 66 % -2.33 C
1504 25-02-2004 12:16:59 3.7 C 64 % -2.46 C
1505 25-02-2004 12:28:59 3.8 C 64 % -2.37 C
1506 25-02-2004 12:40:58 3.8 C 63 % -2.58 C
1507 25-02-2004 12:52:01 3.8 C 63 % -2.58 C
1508 25-02-2004 13:04:00 3.8 C 61 % -3.01 C
1509 25-02-2004 13:16:00 3.6 C 62 % -2.98 C
1510 25-02-2004 13:28:00 3.7 C 64 % -2.46 C
1511 25-02-2004 13:40:00 4.4 C 61 % -2.45 C
1512 25-02-2004 13:52:01 5 C 56 % -3.03 C
1513 25-02-2004 14:04:01 5 C 54 % -3.52 C
1514 25-02-2004 14:16:01 4.6 C 54 % -3.89 C
1515 25-02-2004 14:28:01 4.4 C 55 % -3.83 C
1516 25-02-2004 14:40:01 4.3 C 54 % -4.17 C
1517 25-02-2004 14:52:01 4.1 C 55 % -4.11 C
1518 25-02-2004 15:04:01 4.2 C 55 % -4.02 C
1519 25-02-2004 15:16:01 4 C 55 % -4.21 C
1520 25-02-2004 15:28:01 3.7 C 57 % -4.01 C
1521 25-02-2004 15:40:01 3.4 C 60 % -3.61 C
1522 25-02-2004 15:52:00 3.1 C 63 % -3.24 C
1523 25-02-2004 16:04:00 3.3 C 67 % -2.23 C
1524 25-02-2004 16:16:58 1.1 C 72 % -3.37 C
1525 25-02-2004 16:28:58 0.8 C 78 % -2.59 C
Sensor: Nr:Datum:Temp:Feuchte:Taupunkt:
Aussen-T/F 1526 25-02-2004 16:40:57 0.7 C 79 % -2.51 C
1527 25-02-2004 16:52:01 0.7 C 79 % -2.51 C
1528 25-02-2004 17:04:01 0.6 C 80 % -2.44 C
1529 25-02-2004 17:16:01 0.7 C 80 % -2.34 C
1530 25-02-2004 17:28:01 0.7 C 80 % -2.34 C
1531 25-02-2004 17:40:01 0.7 C 80 % -2.34 C
1532 25-02-2004 17:52:00 0.6 C 80 % -2.44 C
1533 25-02-2004 18:04:00 0.6 C 80 % -2.44 C
1534 25-02-2004 18:16:59 0.7 C 80 % -2.34 C
1535 25-02-2004 18:28:59 0.7 C 81 % -2.18 C
1536 25-02-2004 18:40:58 0.5 C 80 % -2.54 C
1537 25-02-2004 18:52:01 0.3 C 81 % -2.57 C
1538 25-02-2004 19:04:02 0.3 C 81 % -2.57 C
1539 25-02-2004 19:16:01 0.1 C 81 % -2.76 C
1540 25-02-2004 19:28:01 0.1 C 82 % -2.6 C
1541 25-02-2004 19:40:01 0.1 C 81 % -2.76 C
1542 25-02-2004 19:52:00 0.1 C 81 % -2.76 C
1543 25-02-2004 20:04:00 0.1 C 81 % -2.76 C
1544 25-02-2004 20:16:58 0 C 81 % -2.86 C
1545 25-02-2004 20:28:58 0 C 81 % -2.86 C
1546 25-02-2004 20:40:57 0 C 81 % -2.86 C
1547 25-02-2004 20:52:01 0 C 81 % -2.86 C
1548 25-02-2004 21:04:01 0.1 C 81 % -2.76 C
1549 25-02-2004 21:16:01 0 C 81 % -2.86 C
1550 25-02-2004 21:28:01 -0.1 C 81 % -2.96 C
Sensor: Nr:Datum:Temp:Feuchte:Taupunkt:
Aussen-T/F 1551 25-02-2004 21:40:01 -0.1 C 81 % -2.96 C
1552 25-02-2004 21:52:00 0 C 80 % -3.03 C
1553 25-02-2004 22:04:59 0 C 80 % -3.03 C
1554 25-02-2004 22:16:58 0 C 80 % -3.03 C
1555 25-02-2004 22:28:58 0.1 C 80 % -2.93 C
1556 25-02-2004 22:40:57 0 C 79 % -3.2 C
1557 25-02-2004 22:52:01 0.1 C 79 % -3.1 C
1558 25-02-2004 23:04:01 0 C 78 % -3.37 C
1559 25-02-2004 23:16:01 0 C 78 % -3.37 C
1560 25-02-2004 23:28:01 0 C 80 % -3.03 C
1561 25-02-2004 23:40:01 0 C 80 % -3.03 C
1562 25-02-2004 23:52:01 0 C 81 % -2.86 C
1563 26-02-2004 00:04:01 -0.1 C 79 % -3.3 C
1564 26-02-2004 00:16:01 -0.1 C 79 % -3.3 C
1565 26-02-2004 00:28:01 -0.1 C 80 % -3.13 C
1566 26-02-2004 00:40:01 -0.1 C 80 % -3.13 C
1567 26-02-2004 00:52:01 -0.1 C 80 % -3.13 C
1568 26-02-2004 01:04:00 -0.1 C 80 % -3.13 C
1569 26-02-2004 01:16:58 -0.1 C 79 % -3.3 C
1570 26-02-2004 01:28:58 -0.1 C 79 % -3.3 C
1571 26-02-2004 01:40:57 -0.2 C 79 % -3.39 C
1572 26-02-2004 01:52:01 -0.2 C 79 % -3.39 C
1573 26-02-2004 02:04:01 -0.3 C 78 % -3.66 C
1574 26-02-2004 02:16:01 -0.3 C 77 % -3.83 C
1575 26-02-2004 02:28:01 -0.4 C 77 % -3.93 C
Sensor: Nr:Datum:Temp:Feuchte:Taupunkt:
Aussen-T/F 1576 26-02-2004 02:40:01 -0.6 C 76 % -4.3 C
1577 26-02-2004 02:53:02 -0.7 C 76 % -4.4 C
1578 26-02-2004 03:05:02 -1.1 C 76 % -4.78 C
1579 26-02-2004 03:17:02 -1.3 C 76 % -4.98 C
1580 26-02-2004 03:29:02 -1.4 C 76 % -5.07 C
1581 26-02-2004 03:41:00 -1.5 C 77 % -5 C
1582 26-02-2004 03:53:00 -1.6 C 77 % -5.1 C
1583 26-02-2004 04:05:00 -1.9 C 76 % -5.56 C
1584 26-02-2004 04:17:59 -2.1 C 76 % -5.75 C
1585 26-02-2004 04:29:59 -2.1 C 77 % -5.58 C
1586 26-02-2004 04:41:57 -1.8 C 77 % -5.29 C
1587 26-02-2004 04:53:01 -1.7 C 77 % -5.19 C
1588 26-02-2004 05:05:01 -1.6 C 76 % -5.27 C
1589 26-02-2004 05:17:01 -1.6 C 76 % -5.27 C
1590 26-02-2004 05:29:01 -1.6 C 76 % -5.27 C
1591 26-02-2004 05:41:01 -1.5 C 76 % -5.17 C
1592 26-02-2004 05:53:00 -1.6 C 76 % -5.27 C
1593 26-02-2004 06:04:59 -1.6 C 76 % -5.27 C
1594 26-02-2004 06:17:58 -1.7 C 76 % -5.36 C
1595 26-02-2004 06:29:58 -1.7 C 76 % -5.36 C
1596 26-02-2004 06:41:57 -1.7 C 76 % -5.36 C
1597 26-02-2004 06:53:01 -1.9 C 75 % -5.73 C
1598 26-02-2004 07:05:01 -2.1 C 75 % -5.93 C
1599 26-02-2004 07:17:01 -2.5 C 74 % -6.49 C
1600 26-02-2004 07:29:01 -2.6 C 74 % -6.58 C
Sensor: Nr:Datum:Temp:Feuchte:Taupunkt:
Aussen-T/F 1601 26-02-2004 07:41:01 -2.6 C 75 % -6.41 C
1602 26-02-2004 07:53:01 -2.3 C 75 % -6.12 C
1603 26-02-2004 08:05:01 -2 C 74 % -6 C
1604 26-02-2004 08:17:01 -1.8 C 71 % -6.35 C
1605 26-02-2004 08:29:01 -1.9 C 70 % -6.63 C
1606 26-02-2004 08:41:01 -2.1 C 70 % -6.83 C
1607 26-02-2004 08:53:00 -2.2 C 70 % -6.92 C
1608 26-02-2004 09:05:00 -2.4 C 71 % -6.93 C
1609 26-02-2004 09:17:58 -2.2 C 69 % -7.11 C
1610 26-02-2004 09:29:58 -2 C 68 % -7.11 C
1611 26-02-2004 09:41:57 -1.9 C 68 % -7.01 C
1612 26-02-2004 09:53:01 -1.7 C 68 % -6.82 C
1613 26-02-2004 10:05:01 -1.4 C 68 % -6.53 C
1614 26-02-2004 10:17:01 -1.1 C 67 % -6.44 C
1615 26-02-2004 10:29:01 -1.1 C 66 % -6.63 C
1616 26-02-2004 10:41:01 -0.9 C 64 % -6.84 C
1617 26-02-2004 10:53:00 -0.6 C 60 % -7.39 C
1618 26-02-2004 11:05:59 -0.4 C 60 % -7.2 C
1619 26-02-2004 11:17:58 -0.3 C 60 % -7.11 C
1620 26-02-2004 11:29:58 -0.1 C 57 % -7.58 C
1621 26-02-2004 11:41:57 0.1 C 56 % -7.61 C
1622 26-02-2004 11:53:01 0.1 C 53 % -8.32 C
1623 26-02-2004 12:05:01 0.4 C 52 % -8.29 C
1624 26-02-2004 12:17:01 0.4 C 52 % -8.29 C
1625 26-02-2004 12:29:01 0.5 C 51 % -8.44 C
Sensor: Nr:Datum:Temp:Feuchte:Taupunkt:
Aussen-T/F 1626 26-02-2004 12:41:00 1.1 C 50 % -8.14 C
1627 26-02-2004 12:53:01 1.5 C 47 % -8.56 C
1628 26-02-2004 13:05:01 1.7 C 45 % -8.93 C
1629 26-02-2004 13:17:01 2 C 45 % -8.66 C
1630 26-02-2004 13:29:01 2.2 C 45 % -8.48 C
1631 26-02-2004 13:41:01 2.6 C 42 % -8.99 C
1632 26-02-2004 13:53:00 2.7 C 44 % -8.31 C
1633 26-02-2004 14:05:00 3.2 C 41 % -8.76 C
1634 26-02-2004 14:17:58 3.3 C 42 % -8.36 C
1635 26-02-2004 14:29:58 3.1 C 41 % -8.85 C
1636 26-02-2004 14:41:57 3.3 C 41 % -8.67 C
1637 26-02-2004 14:53:01 3.4 C 41 % -8.58 C
1638 26-02-2004 15:05:01 3.4 C 40 % -8.89 C
1639 26-02-2004 15:17:01 2.6 C 41 % -9.3 C
1640 26-02-2004 15:29:01 2.4 C 43 % -8.88 C
1641 26-02-2004 15:41:01 2.6 C 44 % -8.4 C
1642 26-02-2004 15:53:01 2.6 C 45 % -8.11 C
1643 26-02-2004 16:05:01 2.7 C 45 % -8.02 C
1644 26-02-2004 16:17:01 2.1 C 46 % -8.29 C
1645 26-02-2004 16:29:01 1.7 C 51 % -7.33 C
1646 26-02-2004 16:41:01 1.5 C 52 % -7.27 C
1647 26-02-2004 16:53:00 1.3 C 54 % -6.96 C
1648 26-02-2004 17:05:00 1.1 C 60 % -5.78 C
1649 26-02-2004 17:17:59 1.2 C 60 % -5.69 C
1650 26-02-2004 17:29:59 1.2 C 61 % -5.47 C
Sensor: Nr:Datum:Temp:Feuchte:Taupunkt:
Aussen-T/F 1651 26-02-2004 17:41:57 1.1 C 62 % -5.35 C
1652 26-02-2004 17:53:01 1.1 C 63 % -5.14 C
1653 26-02-2004 18:05:01 1.2 C 62 % -5.26 C
1654 26-02-2004 18:17:01 0.7 C 67 % -4.71 C
1655 26-02-2004 18:29:01 0.5 C 70 % -4.32 C
1656 26-02-2004 18:41:01 0.5 C 68 % -4.71 C
1657 26-02-2004 18:53:00 0.5 C 66 % -5.1 C
1658 26-02-2004 19:04:59 0.6 C 63 % -5.61 C
1659 26-02-2004 19:17:58 0.6 C 61 % -6.04 C
1660 26-02-2004 19:29:58 0.7 C 60 % -6.16 C
1661 26-02-2004 19:41:57 0.8 C 59 % -6.28 C
1662 26-02-2004 19:53:01 0.8 C 58 % -6.5 C
1663 26-02-2004 20:05:01 0.6 C 59 % -6.47 C
1664 26-02-2004 20:17:01 0.5 C 60 % -6.35 C
1665 26-02-2004 20:29:01 0.4 C 60 % -6.44 C
1666 26-02-2004 20:41:01 0.2 C 61 % -6.41 C
1667 26-02-2004 20:53:01 0 C 61 % -6.6 C
1668 26-02-2004 21:05:01 -0.2 C 61 % -6.8 C
1669 26-02-2004 21:17:01 -0.3 C 62 % -6.68 C
1670 26-02-2004 21:29:01 -0.4 C 63 % -6.57 C
1671 26-02-2004 21:41:01 -0.7 C 64 % -6.65 C
1672 26-02-2004 21:53:00 -1 C 66 % -6.54 C
1673 26-02-2004 22:05:00 -1.1 C 67 % -6.44 C
1674 26-02-2004 22:17:58 -1.2 C 66 % -6.73 C
1675 26-02-2004 22:29:58 -1.4 C 66 % -6.92 C
Sensor: Nr:Datum:Temp:Feuchte:Taupunkt:
Aussen-T/F 1676 26-02-2004 22:41:57 -1.7 C 66 % -7.2 C
1677 26-02-2004 22:53:01 -1.7 C 67 % -7.01 C
1678 26-02-2004 23:05:01 -1.9 C 68 % -7.01 C
1679 26-02-2004 23:17:01 -1.9 C 68 % -7.01 C
1680 26-02-2004 23:29:01 -2 C 68 % -7.11 C
1681 26-02-2004 23:41:01 -2.1 C 67 % -7.39 C
1682 26-02-2004 23:53:00 -2.2 C 68 % -7.3 C
1683 27-02-2004 00:05:59 -2.1 C 67 % -7.39 C
1684 27-02-2004 00:17:58 -2.2 C 66 % -7.68 C
1685 27-02-2004 00:29:58 -2.3 C 66 % -7.78 C
1686 27-02-2004 00:41:57 -2.2 C 65 % -7.88 C
1687 27-02-2004 00:53:01 -2.3 C 65 % -7.97 C
1688 27-02-2004 01:05:01 -2.3 C 66 % -7.78 C
1689 27-02-2004 01:17:01 -2.6 C 66 % -8.06 C
1690 27-02-2004 01:29:01 -2.7 C 66 % -8.16 C
1691 27-02-2004 01:41:00 -2.6 C 65 % -8.26 C
1692 27-02-2004 01:53:01 -2.8 C 65 % -8.45 C
1693 27-02-2004 02:05:01 -3.1 C 66 % -8.54 C
1694 27-02-2004 02:17:01 -3.4 C 67 % -8.64 C
1695 27-02-2004 02:29:01 -3.5 C 68 % -8.54 C
1696 27-02-2004 02:41:01 -3.7 C 69 % -8.55 C
1697 27-02-2004 02:54:01 -3.9 C 69 % -8.74 C
1698 27-02-2004 03:06:01 -3.7 C 70 % -8.36 C
1699 27-02-2004 03:18:00 -3.5 C 70 % -8.17 C
1700 27-02-2004 03:30:00 -3.8 C 69 % -8.64 C
Sensor: Nr:Datum:Temp:Feuchte:Taupunkt:
Aussen-T/F 1701 27-02-2004 03:42:01 -3.9 C 69 % -8.74 C
1702 27-02-2004 03:54:01 -4.1 C 70 % -8.75 C
1703 27-02-2004 04:06:00 -4 C 68 % -9.02 C
1704 27-02-2004 04:18:00 -4.1 C 68 % -9.12 C
1705 27-02-2004 04:30:00 -4.1 C 69 % -8.93 C
1706 27-02-2004 04:42:00 -4.3 C 69 % -9.12 C
1707 27-02-2004 04:54:01 -4.5 C 69 % -9.31 C
1708 27-02-2004 05:06:01 -4.8 C 70 % -9.42 C
1709 27-02-2004 05:18:01 -5 C 70 % -9.61 C
1710 27-02-2004 05:30:01 -5.1 C 71 % -9.53 C
1711 27-02-2004 05:42:01 -5.2 C 72 % -9.45 C
1712 27-02-2004 05:54:01 -5.3 C 72 % -9.54 C
1713 27-02-2004 06:06:01 -5.6 C 72 % -9.83 C
1714 27-02-2004 06:18:01 -5.7 C 72 % -9.93 C
1715 27-02-2004 06:30:01 -5.5 C 72 % -9.74 C
1716 27-02-2004 06:42:01 -5.3 C 72 % -9.54 C
1717 27-02-2004 06:54:00 -5.5 C 71 % -9.91 C
1718 27-02-2004 07:06:00 -5.8 C 71 % -10.2 C
1719 27-02-2004 07:18:59 -5.8 C 71 % -10.2 C
1720 27-02-2004 07:30:57 -5.8 C 71 % -10.2 C
1721 27-02-2004 07:42:57 -5.8 C 72 % -10.03 C
1722 27-02-2004 07:54:01 -5.8 C 72 % -10.03 C
1723 27-02-2004 08:06:01 -5.8 C 72 % -10.03 C
1724 27-02-2004 08:18:01 -5.7 C 73 % -9.75 C
1725 27-02-2004 08:30:01 -5.5 C 73 % -9.56 C
Sensor: Nr:Datum:Temp:Feuchte:Taupunkt:
Aussen-T/F 1726 27-02-2004 08:42:01 -5.3 C 72 % -9.54 C
1727 27-02-2004 08:54:00 -5.1 C 71 % -9.53 C
1728 27-02-2004 09:06:59 -5 C 70 % -9.61 C
1729 27-02-2004 09:18:58 -4.5 C 68 % -9.5 C
1730 27-02-2004 09:30:57 -4 C 67 % -9.21 C
1731 27-02-2004 09:42:57 -3.7 C 66 % -9.11 C
1732 27-02-2004 09:54:01 -3.4 C 65 % -9.02 C
1733 27-02-2004 10:06:01 -3 C 64 % -8.84 C
1734 27-02-2004 10:18:01 -2.5 C 64 % -8.36 C
1735 27-02-2004 10:30:01 -2.1 C 63 % -8.19 C
1736 27-02-2004 10:42:00 -1.6 C 61 % -8.13 C
1737 27-02-2004 10:54:01 -1.2 C 59 % -8.18 C
1738 27-02-2004 11:06:01 -0.8 C 57 % -8.24 C
1739 27-02-2004 11:18:01 -0.6 C 56 % -8.28 C
1740 27-02-2004 11:30:01 -0.4 C 56 % -8.09 C
1741 27-02-2004 11:42:01 0 C 57 % -7.48 C
1742 27-02-2004 11:54:00 0.1 C 55 % -7.85 C
1743 27-02-2004 12:06:00 0.4 C 50 % -8.79 C
1744 27-02-2004 12:18:58 0.5 C 48 % -9.21 C
1745 27-02-2004 12:30:57 0.4 C 47 % -9.57 C
1746 27-02-2004 12:42:57 1.2 C 45 % -9.39 C
1747 27-02-2004 12:54:01 1.8 C 43 % -9.42 C
1748 27-02-2004 13:06:01 2.2 C 39 % -10.29 C
1749 27-02-2004 13:18:01 2.3 C 41 % -9.57 C
1750 27-02-2004 13:30:01 2.1 C 41 % -9.75 C
Sensor: Nr:Datum:Temp:Feuchte:Taupunkt:
Aussen-T/F 1751 27-02-2004 13:42:01 2.7 C 42 % -8.9 C
1752 27-02-2004 13:54:01 3 C 37 % -10.24 C
1753 27-02-2004 14:06:01 3.1 C 37 % -10.15 C
1754 27-02-2004 14:18:01 2.6 C 40 % -9.61 C
1755 27-02-2004 14:30:01 2.5 C 39 % -10.02 C
1756 27-02-2004 14:42:01 2.4 C 39 % -10.11 C
1757 27-02-2004 14:54:00 2.6 C 40 % -9.61 C
1758 27-02-2004 15:06:00 3.1 C 38 % -9.81 C
1759 27-02-2004 15:18:59 2.7 C 38 % -10.17 C
1760 27-02-2004 15:30:57 2.3 C 39 % -10.2 C
1761 27-02-2004 15:42:57 2 C 41 % -9.84 C
1762 27-02-2004 15:54:01 1.6 C 46 % -8.75 C
1763 27-02-2004 16:06:01 1.4 C 50 % -7.86 C
1764 27-02-2004 16:18:01 1 C 56 % -6.77 C
1765 27-02-2004 16:30:01 1.1 C 56 % -6.68 C
1766 27-02-2004 16:42:01 1 C 58 % -6.32 C
1767 27-02-2004 16:54:00 0.5 C 59 % -6.56 C
1768 27-02-2004 17:06:00 0.6 C 60 % -6.25 C
1769 27-02-2004 17:18:59 0.7 C 60 % -6.16 C
1770 27-02-2004 17:30:58 0.7 C 58 % -6.6 C
1771 27-02-2004 17:42:58 0.8 C 58 % -6.5 C
1772 27-02-2004 17:54:01 0.9 C 58 % -6.41 C
1773 27-02-2004 18:06:01 0.7 C 57 % -6.82 C
1774 27-02-2004 18:18:01 0.6 C 57 % -6.92 C
1775 27-02-2004 18:30:01 0.5 C 57 % -7.01 C
Sensor: Nr:Datum:Temp:Feuchte:Taupunkt:
Aussen-T/F 1776 27-02-2004 18:42:01 0.4 C 59 % -6.66 C
1777 27-02-2004 18:54:00 0.1 C 60 % -6.72 C
1778 27-02-2004 19:06:00 -0.3 C 60 % -7.11 C
1779 27-02-2004 19:18:59 -0.6 C 62 % -6.97 C
1780 27-02-2004 19:30:57 -0.9 C 63 % -7.05 C
1781 27-02-2004 19:42:57 -0.9 C 62 % -7.25 C
1782 27-02-2004 19:54:01 -1.1 C 61 % -7.65 C
1783 27-02-2004 20:06:01 -1.1 C 61 % -7.65 C
1784 27-02-2004 20:18:01 -1.1 C 60 % -7.87 C
1785 27-02-2004 20:30:01 -1.1 C 58 % -8.3 C
1786 27-02-2004 20:42:01 -0.8 C 55 % -8.7 C
1787 27-02-2004 20:54:00 -0.5 C 52 % -9.14 C
1788 27-02-2004 21:06:00 -0.7 C 51 % -9.57 C
1789 27-02-2004 21:18:59 -0.8 C 51 % -9.66 C
1790 27-02-2004 21:30:58 -0.9 C 51 % -9.75 C
1791 27-02-2004 21:42:58 -1.2 C 52 % -9.79 C
1792 27-02-2004 21:54:01 -1.6 C 55 % -9.45 C
1793 27-02-2004 22:06:00 -1.7 C 56 % -9.31 C
1794 27-02-2004 22:18:00 -1.9 C 57 % -9.28 C
1795 27-02-2004 22:30:00 -1.8 C 59 % -8.74 C
1796 27-02-2004 22:42:00 -1.5 C 58 % -8.68 C
1797 27-02-2004 22:54:01 -1.4 C 58 % -8.58 C
1798 27-02-2004 23:06:01 -1.1 C 58 % -8.3 C
1799 27-02-2004 23:18:01 -1.1 C 60 % -7.87 C
1800 27-02-2004 23:30:01 -1 C 59 % -7.99 C
Sensor: Nr:Datum:Temp:Feuchte:Taupunkt:
Aussen-T/F 1801 27-02-2004 23:42:00 -1.1 C 60 % -7.87 C
1802 27-02-2004 23:54:01 -1.4 C 60 % -8.15 C
1803 28-02-2004 00:06:01 -1.5 C 61 % -8.03 C
1804 28-02-2004 00:18:01 -1.4 C 60 % -8.15 C
1805 28-02-2004 00:30:01 -1.4 C 60 % -8.15 C
1806 28-02-2004 00:42:01 -1.4 C 60 % -8.15 C
1807 28-02-2004 00:54:00 -1.4 C 60 % -8.15 C
1808 28-02-2004 01:06:00 -1.3 C 59 % -8.27 C
1809 28-02-2004 01:18:58 -1.2 C 56 % -8.84 C
1810 28-02-2004 01:30:57 -1.4 C 57 % -8.81 C
1811 28-02-2004 01:42:57 -1.6 C 57 % -8.99 C
1812 28-02-2004 01:54:01 -1.7 C 56 % -9.31 C
1813 28-02-2004 02:06:01 -2 C 57 % -9.37 C
1814 28-02-2004 02:18:01 -2.4 C 59 % -9.31 C
1815 28-02-2004 02:30:01 -2.5 C 58 % -9.62 C
1816 28-02-2004 02:42:01 -2.7 C 58 % -9.81 C
1817 28-02-2004 02:55:03 -2.9 C 60 % -9.57 C
1818 28-02-2004 03:07:03 -2.8 C 59 % -9.68 C
1819 28-02-2004 03:19:03 -2.6 C 60 % -9.28 C
1820 28-02-2004 03:31:00 -2.6 C 60 % -9.28 C
1821 28-02-2004 03:43:00 -2.7 C 61 % -9.17 C
1822 28-02-2004 03:55:00 -2.7 C 62 % -8.96 C
1823 28-02-2004 04:07:00 -2.7 C 62 % -8.96 C
1824 28-02-2004 04:19:59 -2.7 C 61 % -9.17 C
1825 28-02-2004 04:31:58 -2.8 C 62 % -9.05 C
Sensor: Nr:Datum:Temp:Feuchte:Taupunkt:
Aussen-T/F 1826 28-02-2004 04:43:58 -2.8 C 61 % -9.26 C
1827 28-02-2004 04:55:01 -2.7 C 59 % -9.59 C
1828 28-02-2004 05:07:01 -2.7 C 59 % -9.59 C
1829 28-02-2004 05:19:00 -2.8 C 60 % -9.47 C
1830 28-02-2004 05:31:00 -2.5 C 59 % -9.4 C
1831 28-02-2004 05:43:00 -2.5 C 59 % -9.4 C
1832 28-02-2004 05:55:01 -2.6 C 60 % -9.28 C
1833 28-02-2004 06:07:01 -2.1 C 59 % -9.02 C
1834 28-02-2004 06:19:01 -2.1 C 59 % -9.02 C
1835 28-02-2004 06:31:01 -2.2 C 59 % -9.12 C
1836 28-02-2004 06:43:01 -2.1 C 60 % -8.81 C
1837 28-02-2004 06:55:00 -2.1 C 60 % -8.81 C
1838 28-02-2004 07:07:59 -2 C 61 % -8.5 C
1839 28-02-2004 07:19:58 -1.9 C 61 % -8.41 C
1840 28-02-2004 07:31:57 -1.8 C 62 % -8.11 C
1841 28-02-2004 07:43:57 -1.8 C 62 % -8.11 C
1842 28-02-2004 07:55:01 -1.8 C 63 % -7.9 C
1843 28-02-2004 08:07:01 -1.9 C 64 % -7.79 C
1844 28-02-2004 08:19:01 -1.9 C 66 % -7.4 C
1845 28-02-2004 08:31:01 -1.8 C 67 % -7.11 C
1846 28-02-2004 08:43:01 -1.8 C 67 % -7.11 C
1847 28-02-2004 08:55:03 -1.7 C 66 % -7.2 C
1848 28-02-2004 09:07:01 -1.6 C 66 % -7.11 C
1849 28-02-2004 09:19:01 -1.2 C 66 % -6.73 C
1850 28-02-2004 09:31:01 -1 C 65 % -6.74 C
Sensor: Nr:Datum:Temp:Feuchte:Taupunkt:
Aussen-T/F 1851 28-02-2004 09:43:01 -0.9 C 65 % -6.64 C
1852 28-02-2004 09:55:00 -0.4 C 64 % -6.37 C
1853 28-02-2004 10:07:00 0 C 62 % -6.39 C
1854 28-02-2004 10:19:59 0.1 C 61 % -6.51 C
1855 28-02-2004 10:31:58 0.2 C 60 % -6.63 C
1856 28-02-2004 10:43:58 0.7 C 58 % -6.6 C
1857 28-02-2004 10:55:01 1 C 55 % -7.01 C
1858 28-02-2004 11:07:01 0.8 C 59 % -6.28 C
1859 28-02-2004 11:19:01 1.2 C 59 % -5.91 C
1860 28-02-2004 11:31:01 0.7 C 60 % -6.16 C
1861 28-02-2004 11:43:01 0.7 C 60 % -6.16 C
1862 28-02-2004 11:55:00 1.3 C 58 % -6.03 C
1863 28-02-2004 12:07:00 2.1 C 56 % -5.74 C
1864 28-02-2004 12:19:58 2.3 C 53 % -6.28 C
1865 28-02-2004 12:31:57 2.9 C 51 % -6.22 C
1866 28-02-2004 12:43:57 2.6 C 50 % -6.75 C
1867 28-02-2004 12:55:01 2.9 C 50 % -6.48 C
1868 28-02-2004 13:07:01 3.6 C 48 % -6.36 C
1869 28-02-2004 13:19:01 4.7 C 44 % -6.49 C
1870 28-02-2004 13:31:01 3.8 C 43 % -7.61 C
1871 28-02-2004 13:43:01 3.5 C 45 % -7.29 C
1872 28-02-2004 13:55:00 5.1 C 41 % -7.04 C
1873 28-02-2004 14:07:00 5.4 C 37 % -8.1 C
1874 28-02-2004 14:19:58 4.3 C 40 % -8.08 C
1875 28-02-2004 14:31:57 5 C 39 % -7.78 C
Sensor: Nr:Datum:Temp:Feuchte:Taupunkt:
Aussen-T/F 1876 28-02-2004 14:43:57 6 C 35 % -8.27 C
1877 28-02-2004 14:55:02 6.8 C 33 % -8.32 C
1878 28-02-2004 15:07:01 7.3 C 31 % -8.68 C
1879 28-02-2004 15:19:02 6.9 C 31 % -9.03 C
1880 28-02-2004 15:31:03 4.9 C 32 % -10.38 C
1881 28-02-2004 15:43:03 5 C 33 % -9.91 C
1882 28-02-2004 15:55:00 6.1 C 33 % -8.94 C
1883 28-02-2004 16:07:00 6.9 C 31 % -9.03 C
1884 28-02-2004 16:19:59 6.7 C 29 % -10.05 C
1885 28-02-2004 16:31:58 6.8 C 31 % -9.12 C
1886 28-02-2004 16:43:58 6.2 C 31 % -9.64 C
1887 28-02-2004 16:55:02 6.2 C 31 % -9.64 C
1888 28-02-2004 17:07:01 5.9 C 31 % -9.91 C
1889 28-02-2004 17:19:01 5.3 C 30 % -10.84 C
1890 28-02-2004 17:31:01 4.6 C 32 % -10.64 C
1891 28-02-2004 17:43:01 3.6 C 36 % -10.05 C
1892 28-02-2004 17:55:00 2.6 C 40 % -9.61 C
1893 28-02-2004 18:07:00 2.1 C 45 % -8.57 C
1894 28-02-2004 18:19:59 1.5 C 48 % -8.29 C
1895 28-02-2004 18:31:58 1 C 48 % -8.75 C
1896 28-02-2004 18:43:58 0.7 C 50 % -8.51 C
1897 28-02-2004 18:55:01 0.4 C 51 % -8.53 C
1898 28-02-2004 19:07:01 0.2 C 53 % -8.23 C
1899 28-02-2004 19:19:01 0 C 54 % -8.18 C
1900 28-02-2004 19:36:01 -0.3 C 55 % -8.23 C
Sensor: Nr:Datum:Temp:Feuchte:Taupunkt:
Aussen-T/F 1901 28-02-2004 19:48:01 -0.4 C 56 % -8.09 C
1902 28-02-2004 20:00:01 -0.6 C 56 % -8.28 C
1903 28-02-2004 20:12:00 -0.7 C 57 % -8.15 C
1904 28-02-2004 20:24:59 -1 C 56 % -8.66 C
1905 28-02-2004 20:36:58 -1.1 C 57 % -8.52 C
1906 28-02-2004 20:48:01 -1.3 C 57 % -8.71 C
1907 28-02-2004 21:00:01 -1.4 C 57 % -8.81 C
1908 28-02-2004 21:12:01 -1.6 C 58 % -8.77 C
1909 28-02-2004 21:24:01 -1.8 C 58 % -8.96 C
1910 28-02-2004 21:36:01 -2 C 59 % -8.93 C
1911 28-02-2004 21:48:00 -2.1 C 61 % -8.6 C
1912 28-02-2004 22:00:00 -2.2 C 60 % -8.9 C
1913 28-02-2004 22:12:00 -2.3 C 59 % -9.21 C
1914 28-02-2004 22:24:58 -2.5 C 59 % -9.4 C
1915 28-02-2004 22:36:57 -2.6 C 59 % -9.5 C
1916 28-02-2004 22:48:01 -2.8 C 60 % -9.47 C
1917 28-02-2004 23:00:01 -2.9 C 61 % -9.36 C
1918 28-02-2004 23:12:01 -3 C 61 % -9.45 C
1919 28-02-2004 23:24:01 -3.2 C 63 % -9.23 C
1920 28-02-2004 23:36:01 -3.4 C 62 % -9.62 C
1921 29-02-2004 00:00:00 -3.4 C 64 % -9.22 C
1922 29-02-2004 00:11:59 -3.7 C 63 % -9.71 C
1923 29-02-2004 00:24:58 -3.9 C 63 % -9.9 C
1924 29-02-2004 00:36:57 -3.9 C 64 % -9.7 C
1925 29-02-2004 00:48:36 -3.9 C 64 % -9.7 C
Sensor: Nr:Datum:Temp:Feuchte:Taupunkt:
Aussen-T/F 1926 29-02-2004 01:00:39 -4 C 64 % -9.79 C
1927 29-02-2004 01:12:39 -4.1 C 64 % -9.89 C
1928 29-02-2004 01:24:34 -4.1 C 65 % -9.69 C
1929 29-02-2004 01:36:37 -3.9 C 65 % -9.5 C
1930 29-02-2004 01:48:30 -4.2 C 65 % -9.79 C
1931 29-02-2004 02:00:33 -4.2 C 65 % -9.79 C
1932 29-02-2004 02:12:28 -4.3 C 65 % -9.88 C
1933 29-02-2004 02:24:31 -4.6 C 65 % -10.17 C
1934 29-02-2004 02:36:31 -4.8 C 66 % -10.16 C
1935 29-02-2004 02:58:04 -4.8 C 68 % -9.79 C
1936 29-02-2004 03:11:05 -4.9 C 68 % -9.88 C
1937 29-02-2004 03:23:05 -4.9 C 68 % -9.88 C
1938 29-02-2004 03:37:04 -5 C 68 % -9.98 C
1939 29-02-2004 03:49:04 -5 C 69 % -9.79 C
1940 29-02-2004 04:02:04 -5.1 C 69 % -9.89 C
1941 29-02-2004 04:14:04 -5.4 C 69 % -10.18 C
1942 29-02-2004 04:27:04 -5.6 C 69 % -10.37 C
1943 29-02-2004 04:40:04 -5.5 C 70 % -10.09 C
1944 29-02-2004 04:53:04 -5.6 C 70 % -10.19 C
1945 29-02-2004 05:01:15 -5.7 C 71 % -10.11 C
1946 29-02-2004 05:06:05 -5.7 C 70 % -10.29 C
1947 29-02-2004 05:13:18 -5.3 C 72 % -9.54 C
1948 29-02-2004 05:25:12 -4.8 C 71 % -9.24 C
1949 29-02-2004 05:37:12 -4.6 C 69 % -9.41 C
1950 29-02-2004 05:49:15 -4.7 C 68 % -9.69 C
Sensor: Nr:Datum:Temp:Feuchte:Taupunkt:
Aussen-T/F 1951 29-02-2004 06:01:09 -4.6 C 68 % -9.6 C
1952 29-02-2004 06:13:12 -4.4 C 68 % -9.4 C
1953 29-02-2004 06:25:53 -4.1 C 68 % -9.12 C
1954 29-02-2004 06:37:07 -3.9 C 67 % -9.11 C
1955 29-02-2004 06:49:07 -4 C 67 % -9.21 C
1956 29-02-2004 07:01:32 -3.9 C 67 % -9.11 C
1957 29-02-2004 07:13:46 -4.1 C 67 % -9.31 C
1958 29-02-2004 07:25:11 -4 C 68 % -9.02 C
1959 29-02-2004 07:37:11 -4.3 C 68 % -9.31 C
1960 29-02-2004 07:49:25 -4.6 C 69 % -9.41 C
1961 29-02-2004 08:01:49 -4.7 C 69 % -9.51 C
1962 29-02-2004 08:13:49 -4.8 C 70 % -9.42 C
1963 29-02-2004 08:25:03 -4.8 C 70 % -9.42 C
1964 29-02-2004 08:37:28 -4.7 C 70 % -9.32 C
1965 29-02-2004 08:49:42 -4.6 C 71 % -9.05 C
1966 29-02-2004 09:01:42 -4.4 C 71 % -8.85 C
1967 29-02-2004 09:13:06 -3.8 C 70 % -8.46 C
1968 29-02-2004 09:25:21 -3.4 C 69 % -8.26 C
1969 29-02-2004 09:37:45 -3.3 C 68 % -8.35 C
1970 29-02-2004 09:49:45 -3 C 69 % -7.88 C
1971 29-02-2004 10:01:59 -2.5 C 68 % -7.58 C
1972 29-02-2004 10:13:23 -2.2 C 63 % -8.28 C
1973 29-02-2004 10:25:37 -2 C 65 % -7.69 C
1974 29-02-2004 10:37:37 -1.6 C 64 % -7.51 C
1975 29-02-2004 10:49:02 -1.1 C 64 % -7.03 C
Sensor: Nr:Datum:Temp:Feuchte:Taupunkt:
Aussen-T/F 1976 29-02-2004 11:01:16 -0.6 C 62 % -6.97 C
1977 29-02-2004 11:13:41 0.2 C 58 % -7.07 C
1978 29-02-2004 11:25:41 0.8 C 56 % -6.96 C
1979 29-02-2004 11:37:00 1.3 C 54 % -6.96 C
1980 29-02-2004 11:49:02 0.9 C 53 % -7.58 C
1981 29-02-2004 12:01:01 0.9 C 53 % -7.58 C
1982 29-02-2004 12:13:01 0.6 C 53 % -7.86 C
1983 29-02-2004 12:25:01 0.6 C 53 % -7.86 C
1984 29-02-2004 12:37:02 0.8 C 52 % -7.92 C
1985 29-02-2004 12:49:00 1.4 C 51 % -7.61 C
1986 29-02-2004 13:01:00 1.9 C 50 % -7.4 C
1987 29-02-2004 13:13:00 2.2 C 48 % -7.65 C
1988 29-02-2004 13:25:59 3.2 C 46 % -7.28 C
1989 29-02-2004 13:37:58 3.8 C 42 % -7.91 C
1990 29-02-2004 13:49:01 3.8 C 42 % -7.91 C
1991 29-02-2004 14:01:01 4.2 C 38 % -8.83 C
1992 29-02-2004 14:13:01 3.5 C 39 % -9.12 C
1993 29-02-2004 14:25:01 3.3 C 41 % -8.67 C
1994 29-02-2004 14:37:01 3.2 C 43 % -8.15 C
1995 29-02-2004 14:49:00 3.9 C 39 % -8.77 C
1996 29-02-2004 15:01:00 4.6 C 36 % -9.16 C
1997 29-02-2004 15:13:00 5.2 C 35 % -8.98 C
1998 29-02-2004 15:25:58 4.7 C 35 % -9.43 C
1999 29-02-2004 15:37:57 5.5 C 34 % -9.09 C
2000 29-02-2004 15:49:01 4.6 C 35 % -9.52 C
Sensor: Nr:Datum:Temp:Feuchte:Taupunkt:
Aussen-T/F 2001 29-02-2004 16:01:01 5.2 C 34 % -9.35 C
2002 29-02-2004 16:13:01 4.5 C 35 % -9.6 C
2003 29-02-2004 16:25:01 4.7 C 35 % -9.43 C
2004 29-02-2004 16:37:01 5.2 C 35 % -8.98 C
2005 29-02-2004 16:49:00 5.2 C 32 % -10.12 C
2006 29-02-2004 17:01:00 5.2 C 32 % -10.12 C
2007 29-02-2004 17:13:00 5.5 C 34 % -9.09 C
2008 29-02-2004 17:25:58 4.7 C 41 % -7.4 C
2009 29-02-2004 17:37:57 3.4 C 48 % -6.55 C
2010 29-02-2004 17:49:03 3.2 C 50 % -6.2 C
2011 29-02-2004 18:01:01 2.5 C 50 % -6.85 C
2012 29-02-2004 18:13:01 2.2 C 48 % -7.65 C
2013 29-02-2004 18:25:01 1.8 C 50 % -7.49 C
2014 29-02-2004 18:37:01 1.5 C 52 % -7.27 C
2015 29-02-2004 18:49:00 1.1 C 54 % -7.15 C
2016 29-02-2004 19:01:59 0.8 C 56 % -6.96 C
2017 29-02-2004 19:13:59 0.6 C 56 % -7.15 C
2018 29-02-2004 19:25:58 0.3 C 59 % -6.75 C
2019 29-02-2004 19:37:57 0.1 C 60 % -6.72 C
2020 29-02-2004 19:49:01 0.3 C 60 % -6.53 C
2021 29-02-2004 20:01:01 0.2 C 60 % -6.63 C
2022 29-02-2004 20:13:01 0.1 C 61 % -6.51 C
2023 29-02-2004 20:25:01 -0.1 C 61 % -6.71 C
2024 29-02-2004 20:37:00 -0.3 C 62 % -6.68 C
2025 29-02-2004 20:49:01 -0.4 C 63 % -6.57 C
Sensor: Nr:Datum:Temp:Feuchte:Taupunkt:
Aussen-T/F 2026 29-02-2004 21:01:01 -0.6 C 65 % -6.35 C
2027 29-02-2004 21:13:01 -0.8 C 66 % -6.35 C
2028 29-02-2004 21:25:01 -0.9 C 66 % -6.44 C
2029 29-02-2004 21:37:01 -1 C 66 % -6.54 C
2030 29-02-2004 21:49:01 -1.1 C 66 % -6.63 C
2031 29-02-2004 22:01:00 -1.2 C 66 % -6.73 C
2032 29-02-2004 22:13:00 -1.2 C 66 % -6.73 C
2033 29-02-2004 22:25:58 -1.4 C 66 % -6.92 C
2034 29-02-2004 22:37:57 -1.5 C 66 % -7.01 C
2035 29-02-2004 22:49:01 -1.6 C 66 % -7.11 C
2036 29-02-2004 23:01:01 -1.6 C 65 % -7.31 C
2037 29-02-2004 23:13:01 -1.7 C 65 % -7.4 C
2038 29-02-2004 23:25:01 -1.7 C 65 % -7.4 C
2039 29-02-2004 23:37:01 -1.7 C 65 % -7.4 C
2040 29-02-2004 23:49:01 -1.8 C 65 % -7.5 C
2041 01-03-2004 00:01:00 -1.8 C 65 % -7.5 C
2042 01-03-2004 00:13:01 -1.8 C 64 % -7.7 C
2043 01-03-2004 00:25:00 -1.7 C 63 % -7.81 C
2044 01-03-2004 00:37:00 -1.8 C 64 % -7.7 C
2045 01-03-2004 00:49:00 -1.9 C 64 % -7.79 C
2046 01-03-2004 01:01:00 -2 C 64 % -7.89 C
2047 01-03-2004 01:13:00 -2 C 64 % -7.89 C
2048 01-03-2004 01:25:01 -2.2 C 63 % -8.28 C
2049 01-03-2004 01:37:01 -2.3 C 62 % -8.58 C
2050 01-03-2004 01:49:00 -2.3 C 61 % -8.79 C
Sensor: Nr:Datum:Temp:Feuchte:Taupunkt:
Aussen-T/F 2051 01-03-2004 02:01:00 -2.3 C 61 % -8.79 C
2052 01-03-2004 02:13:00 -2.6 C 62 % -8.86 C
2053 01-03-2004 02:25:00 -2.6 C 63 % -8.66 C
2054 01-03-2004 02:37:00 -2.8 C 63 % -8.85 C
2055 01-03-2004 02:50:03 -2.8 C 63 % -8.85 C
2056 01-03-2004 03:02:03 -3 C 64 % -8.84 C
2057 01-03-2004 03:14:03 -3.3 C 64 % -9.12 C
2058 01-03-2004 03:26:03 -3.3 C 65 % -8.93 C
2059 01-03-2004 03:37:59 -3.4 C 65 % -9.02 C
2060 01-03-2004 03:49:59 -3.4 C 65 % -9.02 C
2061 01-03-2004 04:02:59 -3.1 C 65 % -8.74 C
2062 01-03-2004 04:14:58 -3 C 64 % -8.84 C
2063 01-03-2004 04:26:58 -2.9 C 65 % -8.55 C
2064 01-03-2004 04:38:57 -2.9 C 65 % -8.55 C
2065 01-03-2004 04:50:01 -2.9 C 66 % -8.35 C
2066 01-03-2004 05:02:01 -3.2 C 66 % -8.64 C
2067 01-03-2004 05:14:01 -3.4 C 69 % -8.26 C
2068 01-03-2004 05:26:01 -3.5 C 69 % -8.36 C
2069 01-03-2004 05:38:00 -3.8 C 71 % -8.28 C
2070 01-03-2004 05:50:01 -3.8 C 72 % -8.1 C
2071 01-03-2004 06:02:01 -3.8 C 72 % -8.1 C
2072 01-03-2004 06:14:01 -3.9 C 72 % -8.19 C
2073 01-03-2004 06:26:01 -4 C 72 % -8.29 C
2074 01-03-2004 06:38:01 -4.1 C 73 % -8.21 C
2075 01-03-2004 06:50:00 -4.1 C 73 % -8.21 C
Sensor: Nr:Datum:Temp:Feuchte:Taupunkt:
Aussen-T/F 2076 01-03-2004 07:02:00 -4.4 C 72 % -8.68 C
2077 01-03-2004 07:14:00 -4.4 C 73 % -8.5 C
2078 01-03-2004 07:26:59 -4.2 C 73 % -8.31 C
2079 01-03-2004 07:38:58 -4.3 C 73 % -8.4 C
2080 01-03-2004 07:50:01 -4.2 C 73 % -8.31 C
2081 01-03-2004 08:02:00 -4.2 C 73 % -8.31 C
2082 01-03-2004 08:14:00 -4.1 C 73 % -8.21 C
2083 01-03-2004 08:26:01 -4.3 C 73 % -8.4 C
2084 01-03-2004 08:38:01 -4.2 C 73 % -8.31 C
2085 01-03-2004 08:50:01 -4.2 C 73 % -8.31 C
2086 01-03-2004 09:02:00 -3.9 C 72 % -8.19 C
2087 01-03-2004 09:14:00 -3.8 C 71 % -8.28 C
2088 01-03-2004 09:26:59 -3.5 C 71 % -7.99 C
2089 01-03-2004 09:38:58 -3.2 C 70 % -7.88 C
2090 01-03-2004 09:50:01 -2.8 C 69 % -7.68 C
2091 01-03-2004 10:02:01 -2.3 C 68 % -7.39 C
2092 01-03-2004 10:14:01 -1.9 C 65 % -7.59 C
2093 01-03-2004 10:26:01 -1.3 C 63 % -7.43 C
2094 01-03-2004 10:38:01 -0.9 C 61 % -7.46 C
2095 01-03-2004 10:50:00 -0.3 C 58 % -7.55 C
2096 01-03-2004 11:02:00 0.2 C 54 % -7.99 C
2097 01-03-2004 11:14:00 0.5 C 52 % -8.19 C
2098 01-03-2004 11:26:58 1.6 C 45 % -9.03 C
2099 01-03-2004 11:38:57 1.4 C 45 % -9.21 C
2100 01-03-2004 11:50:01 1.4 C 45 % -9.21 C
Sensor: Nr:Datum:Temp:Feuchte:Taupunkt:
Aussen-T/F 2101 01-03-2004 12:02:01 2.2 C 43 % -9.06 C
2102 01-03-2004 12:14:01 2 C 40 % -10.15 C
2103 01-03-2004 12:26:01 2.2 C 41 % -9.66 C
2104 01-03-2004 12:38:01 3 C 39 % -9.57 C
2105 01-03-2004 12:50:01 3.3 C 38 % -9.63 C
2106 01-03-2004 13:02:01 2.3 C 39 % -10.2 C
2107 01-03-2004 13:14:01 2.9 C 40 % -9.34 C
2108 01-03-2004 13:26:01 3 C 35 % -10.93 C
2109 01-03-2004 13:38:01 3.1 C 36 % -10.49 C
2110 01-03-2004 13:50:00 4.3 C 34 % -10.15 C
2111 01-03-2004 14:02:00 4.4 C 32 % -10.82 C
2112 01-03-2004 14:14:00 3.7 C 35 % -10.31 C
2113 01-03-2004 14:26:59 4 C 33 % -10.79 C
2114 01-03-2004 14:38:57 4.7 C 33 % -10.17 C
2115 01-03-2004 14:50:01 4 C 32 % -11.17 C
2116 01-03-2004 15:02:01 3.8 C 35 % -10.23 C
2117 01-03-2004 15:14:01 4.4 C 34 % -10.06 C
2118 01-03-2004 15:26:01 4.3 C 33 % -10.52 C
2119 01-03-2004 15:38:01 4.8 C 31 % -10.87 C
2120 01-03-2004 15:50:00 4.9 C 30 % -11.19 C
2121 01-03-2004 16:14:00 5.2 C 28 % -11.79 C
2122 01-03-2004 16:14:58 5.1 C 28 % -11.87 C
2123 01-03-2004 16:26:58 5.9 C 28 % -11.18 C
2124 01-03-2004 16:38:57 4.9 C 30 % -11.19 C
2125 01-03-2004 16:50:01 5.1 C 30 % -11.02 C
Sensor: Nr:Datum:Temp:Feuchte:Taupunkt:
Aussen-T/F 2126 01-03-2004 17:02:01 4.8 C 32 % -10.47 C
2127 01-03-2004 17:14:01 4.2 C 34 % -10.24 C
2128 01-03-2004 17:26:01 4 C 34 % -10.41 C
2129 01-03-2004 17:38:01 3.5 C 36 % -10.14 C
2130 01-03-2004 17:50:01 2.7 C 39 % -9.84 C
2131 01-03-2004 18:02:00 2.2 C 41 % -9.66 C
2132 01-03-2004 18:14:00 1.8 C 44 % -9.13 C
2133 01-03-2004 18:26:59 1.6 C 45 % -9.03 C
2134 01-03-2004 18:38:58 1.3 C 46 % -9.02 C
2135 01-03-2004 18:50:01 1.1 C 47 % -8.93 C
2136 01-03-2004 19:02:01 1 C 48 % -8.75 C
2137 01-03-2004 19:14:01 1 C 48 % -8.75 C
2138 01-03-2004 19:26:01 1 C 49 % -8.49 C
2139 01-03-2004 19:38:01 0.8 C 50 % -8.42 C
2140 01-03-2004 19:50:01 0.7 C 51 % -8.26 C
2141 01-03-2004 20:13:59 0.6 C 51 % -8.35 C
2142 01-03-2004 20:14:58 0.6 C 52 % -8.1 C
2143 01-03-2004 20:26:58 0.6 C 53 % -7.86 C
2144 01-03-2004 20:38:57 0.6 C 53 % -7.86 C
2145 01-03-2004 20:50:01 0.8 C 52 % -7.92 C
2146 01-03-2004 21:02:01 1 C 51 % -7.98 C
2147 01-03-2004 21:14:01 1 C 51 % -7.98 C
2148 01-03-2004 21:26:01 1.1 C 51 % -7.89 C
2149 01-03-2004 21:38:01 1.1 C 51 % -7.89 C
2150 01-03-2004 21:50:00 1.1 C 52 % -7.64 C
Sensor: Nr:Datum:Temp:Feuchte:Taupunkt:
Aussen-T/F 2151 01-03-2004 22:02:00 1 C 52 % -7.73 C
2152 01-03-2004 22:14:00 1 C 53 % -7.48 C
2153 01-03-2004 22:26:58 0.9 C 55 % -7.1 C
2154 01-03-2004 22:38:57 1 C 54 % -7.24 C
2155 01-03-2004 22:50:01 1 C 56 % -6.77 C
2156 01-03-2004 23:02:01 1 C 55 % -7.01 C
2157 01-03-2004 23:14:01 1 C 57 % -6.54 C
2158 01-03-2004 23:26:01 1 C 60 % -5.87 C
2159 01-03-2004 23:38:01 0.7 C 63 % -5.52 C
2160 01-03-2004 23:50:00 0.6 C 66 % -5 C
2161 02-03-2004 00:02:59 0.5 C 65 % -5.3 C
2162 02-03-2004 00:14:58 0.5 C 66 % -5.1 C
2163 02-03-2004 00:26:58 0.4 C 67 % -5 C
2164 02-03-2004 00:38:57 0.4 C 67 % -5 C
2165 02-03-2004 00:50:01 0.4 C 67 % -5 C
2166 02-03-2004 01:02:01 0.3 C 67 % -5.09 C
2167 02-03-2004 01:14:01 0.3 C 67 % -5.09 C
2168 02-03-2004 01:26:01 0.2 C 67 % -5.19 C
2169 02-03-2004 01:38:01 0.2 C 68 % -4.99 C
2170 02-03-2004 01:50:01 0.2 C 67 % -5.19 C
2171 02-03-2004 02:02:01 0.2 C 67 % -5.19 C
2172 02-03-2004 02:14:01 0.3 C 67 % -5.09 C
2173 02-03-2004 02:26:01 0.4 C 67 % -5 C
2174 02-03-2004 02:38:01 0.5 C 66 % -5.1 C
2175 02-03-2004 02:51:01 0.5 C 66 % -5.1 C
Sensor: Nr:Datum:Temp:Feuchte:Taupunkt:
Aussen-T/F 2176 02-03-2004 03:03:01 0.6 C 66 % -5 C
2177 02-03-2004 03:15:59 0.7 C 66 % -4.91 C
2178 02-03-2004 03:26:59 0.7 C 66 % -4.91 C
2179 02-03-2004 03:39:01 0.7 C 66 % -4.91 C
2180 02-03-2004 03:51:01 0.8 C 66 % -4.81 C
2181 02-03-2004 04:03:01 0.8 C 66 % -4.81 C
2182 02-03-2004 04:15:01 1 C 65 % -4.82 C
2183 02-03-2004 04:27:01 0.9 C 67 % -4.52 C
2184 02-03-2004 04:39:01 1.1 C 67 % -4.33 C
2185 02-03-2004 04:51:00 1.5 C 70 % -3.36 C
2186 02-03-2004 05:03:59 1.8 C 70 % -3.07 C
2187 02-03-2004 05:15:58 1.8 C 72 % -2.7 C
2188 02-03-2004 05:27:58 1.8 C 74 % -2.33 C
2189 02-03-2004 05:39:57 1.8 C 74 % -2.33 C
2190 02-03-2004 05:51:01 1.9 C 76 % -1.87 C
2191 02-03-2004 06:03:01 1.8 C 77 % -1.79 C
2192 02-03-2004 06:15:01 1.7 C 78 % -1.71 C
2193 02-03-2004 06:27:01 1.7 C 78 % -1.71 C
2194 02-03-2004 06:39:00 1.7 C 78 % -1.71 C
2195 02-03-2004 06:51:01 1.8 C 78 % -1.62 C
2196 02-03-2004 07:03:01 1.8 C 79 % -1.44 C
2197 02-03-2004 07:15:01 1.8 C 79 % -1.44 C
2198 02-03-2004 07:27:01 1.9 C 79 % -1.35 C
2199 02-03-2004 07:39:01 2 C 78 % -1.42 C
2200 02-03-2004 07:51:00 2 C 78 % -1.42 C
Sensor: Nr:Datum:Temp:Feuchte:Taupunkt:
Aussen-T/F 2201 02-03-2004 08:03:00 2.2 C 78 % -1.23 C
2202 02-03-2004 08:15:58 2.1 C 79 % -1.15 C
2203 02-03-2004 08:27:58 2.1 C 79 % -1.15 C
2204 02-03-2004 08:39:57 2.1 C 80 % -0.98 C
2205 02-03-2004 08:51:01 2.1 C 81 % -0.81 C
2206 02-03-2004 09:03:01 2.2 C 81 % -0.71 C
2207 02-03-2004 09:15:01 2.3 C 80 % -0.79 C
2208 02-03-2004 09:27:01 2.4 C 79 % -0.86 C
2209 02-03-2004 09:39:01 2.6 C 79 % -0.67 C
2210 02-03-2004 09:51:01 2.8 C 78 % -0.65 C
2211 02-03-2004 10:03:01 3 C 76 % -0.81 C
2212 02-03-2004 10:15:02 3 C 76 % -0.81 C
2213 02-03-2004 10:27:02 3.1 C 75 % -0.89 C
2214 02-03-2004 10:39:01 3.1 C 75 % -0.89 C
2215 02-03-2004 10:51:00 3.1 C 75 % -0.89 C
2216 02-03-2004 11:03:00 2.9 C 76 % -0.9 C
2217 02-03-2004 11:15:59 3 C 75 % -0.99 C
2218 02-03-2004 11:27:59 3 C 74 % -1.17 C
2219 02-03-2004 11:39:57 3.1 C 74 % -1.07 C
2220 02-03-2004 11:51:01 3.3 C 73 % -1.06 C
2221 02-03-2004 12:03:01 3.3 C 72 % -1.25 C
2222 02-03-2004 12:15:01 3.3 C 72 % -1.25 C
2223 02-03-2004 12:27:01 3.5 C 71 % -1.25 C
2224 02-03-2004 12:39:02 3.6 C 68 % -1.74 C
2225 02-03-2004 12:51:00 3.8 C 63 % -2.58 C
Sensor: Nr:Datum:Temp:Feuchte:Taupunkt:
Aussen-T/F 2226 02-03-2004 13:03:00 4 C 60 % -3.05 C
2227 02-03-2004 13:15:59 4.3 C 57 % -3.45 C
2228 02-03-2004 13:27:59 4.2 C 57 % -3.54 C
2229 02-03-2004 13:39:58 4.5 C 57 % -3.26 C
2230 02-03-2004 13:51:01 4.5 C 57 % -3.26 C
2231 02-03-2004 14:03:00 4.4 C 56 % -3.59 C
2232 02-03-2004 14:15:00 4.5 C 55 % -3.74 C
2233 02-03-2004 14:27:00 4.7 C 53 % -4.05 C
2234 02-03-2004 14:39:00 4.9 C 51 % -4.37 C
2235 02-03-2004 14:51:01 5 C 51 % -4.28 C
2236 02-03-2004 15:03:01 5.3 C 50 % -4.26 C
2237 02-03-2004 15:15:01 5.2 C 48 % -4.89 C
2238 02-03-2004 15:27:01 5.4 C 48 % -4.71 C
2239 02-03-2004 15:39:01 6 C 47 % -4.44 C
2240 02-03-2004 15:51:01 6.4 C 47 % -4.07 C
2241 02-03-2004 16:03:01 6.4 C 43 % -5.25 C
2242 02-03-2004 16:15:01 6.7 C 44 % -4.67 C
2243 02-03-2004 16:27:01 7 C 41 % -5.33 C
2244 02-03-2004 16:39:01 5.7 C 46 % -5 C
2245 02-03-2004 16:51:00 5.8 C 47 % -4.62 C
2246 02-03-2004 17:03:00 5.7 C 47 % -4.71 C
2247 02-03-2004 17:15:58 5.5 C 48 % -4.62 C
2248 02-03-2004 17:27:58 5.4 C 48 % -4.71 C
2249 02-03-2004 17:39:57 5.4 C 48 % -4.71 C
2250 02-03-2004 17:51:01 5.4 C 48 % -4.71 C
Sensor: Nr:Datum:Temp:Feuchte:Taupunkt:
Aussen-T/F 2251 02-03-2004 18:03:01 5.3 C 48 % -4.8 C
2252 02-03-2004 18:15:01 5 C 48 % -5.08 C
2253 02-03-2004 18:27:01 4.7 C 50 % -4.82 C
2254 02-03-2004 18:39:01 4.8 C 50 % -4.72 C
2255 02-03-2004 18:51:01 4.6 C 51 % -4.65 C
2256 02-03-2004 19:03:01 4.6 C 50 % -4.91 C
2257 02-03-2004 19:15:01 4.3 C 51 % -4.92 C
2258 02-03-2004 19:27:01 4.3 C 51 % -4.92 C
2259 02-03-2004 19:39:01 4.3 C 51 % -4.92 C
2260 02-03-2004 19:51:01 4.2 C 51 % -5.02 C
2261 02-03-2004 20:03:00 4.2 C 51 % -5.02 C
2262 02-03-2004 20:15:59 4 C 52 % -4.95 C
2263 02-03-2004 20:27:59 4 C 52 % -4.95 C
2264 02-03-2004 20:39:57 4 C 52 % -4.95 C
2265 02-03-2004 20:51:01 3.9 C 54 % -4.54 C
2266 02-03-2004 21:03:01 3.8 C 54 % -4.63 C
2267 02-03-2004 21:15:01 3.8 C 55 % -4.39 C
2268 02-03-2004 21:27:01 3.8 C 55 % -4.39 C
2269 02-03-2004 21:39:01 3.8 C 56 % -4.15 C
2270 02-03-2004 21:51:00 3.7 C 55 % -4.49 C
2271 02-03-2004 22:03:00 3.6 C 56 % -4.34 C
2272 02-03-2004 22:15:58 3.6 C 57 % -4.11 C
2273 02-03-2004 22:27:58 3.8 C 56 % -4.15 C
2274 02-03-2004 22:39:57 3.8 C 56 % -4.15 C
2275 02-03-2004 22:51:01 3.9 C 56 % -4.06 C
Sensor: Nr:Datum:Temp:Feuchte:Taupunkt:
Aussen-T/F 2276 02-03-2004 23:03:01 3.9 C 56 % -4.06 C
2277 02-03-2004 23:15:01 3.9 C 56 % -4.06 C
2278 02-03-2004 23:27:01 3.7 C 56 % -4.25 C
2279 02-03-2004 23:39:01 3.6 C 56 % -4.34 C
2280 02-03-2004 23:51:01 3.3 C 57 % -4.39 C
2281 03-03-2004 00:03:01 3.5 C 58 % -3.97 C
2282 03-03-2004 00:15:01 3.5 C 57 % -4.2 C
2283 03-03-2004 00:27:01 3.5 C 57 % -4.2 C
2284 03-03-2004 00:39:01 3.5 C 58 % -3.97 C
2285 03-03-2004 00:51:00 3.4 C 58 % -4.06 C
2286 03-03-2004 01:03:00 3.4 C 59 % -3.84 C
2287 03-03-2004 01:15:59 3.3 C 59 % -3.93 C
2288 03-03-2004 01:27:59 3.3 C 59 % -3.93 C
2289 03-03-2004 01:39:57 3.3 C 59 % -3.93 C
2290 03-03-2004 01:51:01 3.2 C 60 % -3.8 C
2291 03-03-2004 02:03:01 3.1 C 60 % -3.89 C
2292 03-03-2004 02:15:01 3 C 61 % -3.77 C
2293 03-03-2004 02:27:01 2.8 C 62 % -3.74 C
2294 03-03-2004 02:39:01 2.8 C 62 % -3.74 C
2295 03-03-2004 02:52:01 2.8 C 61 % -3.96 C
2296 03-03-2004 03:04:01 2.8 C 61 % -3.96 C
2297 03-03-2004 03:16:00 2.7 C 61 % -4.05 C
2298 03-03-2004 03:28:00 2.6 C 61 % -4.15 C
2299 03-03-2004 03:40:01 2.6 C 61 % -4.15 C
2300 03-03-2004 03:52:01 2.5 C 62 % -4.03 C
Sensor: Nr:Datum:Temp:Feuchte:Taupunkt:
Aussen-T/F 2301 03-03-2004 04:04:00 2.4 C 62 % -4.12 C
2302 03-03-2004 04:16:00 2.3 C 62 % -4.21 C
2303 03-03-2004 04:28:00 2.2 C 62 % -4.31 C
2304 03-03-2004 04:40:00 2.1 C 61 % -4.62 C
2305 03-03-2004 04:52:01 1.7 C 63 % -4.57 C
2306 03-03-2004 05:04:01 1.3 C 63 % -4.95 C
2307 03-03-2004 05:16:01 1.1 C 64 % -4.93 C
2308 03-03-2004 05:28:01 0.8 C 65 % -5.01 C
2309 03-03-2004 05:40:00 0.7 C 65 % -5.11 C
2310 03-03-2004 05:52:01 0.5 C 65 % -5.3 C
2311 03-03-2004 06:04:01 0.5 C 65 % -5.3 C
2312 03-03-2004 06:16:01 0.5 C 64 % -5.5 C
2313 03-03-2004 06:28:01 0.3 C 65 % -5.49 C
2314 03-03-2004 06:40:01 0.1 C 66 % -5.48 C
2315 03-03-2004 06:52:00 0.1 C 66 % -5.48 C
2316 03-03-2004 07:04:00 0 C 66 % -5.58 C
2317 03-03-2004 07:16:58 0.2 C 66 % -5.38 C
2318 03-03-2004 07:28:58 0.4 C 65 % -5.39 C
2319 03-03-2004 07:40:57 0.6 C 64 % -5.41 C
2320 03-03-2004 07:52:01 0.7 C 63 % -5.52 C
2321 03-03-2004 08:04:01 0.7 C 63 % -5.52 C
2322 03-03-2004 08:16:01 0.6 C 63 % -5.61 C
2323 03-03-2004 08:28:01 0.6 C 63 % -5.61 C
2324 03-03-2004 08:40:01 0.5 C 63 % -5.71 C
2325 03-03-2004 08:52:01 0.4 C 64 % -5.6 C
Sensor: Nr:Datum:Temp:Feuchte:Taupunkt:
Aussen-T/F 2326 03-03-2004 09:04:01 0.5 C 63 % -5.71 C
2327 03-03-2004 09:16:01 0.6 C 63 % -5.61 C
2328 03-03-2004 09:28:01 0.8 C 62 % -5.63 C
2329 03-03-2004 09:40:01 1 C 60 % -5.87 C
2330 03-03-2004 09:52:00 1.4 C 60 % -5.5 C
2331 03-03-2004 10:04:00 1.7 C 58 % -5.66 C
2332 03-03-2004 10:16:59 1.9 C 58 % -5.47 C
2333 03-03-2004 10:28:59 2.2 C 55 % -5.89 C
2334 03-03-2004 10:40:57 2.5 C 54 % -5.85 C
2335 03-03-2004 10:52:01 2.8 C 53 % -5.81 C
2336 03-03-2004 11:04:01 3.2 C 52 % -5.69 C
2337 03-03-2004 11:16:01 3.5 C 51 % -5.66 C
2338 03-03-2004 11:28:01 3.8 C 50 % -5.65 C
2339 03-03-2004 11:40:01 4.2 C 48 % -5.81 C
2340 03-03-2004 11:52:00 4.6 C 47 % -5.72 C
2341 03-03-2004 12:03:59 5 C 46 % -5.64 C
2342 03-03-2004 12:16:58 5.4 C 45 % -5.56 C
2343 03-03-2004 12:28:58 6 C 43 % -5.61 C
2344 03-03-2004 12:40:57 6.4 C 41 % -5.87 C
2345 03-03-2004 12:52:01 7.2 C 41 % -5.15 C
2346 03-03-2004 13:04:01 8 C 39 % -5.09 C
2347 03-03-2004 13:16:01 8.2 C 37 % -5.6 C
2348 03-03-2004 13:28:01 8 C 36 % -6.14 C
2349 03-03-2004 13:40:01 8.5 C 37 % -5.33 C
2350 03-03-2004 13:52:01 8.5 C 35 % -6.06 C
Sensor: Nr:Datum:Temp:Feuchte:Taupunkt:
Aussen-T/F 2351 03-03-2004 14:04:01 8.6 C 34 % -6.35 C
2352 03-03-2004 14:16:01 8.9 C 34 % -6.09 C
2353 03-03-2004 14:28:01 9.6 C 33 % -5.86 C
2354 03-03-2004 14:40:01 10.1 C 32 % -5.82 C
2355 03-03-2004 14:52:00 10.1 C 31 % -6.24 C
2356 03-03-2004 15:04:00 10.2 C 29 % -7.02 C
2357 03-03-2004 15:16:58 9.8 C 31 % -6.5 C
2358 03-03-2004 15:28:58 10.4 C 30 % -6.4 C
2359 03-03-2004 15:40:57 11.1 C 28 % -6.69 C
2360 03-03-2004 15:52:01 10.8 C 29 % -6.5 C
2361 03-03-2004 16:04:01 11 C 27 % -7.25 C
2362 03-03-2004 16:16:01 11.2 C 27 % -7.08 C
2363 03-03-2004 16:28:01 10.4 C 28 % -7.3 C
2364 03-03-2004 16:40:01 10.7 C 28 % -7.04 C
2365 03-03-2004 16:52:00 10.3 C 28 % -7.38 C
2366 03-03-2004 17:04:59 9.8 C 30 % -6.92 C
2367 03-03-2004 17:16:58 10 C 32 % -5.91 C
2368 03-03-2004 17:28:58 9.5 C 30 % -7.19 C
2369 03-03-2004 17:40:57 8.9 C 33 % -6.47 C
2370 03-03-2004 17:52:01 8.2 C 33 % -7.09 C
2371 03-03-2004 18:04:01 7.4 C 35 % -7.03 C
2372 03-03-2004 18:16:01 6.9 C 36 % -7.11 C
2373 03-03-2004 18:28:01 6.6 C 38 % -6.68 C
2374 03-03-2004 18:40:01 5.8 C 41 % -6.41 C
2375 03-03-2004 18:52:01 5.2 C 45 % -5.74 C
Sensor: Nr:Datum:Temp:Feuchte:Taupunkt:
Aussen-T/F 2376 03-03-2004 19:04:01 4.7 C 47 % -5.63 C
2377 03-03-2004 19:16:01 4.3 C 48 % -5.72 C
2378 03-03-2004 19:28:01 4.1 C 49 % -5.63 C
2379 03-03-2004 19:40:01 3.6 C 52 % -5.32 C
2380 03-03-2004 19:52:01 3.5 C 52 % -5.41 C
2381 03-03-2004 20:04:00 3.1 C 54 % -5.29 C
2382 03-03-2004 20:16:59 2.7 C 57 % -4.95 C
2383 03-03-2004 20:28:59 2.5 C 59 % -4.68 C
2384 03-03-2004 20:40:58 2.4 C 59 % -4.78 C
2385 03-03-2004 20:52:01 2.1 C 59 % -5.06 C
2386 03-03-2004 21:04:00 1.8 C 62 % -4.69 C
2387 03-03-2004 21:16:01 1.7 C 61 % -5 C
2388 03-03-2004 21:28:01 1.5 C 62 % -4.97 C
2389 03-03-2004 21:40:00 1.3 C 63 % -4.95 C
2390 03-03-2004 21:52:01 1.1 C 62 % -5.35 C
2391 03-03-2004 22:04:01 1 C 63 % -5.23 C
2392 03-03-2004 22:16:01 0.7 C 64 % -5.31 C
2393 03-03-2004 22:28:01 0.6 C 65 % -5.2 C
2394 03-03-2004 22:40:01 0.5 C 66 % -5.1 C
2395 03-03-2004 22:52:01 0.4 C 66 % -5.19 C
2396 03-03-2004 23:04:01 0.2 C 66 % -5.38 C
2397 03-03-2004 23:16:01 0.1 C 66 % -5.48 C
2398 03-03-2004 23:28:01 -0.1 C 66 % -5.68 C
2399 03-03-2004 23:40:01 -0.1 C 67 % -5.48 C
2400 03-03-2004 23:52:00 0 C 67 % -5.38 C
Sensor: Nr:Datum:Temp:Feuchte:Taupunkt:
Aussen-T/F 2401 04-03-2004 00:04:00 -0.2 C 67 % -5.58 C
2402 04-03-2004 00:16:59 -0.4 C 67 % -5.77 C
2403 04-03-2004 00:28:59 -0.6 C 67 % -5.96 C
2404 04-03-2004 00:40:57 -0.9 C 68 % -6.05 C
2405 04-03-2004 00:52:01 -1 C 69 % -5.96 C
2406 04-03-2004 01:04:01 -1.1 C 70 % -5.86 C
2407 04-03-2004 01:16:01 -1.3 C 70 % -6.06 C
2408 04-03-2004 01:28:01 -1.4 C 71 % -5.97 C
2409 04-03-2004 01:40:01 -1.6 C 71 % -6.16 C
2410 04-03-2004 01:52:00 -1.7 C 72 % -6.07 C
2411 04-03-2004 02:04:00 -1.8 C 73 % -5.99 C
2412 04-03-2004 02:16:58 -1.9 C 73 % -6.09 C
2413 04-03-2004 02:28:58 -2.1 C 72 % -6.46 C
2414 04-03-2004 02:40:57 -2.1 C 73 % -6.28 C
2415 04-03-2004 02:53:02 -2.2 C 73 % -6.38 C
2416 04-03-2004 03:05:02 -2.3 C 73 % -6.47 C
2417 04-03-2004 03:17:02 -2.3 C 73 % -6.47 C
2418 04-03-2004 03:29:02 -2.2 C 74 % -6.2 C
2419 04-03-2004 03:41:00 -2.4 C 74 % -6.39 C
2420 04-03-2004 03:53:00 -2.5 C 74 % -6.49 C
2421 04-03-2004 04:05:00 -2.4 C 74 % -6.39 C
2422 04-03-2004 04:17:59 -2.5 C 74 % -6.49 C
2423 04-03-2004 04:29:59 -2.5 C 74 % -6.49 C
2424 04-03-2004 04:41:57 -2.5 C 74 % -6.49 C
2425 04-03-2004 04:53:01 -2.6 C 74 % -6.58 C
Sensor: Nr:Datum:Temp:Feuchte:Taupunkt:
Aussen-T/F 2426 04-03-2004 05:05:01 -2.4 C 75 % -6.22 C
2427 04-03-2004 05:17:01 -2.3 C 74 % -6.29 C
2428 04-03-2004 05:29:01 -2.5 C 73 % -6.67 C
2429 04-03-2004 05:41:01 -2.7 C 73 % -6.86 C
2430 04-03-2004 05:53:00 -2.8 C 73 % -6.95 C
2431 04-03-2004 06:05:00 -2.6 C 74 % -6.58 C
2432 04-03-2004 06:17:58 -2.6 C 74 % -6.58 C
2433 04-03-2004 06:29:58 -2.6 C 75 % -6.41 C
2434 04-03-2004 06:41:57 -2.6 C 74 % -6.58 C
2435 04-03-2004 06:53:01 -2.7 C 75 % -6.51 C
2436 04-03-2004 07:05:01 -2.8 C 75 % -6.6 C
2437 04-03-2004 07:17:01 -2.7 C 75 % -6.51 C
2438 04-03-2004 07:29:01 -2.6 C 75 % -6.41 C
2439 04-03-2004 07:41:01 -2.7 C 74 % -6.68 C
2440 04-03-2004 07:53:01 -2.5 C 75 % -6.31 C
2441 04-03-2004 08:05:01 -2.4 C 75 % -6.22 C
2442 04-03-2004 08:17:01 -2.4 C 74 % -6.39 C
2443 04-03-2004 08:29:01 -2.5 C 74 % -6.49 C
2444 04-03-2004 08:41:01 -2.4 C 75 % -6.22 C
2445 04-03-2004 08:53:00 -2.2 C 75 % -6.02 C
2446 04-03-2004 09:05:00 -2 C 75 % -5.83 C
2447 04-03-2004 09:17:59 -1.8 C 75 % -5.64 C
2448 04-03-2004 09:29:59 -1.5 C 74 % -5.52 C
2449 04-03-2004 09:41:57 -0.8 C 74 % -4.84 C
2450 04-03-2004 09:53:01 -0.1 C 70 % -4.9 C
Sensor: Nr:Datum:Temp:Feuchte:Taupunkt:
Aussen-T/F 2451 04-03-2004 10:05:01 0.4 C 68 % -4.8 C
2452 04-03-2004 10:17:01 1.4 C 66 % -4.24 C
2453 04-03-2004 10:29:01 2.1 C 62 % -4.4 C
2454 04-03-2004 10:41:01 2.2 C 60 % -4.74 C
2455 04-03-2004 10:53:00 2.8 C 57 % -4.86 C
2456 04-03-2004 11:05:00 3.5 C 57 % -4.2 C
2457 04-03-2004 11:17:58 4.1 C 54 % -4.36 C
2458 04-03-2004 11:29:58 4.7 C 52 % -4.3 C
2459 04-03-2004 11:41:57 4.8 C 52 % -4.2 C
2460 04-03-2004 11:53:01 5.1 C 51 % -4.18 C
2461 04-03-2004 12:05:01 5.3 C 52 % -3.74 C
2462 04-03-2004 12:17:01 6.2 C 48 % -3.98 C
2463 04-03-2004 12:29:01 7.1 C 45 % -4.01 C
2464 04-03-2004 12:41:01 7.4 C 44 % -4.04 C
2465 04-03-2004 12:53:01 7.8 C 42 % -4.29 C
2466 04-03-2004 13:05:01 8.6 C 41 % -3.89 C
2467 04-03-2004 13:17:01 8.9 C 40 % -3.95 C
2468 04-03-2004 13:29:01 8.9 C 38 % -4.63 C
2469 04-03-2004 13:41:01 9.5 C 37 % -4.44 C
2470 04-03-2004 13:53:00 10.2 C 35 % -4.56 C
2471 04-03-2004 14:05:00 10.7 C 35 % -4.11 C
2472 04-03-2004 14:17:59 10.5 C 32 % -5.47 C
2473 04-03-2004 14:29:59 10.4 C 32 % -5.56 C
2474 04-03-2004 14:41:57 9.9 C 35 % -4.82 C
2475 04-03-2004 14:53:01 10 C 33 % -5.51 C
Sensor: Nr:Datum:Temp:Feuchte:Taupunkt:
Aussen-T/F 2476 04-03-2004 15:05:01 10.8 C 32 % -5.21 C
2477 04-03-2004 15:17:01 11.1 C 30 % -5.79 C
2478 04-03-2004 15:29:01 11.1 C 31 % -5.37 C
2479 04-03-2004 15:41:01 10.5 C 31 % -5.89 C
2480 04-03-2004 15:53:00 10.3 C 31 % -6.06 C
2481 04-03-2004 16:05:59 10.1 C 31 % -6.24 C
2482 04-03-2004 16:17:58 10.3 C 32 % -5.65 C
2483 04-03-2004 16:29:58 10.3 C 31 % -6.06 C
2484 04-03-2004 16:41:57 10 C 32 % -5.91 C
2485 04-03-2004 16:53:01 9.7 C 41 % -2.9 C
2486 04-03-2004 17:05:01 9.4 C 37 % -4.53 C
2487 04-03-2004 17:17:01 9.1 C 37 % -4.8 C
2488 04-03-2004 17:29:01 8.9 C 40 % -3.95 C
2489 04-03-2004 17:41:01 8.6 C 39 % -4.55 C
2490 04-03-2004 17:53:01 8.4 C 41 % -4.07 C
2491 04-03-2004 18:05:01 8.1 C 42 % -4.02 C
2492 04-03-2004 18:17:01 7.8 C 45 % -3.37 C
2493 04-03-2004 18:29:01 7.4 C 46 % -3.44 C
2494 04-03-2004 18:41:01 7.1 C 47 % -3.43 C
2495 04-03-2004 18:53:01 6.9 C 48 % -3.33 C
2496 04-03-2004 19:05:00 6.8 C 47 % -3.71 C
2497 04-03-2004 19:17:58 6.8 C 46 % -3.99 C
2498 04-03-2004 19:29:58 6.8 C 45 % -4.28 C
2499 04-03-2004 19:41:57 6.6 C 45 % -4.47 C
2500 04-03-2004 19:53:01 6.5 C 44 % -4.85 C
Sensor: Nr:Datum:Temp:Feuchte:Taupunkt:
Aussen-T/F 2501 04-03-2004 20:05:01 6.5 C 43 % -5.16 C
2502 04-03-2004 20:17:01 6.4 C 42 % -5.56 C
2503 04-03-2004 20:29:01 6.3 C 44 % -5.03 C
2504 04-03-2004 20:41:01 6 C 46 % -4.72 C
2505 04-03-2004 20:53:00 5.7 C 48 % -4.43 C
2506 04-03-2004 21:05:59 5.5 C 49 % -4.35 C
2507 04-03-2004 21:17:58 5.4 C 49 % -4.44 C
2508 04-03-2004 21:29:58 5.2 C 48 % -4.89 C
2509 04-03-2004 21:41:57 5 C 49 % -4.81 C
2510 04-03-2004 21:53:01 4.9 C 49 % -4.9 C
2511 04-03-2004 22:05:01 4.6 C 50 % -4.91 C
2512 04-03-2004 22:17:01 4.3 C 51 % -4.92 C
2513 04-03-2004 22:29:01 3.8 C 54 % -4.63 C
2514 04-03-2004 22:41:01 3.6 C 53 % -5.07 C
2515 04-03-2004 22:53:00 3.5 C 53 % -5.16 C
2516 04-03-2004 23:05:59 3.3 C 53 % -5.35 C
2517 04-03-2004 23:17:58 3.1 C 55 % -5.05 C
2518 04-03-2004 23:29:58 2.8 C 56 % -5.09 C
2519 04-03-2004 23:41:57 2.4 C 56 % -5.46 C
2520 04-03-2004 23:53:01 2.3 C 56 % -5.56 C
2521 05-03-2004 00:05:01 2.1 C 56 % -5.74 C
2522 05-03-2004 00:17:01 2.1 C 56 % -5.74 C
2523 05-03-2004 00:29:01 1.9 C 58 % -5.47 C
2524 05-03-2004 00:41:00 1.8 C 58 % -5.57 C
2525 05-03-2004 00:53:01 1.7 C 58 % -5.66 C
Sensor: Nr:Datum:Temp:Feuchte:Taupunkt:
Aussen-T/F 2526 05-03-2004 01:05:01 1.5 C 59 % -5.62 C
2527 05-03-2004 01:17:01 1.4 C 59 % -5.72 C
2528 05-03-2004 01:29:01 1.2 C 60 % -5.69 C
2529 05-03-2004 01:41:01 1 C 60 % -5.87 C
2530 05-03-2004 01:53:01 1 C 60 % -5.87 C
2531 05-03-2004 02:05:00 0.8 C 62 % -5.63 C
2532 05-03-2004 02:17:58 0.6 C 62 % -5.82 C
2533 05-03-2004 02:29:58 0.5 C 63 % -5.71 C
2534 05-03-2004 02:41:57 0.5 C 63 % -5.71 C
2535 05-03-2004 02:54:03 0.4 C 63 % -5.8 C
2536 05-03-2004 03:06:03 0.3 C 65 % -5.49 C
2537 05-03-2004 03:18:02 0.3 C 65 % -5.49 C
2538 05-03-2004 03:30:02 0.3 C 65 % -5.49 C
2539 05-03-2004 03:42:00 0.2 C 65 % -5.58 C
2540 05-03-2004 03:54:00 0.1 C 65 % -5.68 C
2541 05-03-2004 04:06:00 0.2 C 65 % -5.58 C
2542 05-03-2004 04:18:59 -0.1 C 65 % -5.88 C
2543 05-03-2004 04:30:58 -0.3 C 65 % -6.07 C
2544 05-03-2004 04:42:58 -0.5 C 66 % -6.06 C
2545 05-03-2004 04:54:01 -0.5 C 67 % -5.86 C
2546 05-03-2004 05:06:01 -0.7 C 67 % -6.05 C
2547 05-03-2004 05:18:01 -0.8 C 68 % -5.96 C
2548 05-03-2004 05:30:01 -0.9 C 68 % -6.05 C
2549 05-03-2004 05:42:01 -1 C 67 % -6.34 C
2550 05-03-2004 05:54:00 -1 C 67 % -6.34 C
Sensor: Nr:Datum:Temp:Feuchte:Taupunkt:
Aussen-T/F 2551 05-03-2004 06:06:00 -1.1 C 68 % -6.24 C
2552 05-03-2004 06:18:58 -1.2 C 67 % -6.53 C
2553 05-03-2004 06:30:57 -1.2 C 66 % -6.73 C
2554 05-03-2004 06:42:57 -1.2 C 64 % -7.13 C
2555 05-03-2004 06:54:01 -1.2 C 64 % -7.13 C
2556 05-03-2004 07:06:01 -1.4 C 65 % -7.12 C
2557 05-03-2004 07:18:01 -1.4 C 63 % -7.52 C
2558 05-03-2004 07:30:01 -1.5 C 64 % -7.41 C
2559 05-03-2004 07:42:02 -1.4 C 64 % -7.32 C
2560 05-03-2004 07:54:00 -1.4 C 63 % -7.52 C
2561 05-03-2004 08:06:00 -1.3 C 64 % -7.22 C
2562 05-03-2004 08:18:58 -1.2 C 63 % -7.33 C
2563 05-03-2004 08:30:57 -1.1 C 63 % -7.24 C
2564 05-03-2004 08:42:57 -0.9 C 61 % -7.46 C
2565 05-03-2004 08:54:01 -0.8 C 60 % -7.58 C
2566 05-03-2004 09:06:01 -0.6 C 61 % -7.18 C
2567 05-03-2004 09:18:01 -0.6 C 61 % -7.18 C
2568 05-03-2004 09:30:01 -0.4 C 60 % -7.2 C
2569 05-03-2004 09:42:01 0.1 C 59 % -6.94 C
2570 05-03-2004 09:54:00 0.6 C 58 % -6.69 C
2571 05-03-2004 10:06:59 1.2 C 56 % -6.59 C
2572 05-03-2004 10:18:58 1.7 C 53 % -6.83 C
2573 05-03-2004 10:30:57 2.2 C 51 % -6.87 C
2574 05-03-2004 10:42:57 2.7 C 50 % -6.66 C
2575 05-03-2004 10:54:01 3.2 C 46 % -7.28 C
Sensor: Nr:Datum:Temp:Feuchte:Taupunkt:
Aussen-T/F 2576 05-03-2004 11:06:01 3.6 C 45 % -7.2 C
2577 05-03-2004 11:18:01 4 C 45 % -6.84 C
2578 05-03-2004 11:30:01 4.8 C 41 % -7.31 C
2579 05-03-2004 11:42:01 5.1 C 39 % -7.69 C
2580 05-03-2004 11:54:01 5.4 C 37 % -8.1 C
2581 05-03-2004 12:06:02 5.8 C 37 % -7.74 C
2582 05-03-2004 12:18:01 6.2 C 35 % -8.1 C
2583 05-03-2004 12:30:01 6.6 C 35 % -7.74 C
2584 05-03-2004 12:42:01 7 C 33 % -8.15 C
2585 05-03-2004 12:54:01 7.5 C 32 % -8.1 C
2586 05-03-2004 13:06:00 7.9 C 30 % -8.58 C
2587 05-03-2004 13:18:59 8 C 28 % -9.37 C
2588 05-03-2004 13:30:57 8.5 C 27 % -9.4 C
2589 05-03-2004 13:42:57 8.7 C 25 % -10.2 C
2590 05-03-2004 13:54:01 9 C 23 % -10.99 C
2591 05-03-2004 14:06:01 9.1 C 20 % -12.64 C
2592 05-03-2004 14:18:01 9.5 C 20 % -12.31 C
2593 05-03-2004 14:30:01 10.1 C 20 % -11.81 C
2594 05-03-2004 14:42:01 10 C 20 % -11.89 C
2595 05-03-2004 14:54:00 9.2 C 20 % -12.56 C
2596 05-03-2004 15:06:00 9 C 20 % -12.72 C
2597 05-03-2004 15:18:58 8.6 C 20 % -13.06 C
2598 05-03-2004 15:30:58 8.3 C 20 % -13.31 C
2599 05-03-2004 15:42:58 8.9 C 20 % -12.81 C
2600 05-03-2004 15:54:01 8.5 C 20 % -13.14 C
Sensor: Nr:Datum:Temp:Feuchte:Taupunkt:
Aussen-T/F 2601 05-03-2004 16:06:01 8.1 C 20 % -13.47 C
2602 05-03-2004 16:18:01 7.8 C 20 % -13.72 C
2603 05-03-2004 16:30:01 7.8 C 20 % -13.72 C
2604 05-03-2004 16:42:01 7.5 C 20 % -13.97 C
2605 05-03-2004 16:54:00 7.4 C 20 % -14.05 C
2606 05-03-2004 17:06:00 7.2 C 20 % -14.22 C
2607 05-03-2004 17:18:58 7.1 C 20 % -14.3 C
2608 05-03-2004 17:30:57 6.9 C 23 % -12.76 C
2609 05-03-2004 17:42:57 6.6 C 25 % -11.99 C
2610 05-03-2004 17:54:02 6.3 C 27 % -11.29 C
2611 05-03-2004 18:06:01 6.2 C 29 % -10.48 C
2612 05-03-2004 18:18:01 5.8 C 29 % -10.83 C
2613 05-03-2004 18:30:01 5.7 C 30 % -10.49 C
2614 05-03-2004 18:42:01 5.6 C 30 % -10.58 C
2615 05-03-2004 18:54:03 5.5 C 31 % -10.25 C
2616 05-03-2004 19:06:02 5.5 C 32 % -9.85 C
2617 05-03-2004 19:18:02 5.6 C 33 % -9.38 C
2618 05-03-2004 19:30:02 5.2 C 32 % -10.12 C
2619 05-03-2004 19:42:02 5.2 C 35 % -8.98 C
2620 05-03-2004 19:54:00 5.1 C 33 % -9.82 C
2621 05-03-2004 20:06:00 5.1 C 35 % -9.07 C
2622 05-03-2004 20:18:59 5.1 C 35 % -9.07 C
2623 05-03-2004 20:30:58 5 C 36 % -8.8 C
2624 05-03-2004 20:42:58 5 C 36 % -8.8 C
2625 05-03-2004 20:54:01 5 C 36 % -8.8 C
Sensor: Nr:Datum:Temp:Feuchte:Taupunkt:
Aussen-T/F 2626 05-03-2004 21:06:00 4.8 C 40 % -7.63 C
2627 05-03-2004 21:18:00 4.3 C 44 % -6.85 C
2628 05-03-2004 21:30:00 4.1 C 47 % -6.18 C
2629 05-03-2004 21:42:00 4.1 C 45 % -6.74 C
2630 05-03-2004 21:54:01 4.1 C 46 % -6.46 C
2631 05-03-2004 22:06:01 3.8 C 47 % -6.45 C
2632 05-03-2004 22:18:01 3.6 C 47 % -6.64 C
2633 05-03-2004 22:30:01 3.7 C 48 % -6.27 C
2634 05-03-2004 22:42:01 3.5 C 49 % -6.19 C
2635 05-03-2004 22:54:01 3.2 C 52 % -5.69 C
2636 05-03-2004 23:06:01 2.6 C 59 % -4.59 C
2637 05-03-2004 23:18:01 2.1 C 65 % -3.78 C
2638 05-03-2004 23:30:01 1.7 C 70 % -3.17 C
2639 05-03-2004 23:42:01 1.5 C 73 % -2.8 C
2640 05-03-2004 23:54:00 1.3 C 74 % -2.81 C
2641 06-03-2004 00:06:00 1.3 C 75 % -2.63 C
2642 06-03-2004 00:18:59 1.2 C 76 % -2.55 C
2643 06-03-2004 00:30:57 1.1 C 76 % -2.65 C
2644 06-03-2004 00:42:57 1 C 77 % -2.57 C
2645 06-03-2004 00:54:01 0.9 C 78 % -2.49 C
2646 06-03-2004 01:06:01 1 C 78 % -2.39 C
2647 06-03-2004 01:18:01 1 C 78 % -2.39 C
2648 06-03-2004 01:30:01 0.6 C 79 % -2.61 C
2649 06-03-2004 01:42:01 0.6 C 80 % -2.44 C
2650 06-03-2004 01:54:00 0.4 C 80 % -2.64 C
Sensor: Nr:Datum:Temp:Feuchte:Taupunkt:
Aussen-T/F 2651 06-03-2004 02:06:59 0.3 C 81 % -2.57 C
2652 06-03-2004 02:18:58 0.3 C 81 % -2.57 C
2653 06-03-2004 02:30:57 0.3 C 81 % -2.57 C
2654 06-03-2004 02:42:57 0.3 C 81 % -2.57 C
2655 06-03-2004 02:55:02 0.3 C 81 % -2.57 C
2656 06-03-2004 03:07:02 0.3 C 81 % -2.57 C
2657 06-03-2004 03:19:02 0.2 C 81 % -2.67 C
2658 06-03-2004 03:31:00 0.2 C 81 % -2.67 C
2659 06-03-2004 03:43:00 0.2 C 81 % -2.67 C
2660 06-03-2004 03:55:00 0.2 C 81 % -2.67 C
2661 06-03-2004 04:07:00 0.2 C 81 % -2.67 C
2662 06-03-2004 04:19:59 0.2 C 81 % -2.67 C
2663 06-03-2004 04:31:58 0.2 C 80 % -2.83 C
2664 06-03-2004 04:43:58 0.2 C 80 % -2.83 C
2665 06-03-2004 04:55:01 0.2 C 80 % -2.83 C
2666 06-03-2004 05:07:01 0.2 C 80 % -2.83 C
2667 06-03-2004 05:19:00 0.3 C 80 % -2.73 C
2668 06-03-2004 05:31:00 0.3 C 80 % -2.73 C
2669 06-03-2004 05:43:00 0.3 C 80 % -2.73 C
2670 06-03-2004 05:55:01 0.3 C 80 % -2.73 C
2671 06-03-2004 06:07:01 0.3 C 80 % -2.73 C
2672 06-03-2004 06:19:01 0.3 C 80 % -2.73 C
2673 06-03-2004 06:31:01 0.4 C 80 % -2.64 C
2674 06-03-2004 06:43:01 0.3 C 80 % -2.73 C
2675 06-03-2004 06:55:00 0.3 C 80 % -2.73 C
Sensor: Nr:Datum:Temp:Feuchte:Taupunkt:
Aussen-T/F 2676 06-03-2004 07:07:59 0.4 C 79 % -2.81 C
2677 06-03-2004 07:19:58 0.4 C 79 % -2.81 C
2678 06-03-2004 07:31:57 0.4 C 79 % -2.81 C
2679 06-03-2004 07:43:57 0.4 C 79 % -2.81 C
2680 06-03-2004 07:55:01 0.4 C 79 % -2.81 C
2681 06-03-2004 08:07:01 0.4 C 79 % -2.81 C
2682 06-03-2004 08:19:01 0.5 C 79 % -2.71 C
2683 06-03-2004 08:31:01 0.5 C 79 % -2.71 C
2684 06-03-2004 08:43:01 0.4 C 80 % -2.64 C
2685 06-03-2004 08:55:01 0.5 C 80 % -2.54 C
2686 06-03-2004 09:07:02 0.6 C 81 % -2.28 C
2687 06-03-2004 09:19:01 0.6 C 81 % -2.28 C
2688 06-03-2004 09:31:01 0.6 C 81 % -2.28 C
2689 06-03-2004 09:43:01 0.7 C 81 % -2.18 C
2690 06-03-2004 09:55:00 0.7 C 81 % -2.18 C
2691 06-03-2004 10:07:00 0.9 C 81 % -1.98 C
2692 06-03-2004 10:19:59 0.9 C 81 % -1.98 C
2693 06-03-2004 10:31:57 0.9 C 81 % -1.98 C
2694 06-03-2004 10:43:57 1 C 80 % -2.05 C
2695 06-03-2004 10:55:01 1 C 80 % -2.05 C
2696 06-03-2004 11:07:01 1.2 C 80 % -1.86 C
2697 06-03-2004 11:19:01 1.4 C 80 % -1.66 C
2698 06-03-2004 11:31:01 1.4 C 81 % -1.49 C
2699 06-03-2004 11:43:01 1.2 C 81 % -1.69 C
2700 06-03-2004 11:55:00 1.3 C 81 % -1.59 C
Sensor: Nr:Datum:Temp:Feuchte:Taupunkt:
Aussen-T/F 2701 06-03-2004 12:07:00 1.2 C 81 % -1.69 C
2702 06-03-2004 12:19:59 1.2 C 82 % -1.52 C
2703 06-03-2004 12:31:58 1.3 C 82 % -1.43 C
2704 06-03-2004 12:43:58 1.4 C 82 % -1.33 C
2705 06-03-2004 12:55:01 1.3 C 82 % -1.43 C
2706 06-03-2004 13:07:01 1.2 C 82 % -1.52 C
2707 06-03-2004 13:19:01 1.2 C 82 % -1.52 C
2708 06-03-2004 13:31:01 1.2 C 83 % -1.36 C
2709 06-03-2004 13:43:01 1.3 C 83 % -1.26 C
2710 06-03-2004 13:55:01 1.5 C 84 % -0.9 C
2711 06-03-2004 14:07:02 1.7 C 84 % -0.71 C
2712 06-03-2004 14:19:01 1.8 C 84 % -0.61 C
2713 06-03-2004 14:31:01 1.8 C 84 % -0.61 C
2714 06-03-2004 14:43:01 1.9 C 83 % -0.67 C
2715 06-03-2004 14:55:01 1.9 C 83 % -0.67 C
2716 06-03-2004 15:07:00 2 C 83 % -0.58 C
2717 06-03-2004 15:19:59 2.2 C 82 % -0.55 C
2718 06-03-2004 15:31:58 2.4 C 82 % -0.35 C
2719 06-03-2004 15:43:58 2.4 C 81 % -0.52 C
2720 06-03-2004 15:55:01 2.4 C 81 % -0.52 C
2721 06-03-2004 16:07:01 3 C 79 % -0.28 C
2722 06-03-2004 16:19:01 3.4 C 76 % -0.42 C
2723 06-03-2004 16:31:01 3.4 C 74 % -0.78 C
2724 06-03-2004 16:43:01 3.1 C 75 % -0.89 C
2725 06-03-2004 16:55:00 3.1 C 75 % -0.89 C
Sensor: Nr:Datum:Temp:Feuchte:Taupunkt:
Aussen-T/F 2726 06-03-2004 17:07:00 3.1 C 76 % -0.71 C
2727 06-03-2004 17:19:58 3.1 C 76 % -0.71 C
2728 06-03-2004 17:31:57 2.8 C 78 % -0.65 C
2729 06-03-2004 17:43:57 2.7 C 78 % -0.74 C
2730 06-03-2004 17:55:01 2.6 C 79 % -0.67 C
2731 06-03-2004 18:07:02 2.4 C 79 % -0.86 C
2732 06-03-2004 18:19:02 2.3 C 80 % -0.79 C
2733 06-03-2004 18:31:01 2.2 C 81 % -0.71 C
2734 06-03-2004 18:43:01 2.2 C 81 % -0.71 C
2735 06-03-2004 18:55:00 2.3 C 81 % -0.62 C
2736 06-03-2004 19:07:00 2.5 C 78 % -0.94 C
2737 06-03-2004 19:19:59 2.3 C 78 % -1.13 C
2738 06-03-2004 19:31:57 2.3 C 79 % -0.96 C
2739 06-03-2004 19:43:57 2.3 C 79 % -0.96 C
2740 06-03-2004 19:55:01 2.3 C 79 % -0.96 C
2741 06-03-2004 20:07:02 2.3 C 79 % -0.96 C
2742 06-03-2004 20:19:01 2.4 C 78 % -1.03 C
2743 06-03-2004 20:31:01 2.4 C 78 % -1.03 C
2744 06-03-2004 20:43:01 2.5 C 78 % -0.94 C
2745 06-03-2004 20:55:00 2.4 C 78 % -1.03 C
2746 06-03-2004 21:07:00 2.5 C 77 % -1.11 C
2747 06-03-2004 21:19:58 2.7 C 77 % -0.92 C
2748 06-03-2004 21:31:57 2.6 C 76 % -1.19 C
2749 06-03-2004 21:43:57 2.6 C 76 % -1.19 C
2750 06-03-2004 21:55:01 2.6 C 76 % -1.19 C
Sensor: Nr:Datum:Temp:Feuchte:Taupunkt:
Aussen-T/F 2751 06-03-2004 22:07:01 2.5 C 77 % -1.11 C
2752 06-03-2004 22:19:01 2.5 C 78 % -0.94 C
2753 06-03-2004 22:31:01 2.5 C 78 % -0.94 C
2754 06-03-2004 22:43:01 2.5 C 78 % -0.94 C
2755 06-03-2004 22:55:01 2.4 C 78 % -1.03 C
2756 06-03-2004 23:07:01 2.7 C 74 % -1.46 C
2757 06-03-2004 23:19:01 2.6 C 70 % -2.31 C
2758 06-03-2004 23:31:01 2.5 C 69 % -2.6 C
2759 06-03-2004 23:43:01 2.4 C 69 % -2.69 C
2760 06-03-2004 23:55:00 2.3 C 71 % -2.4 C
2761 07-03-2004 00:07:00 2.2 C 72 % -2.31 C
2762 07-03-2004 00:19:59 2.2 C 71 % -2.5 C
2763 07-03-2004 00:31:57 2.2 C 71 % -2.5 C
2764 07-03-2004 00:43:57 2.2 C 72 % -2.31 C
2765 07-03-2004 00:55:01 1.9 C 74 % -2.23 C
2766 07-03-2004 01:07:01 1.8 C 75 % -2.15 C
2767 07-03-2004 01:19:01 1.8 C 74 % -2.33 C
2768 07-03-2004 01:31:01 1.8 C 73 % -2.51 C
2769 07-03-2004 01:43:01 1.5 C 72 % -2.99 C
2770 07-03-2004 01:55:00 1.2 C 73 % -3.09 C
2771 07-03-2004 02:06:59 1.3 C 74 % -2.81 C
2772 07-03-2004 02:19:58 1.3 C 73 % -2.99 C
2773 07-03-2004 02:31:57 1.5 C 72 % -2.99 C
2774 07-03-2004 02:43:57 1.5 C 71 % -3.17 C
2775 07-03-2004 02:56:02 1.4 C 72 % -3.08 C
Sensor: Nr:Datum:Temp:Feuchte:Taupunkt:
Aussen-T/F 2776 07-03-2004 03:08:02 1.6 C 71 % -3.08 C
2777 07-03-2004 03:20:02 1.7 C 70 % -3.17 C
2778 07-03-2004 03:32:00 1.8 C 70 % -3.07 C
2779 07-03-2004 03:44:00 1.9 C 69 % -3.17 C
2780 07-03-2004 03:56:00 1.8 C 70 % -3.07 C
2781 07-03-2004 04:08:00 1.9 C 70 % -2.98 C
2782 07-03-2004 04:20:59 2 C 70 % -2.88 C
2783 07-03-2004 04:32:57 2 C 70 % -2.88 C
2784 07-03-2004 04:44:01 2.2 C 70 % -2.69 C
2785 07-03-2004 04:56:01 2.2 C 70 % -2.69 C
2786 07-03-2004 05:08:01 2.3 C 70 % -2.59 C
2787 07-03-2004 05:20:01 2.3 C 70 % -2.59 C
2788 07-03-2004 05:32:01 2.2 C 71 % -2.5 C
2789 07-03-2004 05:44:01 1.8 C 75 % -2.15 C
2790 07-03-2004 05:56:00 1.5 C 79 % -1.74 C
2791 07-03-2004 06:08:00 1.1 C 80 % -1.96 C
2792 07-03-2004 06:20:58 1 C 83 % -1.55 C
2793 07-03-2004 06:32:57 0.8 C 85 % -1.43 C
2794 07-03-2004 06:44:01 0.8 C 86 % -1.27 C
2795 07-03-2004 06:56:01 0.9 C 86 % -1.17 C
2796 07-03-2004 07:08:01 1 C 86 % -1.07 C
2797 07-03-2004 07:20:01 1.2 C 86 % -0.88 C
2798 07-03-2004 07:32:01 1.2 C 86 % -0.88 C
2799 07-03-2004 07:44:01 1.4 C 86 % -0.68 C
2800 07-03-2004 07:56:01 1.6 C 86 % -0.48 C
Sensor: Nr:Datum:Temp:Feuchte:Taupunkt:
Aussen-T/F 2801 07-03-2004 08:08:01 1.8 C 85 % -0.45 C
2802 07-03-2004 08:20:01 2 C 85 % -0.25 C
2803 07-03-2004 08:32:01 2.1 C 85 % -0.15 C
2804 07-03-2004 08:44:01 2.2 C 85 % -0.05 C
2805 07-03-2004 08:56:01 2.3 C 84 % -0.12 C
2806 07-03-2004 09:08:00 2.4 C 84 % -0.02 C
2807 07-03-2004 09:20:59 2.4 C 83 % -0.18 C
2808 07-03-2004 09:32:57 2.6 C 83 % 0.01 C
2809 07-03-2004 09:44:01 3 C 82 % 0.24 C
2810 07-03-2004 09:56:01 3.1 C 82 % 0.33 C
2811 07-03-2004 10:08:01 3 C 82 % 0.24 C
2812 07-03-2004 10:20:01 3 C 82 % 0.24 C
2813 07-03-2004 10:32:01 3.2 C 82 % 0.43 C
2814 07-03-2004 10:44:01 3.4 C 83 % 0.79 C
2815 07-03-2004 10:56:00 3.5 C 83 % 0.89 C
2816 07-03-2004 11:08:59 3.8 C 83 % 1.19 C
2817 07-03-2004 11:20:58 4 C 80 % 0.87 C
2818 07-03-2004 11:32:58 4.4 C 80 % 1.26 C
2819 07-03-2004 11:44:01 4.8 C 76 % 0.94 C
2820 07-03-2004 11:56:01 5.3 C 72 % 0.67 C
2821 07-03-2004 12:08:01 5.5 C 70 % 0.48 C
2822 07-03-2004 12:20:01 5.7 C 69 % 0.47 C
2823 07-03-2004 12:32:01 5.6 C 66 % -0.24 C
2824 07-03-2004 12:44:01 5.9 C 66 % 0.05 C
2825 07-03-2004 12:56:01 6.3 C 63 % -0.21 C
Sensor: Nr:Datum:Temp:Feuchte:Taupunkt:
Aussen-T/F 2826 07-03-2004 13:08:00 6.8 C 61 % -0.18 C
2827 07-03-2004 13:20:59 6.5 C 60 % -0.69 C
2828 07-03-2004 13:32:57 7.1 C 59 % -0.36 C
2829 07-03-2004 13:44:01 6.9 C 57 % -1.01 C
2830 07-03-2004 13:56:01 7.6 C 56 % -0.6 C
2831 07-03-2004 14:08:01 7.5 C 54 % -1.19 C
2832 07-03-2004 14:20:01 7.8 C 54 % -0.91 C
2833 07-03-2004 14:32:01 7.5 C 54 % -1.19 C
2834 07-03-2004 14:44:01 7.5 C 54 % -1.19 C
2835 07-03-2004 14:56:00 7.2 C 56 % -0.98 C
2836 07-03-2004 15:08:00 7 C 56 % -1.16 C
2837 07-03-2004 15:20:59 6.9 C 57 % -1.01 C
2838 07-03-2004 15:32:57 6.9 C 57 % -1.01 C
2839 07-03-2004 15:44:02 7 C 56 % -1.16 C
2840 07-03-2004 15:56:02 7.1 C 55 % -1.31 C
2841 07-03-2004 16:08:01 7.1 C 56 % -1.07 C
2842 07-03-2004 16:20:01 6.9 C 57 % -1.01 C
2843 07-03-2004 16:32:01 6.9 C 57 % -1.01 C
2844 07-03-2004 16:44:01 7 C 57 % -0.92 C
2845 07-03-2004 16:56:01 6.9 C 58 % -0.78 C
2846 07-03-2004 17:08:00 6.8 C 57 % -1.11 C
2847 07-03-2004 17:20:58 6.2 C 60 % -0.97 C
2848 07-03-2004 17:32:57 5.9 C 64 % -0.38 C
2849 07-03-2004 17:44:01 5.7 C 65 % -0.35 C
2850 07-03-2004 17:56:01 5.5 C 66 % -0.33 C
Sensor: Nr:Datum:Temp:Feuchte:Taupunkt:
Aussen-T/F 2851 07-03-2004 18:08:02 5.2 C 70 % 0.19 C
2852 07-03-2004 18:20:02 4.9 C 74 % 0.67 C
2853 07-03-2004 18:32:01 4.6 C 77 % 0.92 C
2854 07-03-2004 18:44:01 4.2 C 80 % 1.07 C
2855 07-03-2004 18:56:01 4.2 C 80 % 1.07 C
2856 07-03-2004 19:08:01 4.2 C 80 % 1.07 C
2857 07-03-2004 19:20:59 4.2 C 80 % 1.07 C
2858 07-03-2004 19:32:57 4.2 C 81 % 1.24 C
2859 07-03-2004 19:44:01 4.2 C 81 % 1.24 C
2860 07-03-2004 19:56:01 4.1 C 81 % 1.14 C
2861 07-03-2004 20:08:01 3.9 C 81 % 0.95 C
2862 07-03-2004 20:20:01 3.6 C 81 % 0.65 C
2863 07-03-2004 20:32:01 3.6 C 82 % 0.82 C
2864 07-03-2004 20:44:01 3.5 C 82 % 0.72 C
2865 07-03-2004 20:56:00 3.6 C 83 % 0.99 C
2866 07-03-2004 21:08:00 3.6 C 82 % 0.82 C
2867 07-03-2004 21:20:59 3.7 C 82 % 0.92 C
2868 07-03-2004 21:32:58 3.8 C 82 % 1.02 C
2869 07-03-2004 21:44:01 3.6 C 82 % 0.82 C
2870 07-03-2004 21:56:01 3.2 C 81 % 0.26 C
2871 07-03-2004 22:08:00 3.1 C 81 % 0.16 C
2872 07-03-2004 22:20:00 3.1 C 81 % 0.16 C
2873 07-03-2004 22:32:00 3.1 C 82 % 0.33 C
2874 07-03-2004 22:44:00 3.1 C 82 % 0.33 C
2875 07-03-2004 22:56:01 3.2 C 83 % 0.6 C
Sensor: Nr:Datum:Temp:Feuchte:Taupunkt:
Aussen-T/F 2876 07-03-2004 23:08:01 3.4 C 83 % 0.79 C
2877 07-03-2004 23:20:01 3.5 C 83 % 0.89 C
2878 07-03-2004 23:32:01 3.5 C 82 % 0.72 C
2879 07-03-2004 23:44:01 3.4 C 82 % 0.63 C
2880 07-03-2004 23:56:01 3.3 C 82 % 0.53 C
2881 08-03-2004 00:08:01 3.2 C 82 % 0.43 C
2882 08-03-2004 00:20:01 3.3 C 82 % 0.53 C
2883 08-03-2004 00:32:01 3.2 C 81 % 0.26 C
2884 08-03-2004 00:44:01 3 C 81 % 0.07 C
2885 08-03-2004 00:56:00 3.1 C 81 % 0.16 C
2886 08-03-2004 01:08:59 3 C 81 % 0.07 C
2887 08-03-2004 01:20:58 3.2 C 81 % 0.26 C
2888 08-03-2004 01:32:57 3.1 C 81 % 0.16 C
2889 08-03-2004 01:44:01 3.1 C 81 % 0.16 C
2890 08-03-2004 01:56:01 3.1 C 80 % -0.01 C
2891 08-03-2004 02:08:01 3.1 C 80 % -0.01 C
2892 08-03-2004 02:20:01 3.2 C 80 % 0.09 C
2893 08-03-2004 02:32:00 3.2 C 80 % 0.09 C
2894 08-03-2004 02:44:00 3.2 C 80 % 0.09 C
2895 08-03-2004 02:57:03 3.1 C 80 % -0.01 C
2896 08-03-2004 03:09:03 3 C 80 % -0.1 C
2897 08-03-2004 03:21:03 3.1 C 81 % 0.16 C
2898 08-03-2004 03:33:00 3.1 C 81 % 0.16 C
2899 08-03-2004 03:45:00 3.1 C 81 % 0.16 C
2900 08-03-2004 03:57:00 3.1 C 81 % 0.16 C
Sensor: Nr:Datum:Temp:Feuchte:Taupunkt:
Aussen-T/F 2901 08-03-2004 04:09:00 3.1 C 81 % 0.16 C
2902 08-03-2004 04:21:59 2.8 C 82 % 0.04 C
2903 08-03-2004 04:33:58 3 C 82 % 0.24 C
2904 08-03-2004 04:45:01 2.9 C 82 % 0.14 C
2905 08-03-2004 04:57:01 2.8 C 82 % 0.04 C
2906 08-03-2004 05:09:00 2.9 C 83 % 0.31 C
2907 08-03-2004 05:21:00 3.1 C 82 % 0.33 C
2908 08-03-2004 05:33:00 3.1 C 82 % 0.33 C
2909 08-03-2004 05:45:01 3.1 C 82 % 0.33 C
2910 08-03-2004 05:57:01 2.9 C 83 % 0.31 C
2911 08-03-2004 06:09:01 3.1 C 82 % 0.33 C
2912 08-03-2004 06:21:01 2.8 C 82 % 0.04 C
2913 08-03-2004 06:33:01 2.8 C 83 % 0.21 C
2914 08-03-2004 06:45:01 2.8 C 82 % 0.04 C
2915 08-03-2004 06:57:01 2.8 C 81 % -0.13 C
2916 08-03-2004 07:09:01 2.7 C 80 % -0.4 C
2917 08-03-2004 07:21:01 2.7 C 78 % -0.74 C
2918 08-03-2004 07:33:01 2.5 C 75 % -1.47 C
2919 08-03-2004 07:45:01 2.4 C 74 % -1.75 C
2920 08-03-2004 07:57:01 2.3 C 72 % -2.22 C
2921 08-03-2004 08:09:00 2.2 C 71 % -2.5 C
2922 08-03-2004 08:21:59 2.3 C 71 % -2.4 C
2923 08-03-2004 08:33:58 2.2 C 70 % -2.69 C
2924 08-03-2004 08:45:01 2.3 C 70 % -2.59 C
2925 08-03-2004 08:57:01 2.4 C 69 % -2.69 C
Sensor: Nr:Datum:Temp:Feuchte:Taupunkt:
Aussen-T/F 2926 08-03-2004 09:09:01 2.4 C 68 % -2.89 C
2927 08-03-2004 09:21:01 2.4 C 66 % -3.29 C
2928 08-03-2004 09:33:01 2.4 C 65 % -3.49 C
2929 08-03-2004 09:45:00 2.4 C 65 % -3.49 C
2930 08-03-2004 09:57:00 2.6 C 65 % -3.3 C
2931 08-03-2004 10:09:00 3.1 C 64 % -3.03 C
2932 08-03-2004 10:21:58 3.4 C 60 % -3.61 C
2933 08-03-2004 10:33:57 3.6 C 60 % -3.42 C
2934 08-03-2004 10:45:01 3.6 C 58 % -3.87 C
2935 08-03-2004 10:57:01 3.5 C 57 % -4.2 C
2936 08-03-2004 11:09:01 3.7 C 58 % -3.78 C
2937 08-03-2004 11:21:01 4 C 52 % -4.95 C
2938 08-03-2004 11:33:01 4.3 C 52 % -4.67 C
2939 08-03-2004 11:45:01 4 C 50 % -5.46 C
2940 08-03-2004 11:57:01 4 C 48 % -6 C
2941 08-03-2004 12:09:00 4.6 C 48 % -5.45 C
2942 08-03-2004 12:21:58 4.6 C 48 % -5.45 C
2943 08-03-2004 12:33:57 5.1 C 46 % -5.54 C
2944 08-03-2004 12:45:01 5.2 C 42 % -6.64 C
2945 08-03-2004 12:57:01 5 C 42 % -6.82 C
2946 08-03-2004 13:09:01 5.5 C 40 % -7 C
2947 08-03-2004 13:21:01 6.3 C 40 % -6.28 C
2948 08-03-2004 13:33:01 6 C 39 % -6.88 C
2949 08-03-2004 13:45:00 6.1 C 37 % -7.47 C
2950 08-03-2004 13:57:00 6.5 C 35 % -7.83 C
Sensor: Nr:Datum:Temp:Feuchte:Taupunkt:
Aussen-T/F 2951 08-03-2004 14:09:59 7 C 33 % -8.15 C
2952 08-03-2004 14:21:58 7.2 C 31 % -8.77 C
2953 08-03-2004 14:33:57 7.6 C 32 % -8.01 C
2954 08-03-2004 14:45:01 7.9 C 30 % -8.58 C
2955 08-03-2004 14:57:01 8.7 C 30 % -7.88 C
2956 08-03-2004 15:09:01 8.9 C 26 % -9.53 C
2957 08-03-2004 15:21:01 9 C 26 % -9.45 C
2958 08-03-2004 15:33:01 9.2 C 20 % -12.56 C
2959 08-03-2004 15:45:01 9 C 20 % -12.72 C
2960 08-03-2004 15:57:01 9.5 C 20 % -12.31 C
2961 08-03-2004 16:09:01 9.8 C 20 % -12.06 C
2962 08-03-2004 16:21:01 9.2 C 20 % -12.56 C
2963 08-03-2004 16:33:01 9.5 C 20 % -12.31 C
2964 08-03-2004 16:45:01 8.7 C 20 % -12.97 C
2965 08-03-2004 16:57:01 8.7 C 20 % -12.97 C
2966 08-03-2004 17:09:00 8.9 C 23 % -11.07 C
2967 08-03-2004 17:21:59 7.9 C 23 % -11.92 C
2968 08-03-2004 17:33:58 7.6 C 25 % -11.14 C
2969 08-03-2004 17:45:00 7.5 C 20 % -13.97 C
2970 08-03-2004 17:57:00 7.1 C 20 % -14.3 C
2971 08-03-2004 18:09:00 6.2 C 26 % -11.85 C
2972 08-03-2004 18:21:58 5.4 C 31 % -10.34 C
2973 08-03-2004 18:33:57 5.1 C 34 % -9.44 C
2974 08-03-2004 18:45:01 4.6 C 37 % -8.81 C
2975 08-03-2004 18:57:01 4.4 C 39 % -8.32 C
Sensor: Nr:Datum:Temp:Feuchte:Taupunkt:
Aussen-T/F 2976 08-03-2004 19:09:01 4.3 C 39 % -8.41 C
2977 08-03-2004 19:21:01 4.2 C 40 % -8.17 C
2978 08-03-2004 19:33:02 4 C 41 % -8.04 C
2979 08-03-2004 19:45:00 3.8 C 43 % -7.61 C
2980 08-03-2004 19:57:00 3.6 C 45 % -7.2 C
2981 08-03-2004 20:09:00 3.4 C 46 % -7.1 C
2982 08-03-2004 20:21:58 3.2 C 48 % -6.73 C
2983 08-03-2004 20:33:57 3 C 49 % -6.65 C
2984 08-03-2004 20:45:01 2.8 C 50 % -6.57 C
2985 08-03-2004 20:57:01 2.5 C 54 % -5.85 C
2986 08-03-2004 21:09:01 2.4 C 54 % -5.94 C
2987 08-03-2004 21:21:01 2.1 C 56 % -5.74 C
2988 08-03-2004 21:33:01 1.8 C 58 % -5.57 C
2989 08-03-2004 21:45:00 1.6 C 58 % -5.75 C
2990 08-03-2004 21:57:00 1.5 C 61 % -5.19 C
2991 08-03-2004 22:09:00 1.3 C 61 % -5.37 C
2992 08-03-2004 22:21:58 1.3 C 60 % -5.59 C
2993 08-03-2004 22:33:57 1.4 C 59 % -5.72 C
2994 08-03-2004 22:45:01 1.4 C 60 % -5.5 C
2995 08-03-2004 22:57:01 1.3 C 60 % -5.59 C
2996 08-03-2004 23:09:01 1.3 C 60 % -5.59 C
2997 08-03-2004 23:21:01 1.3 C 61 % -5.37 C
2998 08-03-2004 23:33:01 1.4 C 61 % -5.28 C
2999 08-03-2004 23:45:01 1.4 C 61 % -5.28 C
3000 08-03-2004 23:57:01 1.7 C 62 % -4.78 C
Sensor: Nr:Datum:Temp:Feuchte:Taupunkt:
Aussen-T/F 3001 09-03-2004 00:09:01 1.6 C 61 % -5.09 C
3002 09-03-2004 00:21:01 1.5 C 61 % -5.19 C
3003 09-03-2004 00:33:01 1.2 C 63 % -5.05 C
3004 09-03-2004 00:45:00 1.2 C 64 % -4.84 C
3005 09-03-2004 00:57:00 1.5 C 64 % -4.55 C
3006 09-03-2004 01:09:00 1.1 C 67 % -4.33 C
3007 09-03-2004 01:21:59 1 C 74 % -3.1 C
3008 09-03-2004 01:33:57 0.8 C 78 % -2.59 C
3009 09-03-2004 01:45:01 0.7 C 79 % -2.51 C
3010 09-03-2004 01:57:01 0.8 C 81 % -2.08 C
3011 09-03-2004 02:09:01 1.1 C 81 % -1.79 C
3012 09-03-2004 02:21:01 1.2 C 83 % -1.36 C
3013 09-03-2004 02:33:01 1.2 C 82 % -1.52 C
3014 09-03-2004 02:46:01 1.1 C 82 % -1.62 C
3015 09-03-2004 02:58:01 1.2 C 82 % -1.52 C
3016 09-03-2004 03:10:00 1 C 81 % -1.88 C
3017 09-03-2004 03:22:00 1.1 C 82 % -1.62 C
3018 09-03-2004 03:34:01 1 C 82 % -1.72 C
3019 09-03-2004 03:46:01 1.2 C 82 % -1.52 C
3020 09-03-2004 03:58:01 1.3 C 82 % -1.43 C
3021 09-03-2004 04:10:00 1 C 81 % -1.88 C
3022 09-03-2004 04:22:00 0.4 C 81 % -2.47 C
3023 09-03-2004 04:34:00 0.3 C 82 % -2.4 C
3024 09-03-2004 04:46:01 0.3 C 83 % -2.24 C
3025 09-03-2004 04:58:01 0.3 C 84 % -2.08 C
Sensor: Nr:Datum:Temp:Feuchte:Taupunkt:
Aussen-T/F 3026 09-03-2004 05:10:01 0.4 C 84 % -1.98 C
3027 09-03-2004 05:22:01 0.4 C 84 % -1.98 C
3028 09-03-2004 05:34:00 0.4 C 84 % -1.98 C
3029 09-03-2004 05:46:01 0.4 C 84 % -1.98 C
3030 09-03-2004 05:58:01 0.3 C 81 % -2.57 C
3031 09-03-2004 06:10:01 0.3 C 80 % -2.73 C
3032 09-03-2004 06:22:01 0.3 C 80 % -2.73 C
3033 09-03-2004 06:34:01 0.2 C 80 % -2.83 C
3034 09-03-2004 06:46:00 0.1 C 81 % -2.76 C
3035 09-03-2004 06:58:00 0 C 80 % -3.03 C
3036 09-03-2004 07:10:00 0 C 80 % -3.03 C
3037 09-03-2004 07:22:58 0.1 C 81 % -2.76 C
3038 09-03-2004 07:34:57 0.1 C 80 % -2.93 C
3039 09-03-2004 07:46:01 0.2 C 80 % -2.83 C
3040 09-03-2004 07:58:01 0.2 C 80 % -2.83 C
3041 09-03-2004 08:10:01 0.2 C 80 % -2.83 C
3042 09-03-2004 08:22:01 0.4 C 80 % -2.64 C
3043 09-03-2004 08:34:01 0.5 C 80 % -2.54 C
3044 09-03-2004 08:46:01 0.4 C 79 % -2.81 C
3045 09-03-2004 08:58:01 0.2 C 79 % -3 C
3046 09-03-2004 09:10:01 0 C 79 % -3.2 C
3047 09-03-2004 09:22:01 0 C 78 % -3.37 C
3048 09-03-2004 09:34:01 0.2 C 75 % -3.69 C
3049 09-03-2004 09:46:00 0.5 C 73 % -3.76 C
3050 09-03-2004 09:58:00 0.7 C 70 % -4.13 C
Sensor: Nr:Datum:Temp:Feuchte:Taupunkt:
Aussen-T/F 3051 09-03-2004 10:10:00 1.2 C 65 % -4.63 C
3052 09-03-2004 10:22:59 1.6 C 63 % -4.67 C
3053 09-03-2004 10:34:58 2.2 C 58 % -5.19 C
3054 09-03-2004 10:46:01 2 C 56 % -5.84 C
3055 09-03-2004 10:58:01 1.8 C 58 % -5.57 C
3056 09-03-2004 11:10:01 1.7 C 56 % -6.12 C
3057 09-03-2004 11:22:01 2.1 C 55 % -5.98 C
3058 09-03-2004 11:34:01 2.4 C 53 % -6.18 C
3059 09-03-2004 11:46:00 2.8 C 49 % -6.83 C
3060 09-03-2004 11:58:00 2.9 C 51 % -6.22 C
3061 09-03-2004 12:10:00 4 C 51 % -5.2 C
3062 09-03-2004 12:22:58 4 C 46 % -6.55 C
3063 09-03-2004 12:34:57 4 C 48 % -6 C
3064 09-03-2004 12:46:01 4.1 C 47 % -6.18 C
3065 09-03-2004 12:58:01 4 C 47 % -6.27 C
3066 09-03-2004 13:10:01 3.9 C 49 % -5.82 C
3067 09-03-2004 13:22:01 4.3 C 47 % -6 C
3068 09-03-2004 13:34:01 4.7 C 44 % -6.49 C
3069 09-03-2004 13:46:00 4.7 C 41 % -7.4 C
3070 09-03-2004 13:58:00 4.8 C 43 % -6.7 C
3071 09-03-2004 14:10:59 4.7 C 42 % -7.09 C
3072 09-03-2004 14:22:58 4.8 C 43 % -6.7 C
3073 09-03-2004 14:34:57 4.9 C 43 % -6.61 C
3074 09-03-2004 14:46:01 4.8 C 43 % -6.7 C
3075 09-03-2004 14:58:01 5.1 C 42 % -6.73 C
Sensor: Nr:Datum:Temp:Feuchte:Taupunkt:
Aussen-T/F 3076 09-03-2004 15:10:01 5.1 C 40 % -7.36 C
3077 09-03-2004 15:22:01 4.8 C 39 % -7.96 C
3078 09-03-2004 15:34:01 4.6 C 41 % -7.49 C
3079 09-03-2004 15:46:01 4.5 C 41 % -7.58 C
3080 09-03-2004 15:58:01 4.5 C 40 % -7.9 C
3081 09-03-2004 16:10:01 4.8 C 39 % -7.96 C
3082 09-03-2004 16:22:01 5 C 37 % -8.45 C
3083 09-03-2004 16:34:01 4.7 C 38 % -8.38 C
3084 09-03-2004 16:46:01 4.3 C 38 % -8.74 C
3085 09-03-2004 16:58:01 4.5 C 39 % -8.23 C
3086 09-03-2004 17:10:00 4.4 C 41 % -7.68 C
3087 09-03-2004 17:22:58 3.9 C 40 % -8.44 C
3088 09-03-2004 17:34:57 3.8 C 40 % -8.53 C
3089 09-03-2004 17:46:01 3.6 C 40 % -8.71 C
3090 09-03-2004 17:58:01 3.5 C 42 % -8.18 C
3091 09-03-2004 18:10:02 3.2 C 42 % -8.45 C
3092 09-03-2004 18:22:02 2.9 C 48 % -7.01 C
3093 09-03-2004 18:34:02 2.7 C 46 % -7.74 C
3094 09-03-2004 18:46:03 2.4 C 48 % -7.47 C
3095 09-03-2004 18:58:03 2.2 C 49 % -7.39 C
3096 09-03-2004 19:10:01 2 C 50 % -7.31 C
3097 09-03-2004 19:22:59 1.7 C 52 % -7.08 C
3098 09-03-2004 19:34:58 1.3 C 53 % -7.21 C
3099 09-03-2004 19:46:02 1 C 54 % -7.24 C
3100 09-03-2004 19:58:02 0.7 C 58 % -6.6 C
Sensor: Nr:Datum:Temp:Feuchte:Taupunkt:
Aussen-T/F 3101 09-03-2004 20:10:01 0.4 C 59 % -6.66 C
3102 09-03-2004 20:22:01 0.3 C 61 % -6.32 C
3103 09-03-2004 20:34:01 0.1 C 62 % -6.3 C
3104 09-03-2004 20:46:01 0.1 C 63 % -6.09 C
3105 09-03-2004 20:58:01 0.1 C 64 % -5.88 C
3106 09-03-2004 21:10:01 -0.2 C 65 % -5.97 C
3107 09-03-2004 21:22:01 -0.3 C 65 % -6.07 C
3108 09-03-2004 21:34:01 -0.4 C 66 % -5.96 C
3109 09-03-2004 21:46:00 -0.3 C 65 % -6.07 C
3110 09-03-2004 21:58:00 -0.3 C 64 % -6.27 C
3111 09-03-2004 22:10:00 -0.3 C 64 % -6.27 C
3112 09-03-2004 22:22:59 -0.3 C 65 % -6.07 C
3113 09-03-2004 22:34:57 -0.2 C 65 % -5.97 C
3114 09-03-2004 22:46:01 -0.4 C 65 % -6.16 C
3115 09-03-2004 22:58:01 -0.4 C 66 % -5.96 C
3116 09-03-2004 23:10:01 -0.5 C 66 % -6.06 C
3117 09-03-2004 23:22:01 -0.6 C 66 % -6.16 C
3118 09-03-2004 23:34:01 -0.8 C 67 % -6.15 C
3119 09-03-2004 23:46:00 -0.7 C 68 % -5.86 C
3120 09-03-2004 23:58:00 -0.9 C 68 % -6.05 C
3121 10-03-2004 00:09:59 -0.6 C 69 % -5.57 C
3122 10-03-2004 00:22:58 -0.6 C 69 % -5.57 C
3123 10-03-2004 00:34:57 -0.7 C 69 % -5.67 C
3124 10-03-2004 00:46:01 -0.7 C 69 % -5.67 C
3125 10-03-2004 00:58:01 -0.5 C 70 % -5.29 C
Sensor: Nr:Datum:Temp:Feuchte:Taupunkt:
Aussen-T/F 3126 10-03-2004 01:10:01 -0.5 C 68 % -5.67 C
3127 10-03-2004 01:22:01 -0.7 C 69 % -5.67 C
3128 10-03-2004 01:34:01 -0.8 C 70 % -5.58 C
3129 10-03-2004 01:46:01 -0.7 C 71 % -5.29 C
3130 10-03-2004 01:58:01 -0.5 C 71 % -5.1 C
3131 10-03-2004 02:10:01 -0.4 C 71 % -5.01 C
3132 10-03-2004 02:22:01 -0.3 C 71 % -4.91 C
3133 10-03-2004 02:34:01 -0.2 C 71 % -4.81 C
3134 10-03-2004 02:47:01 -0.2 C 71 % -4.81 C
3135 10-03-2004 02:59:01 -0.2 C 72 % -4.63 C
3136 10-03-2004 03:11:00 -0.2 C 72 % -4.63 C
3137 10-03-2004 03:23:00 -0.2 C 74 % -4.26 C
3138 10-03-2004 03:35:01 -0.3 C 74 % -4.36 C
3139 10-03-2004 03:47:01 -0.3 C 76 % -4.01 C
3140 10-03-2004 03:59:01 -0.3 C 76 % -4.01 C
3141 10-03-2004 04:11:01 -0.2 C 76 % -3.91 C
3142 10-03-2004 04:23:00 -0.3 C 76 % -4.01 C
3143 10-03-2004 04:35:00 -0.2 C 77 % -3.74 C
3144 10-03-2004 04:47:01 -0.2 C 78 % -3.56 C
3145 10-03-2004 04:59:01 -0.3 C 78 % -3.66 C
3146 10-03-2004 05:11:01 -0.2 C 79 % -3.39 C
3147 10-03-2004 05:23:01 -0.3 C 79 % -3.49 C
3148 10-03-2004 05:35:01 -0.4 C 79 % -3.59 C
3149 10-03-2004 05:47:01 -0.4 C 79 % -3.59 C
3150 10-03-2004 05:59:01 -0.4 C 79 % -3.59 C
Sensor: Nr:Datum:Temp:Feuchte:Taupunkt:
Aussen-T/F 3151 10-03-2004 06:11:01 -0.4 C 79 % -3.59 C
3152 10-03-2004 06:23:01 -0.4 C 79 % -3.59 C
3153 10-03-2004 06:35:01 -0.4 C 79 % -3.59 C
3154 10-03-2004 06:47:00 -0.3 C 79 % -3.49 C
3155 10-03-2004 06:59:00 -0.3 C 79 % -3.49 C
3156 10-03-2004 07:11:00 -0.3 C 78 % -3.66 C
3157 10-03-2004 07:23:58 -0.4 C 78 % -3.76 C
3158 10-03-2004 07:35:57 -0.3 C 78 % -3.66 C
3159 10-03-2004 07:47:02 -0.3 C 78 % -3.66 C
3160 10-03-2004 07:59:02 -0.2 C 79 % -3.39 C
3161 10-03-2004 08:11:01 0 C 79 % -3.2 C
3162 10-03-2004 08:23:01 0 C 79 % -3.2 C
3163 10-03-2004 08:35:01 0.1 C 79 % -3.1 C
3164 10-03-2004 08:47:00 0.2 C 79 % -3 C
3165 10-03-2004 08:59:00 0.4 C 78 % -2.98 C
3166 10-03-2004 09:11:00 0.6 C 77 % -2.96 C
3167 10-03-2004 09:23:58 0.7 C 77 % -2.86 C
3168 10-03-2004 09:35:57 0.7 C 75 % -3.21 C
3169 10-03-2004 09:47:01 1 C 74 % -3.1 C
3170 10-03-2004 09:59:01 1 C 74 % -3.1 C
3171 10-03-2004 10:11:01 1.1 C 74 % -3 C
3172 10-03-2004 10:23:01 1.1 C 73 % -3.19 C
3173 10-03-2004 10:35:01 1.2 C 73 % -3.09 C
3174 10-03-2004 10:47:01 1.2 C 73 % -3.09 C
3175 10-03-2004 10:59:01 1.2 C 74 % -2.91 C
Sensor: Nr:Datum:Temp:Feuchte:Taupunkt:
Aussen-T/F 3176 10-03-2004 11:11:01 1.6 C 75 % -2.34 C
3177 10-03-2004 11:23:01 1.8 C 74 % -2.33 C
3178 10-03-2004 11:35:01 1.9 C 73 % -2.41 C
3179 10-03-2004 11:47:00 1.9 C 73 % -2.41 C
3180 10-03-2004 11:59:00 1.9 C 74 % -2.23 C
3181 10-03-2004 12:11:00 1.9 C 75 % -2.05 C
3182 10-03-2004 12:23:59 2.2 C 73 % -2.13 C
3183 10-03-2004 12:35:58 2 C 72 % -2.5 C
3184 10-03-2004 12:47:01 1.7 C 74 % -2.42 C
3185 10-03-2004 12:59:01 2 C 74 % -2.13 C
3186 10-03-2004 13:11:02 2 C 73 % -2.32 C
3187 10-03-2004 13:23:01 2.3 C 74 % -1.85 C
3188 10-03-2004 13:35:01 2.4 C 73 % -1.93 C
3189 10-03-2004 13:47:00 2.2 C 72 % -2.31 C
3190 10-03-2004 13:59:00 2.4 C 70 % -2.5 C
3191 10-03-2004 14:11:00 2.7 C 68 % -2.6 C
3192 10-03-2004 14:23:58 2.3 C 70 % -2.59 C
3193 10-03-2004 14:35:57 2.5 C 71 % -2.21 C
3194 10-03-2004 14:47:01 2.8 C 71 % -1.92 C
3195 10-03-2004 14:59:01 3.4 C 67 % -2.13 C
3196 10-03-2004 15:11:01 3.6 C 66 % -2.14 C
3197 10-03-2004 15:23:01 3.4 C 66 % -2.33 C
3198 10-03-2004 15:35:01 3.2 C 66 % -2.53 C
3199 10-03-2004 15:47:00 3.2 C 66 % -2.53 C
3200 10-03-2004 15:59:00 3.4 C 66 % -2.33 C
Sensor: Nr:Datum:Temp:Feuchte:Taupunkt:
Aussen-T/F 3201 10-03-2004 16:11:59 3.2 C 66 % -2.53 C
3202 10-03-2004 16:23:58 3 C 66 % -2.72 C
3203 10-03-2004 16:35:57 3 C 67 % -2.51 C
3204 10-03-2004 16:47:01 3.2 C 67 % -2.32 C
3205 10-03-2004 16:59:01 2.7 C 68 % -2.6 C
3206 10-03-2004 17:11:01 2.2 C 71 % -2.5 C
3207 10-03-2004 17:23:01 2.2 C 74 % -1.94 C
3208 10-03-2004 17:35:00 2.2 C 74 % -1.94 C
3209 10-03-2004 17:47:01 2.1 C 75 % -1.86 C
3210 10-03-2004 17:59:01 2 C 75 % -1.95 C
3211 10-03-2004 18:11:01 1.8 C 76 % -1.97 C
3212 10-03-2004 18:23:01 1.7 C 77 % -1.89 C
3213 10-03-2004 18:35:01 1.4 C 78 % -2.01 C
3214 10-03-2004 18:47:00 1.3 C 79 % -1.93 C
3215 10-03-2004 18:59:00 1.3 C 79 % -1.93 C
3216 10-03-2004 19:11:00 1.3 C 79 % -1.93 C
3217 10-03-2004 19:23:01 1.2 C 79 % -2.03 C
3218 10-03-2004 19:35:00 1.2 C 80 % -1.86 C
3219 10-03-2004 19:47:01 1.2 C 80 % -1.86 C
3220 10-03-2004 19:59:01 1.3 C 81 % -1.59 C
3221 10-03-2004 20:11:02 1.4 C 81 % -1.49 C
3222 10-03-2004 20:23:01 1.1 C 80 % -1.96 C
3223 10-03-2004 20:35:01 0.7 C 80 % -2.34 C
3224 10-03-2004 20:47:01 0.5 C 81 % -2.37 C
3225 10-03-2004 20:59:01 0.5 C 82 % -2.21 C
Sensor: Nr:Datum:Temp:Feuchte:Taupunkt:
Aussen-T/F 3226 10-03-2004 21:11:00 0.6 C 82 % -2.11 C
3227 10-03-2004 21:23:59 0.7 C 82 % -2.01 C
3228 10-03-2004 21:35:58 0.6 C 83 % -1.95 C
3229 10-03-2004 21:47:01 0.6 C 84 % -1.78 C
3230 10-03-2004 21:59:01 0.5 C 84 % -1.88 C
3231 10-03-2004 22:11:01 0.6 C 85 % -1.62 C
3232 10-03-2004 22:23:01 0.7 C 85 % -1.53 C
3233 10-03-2004 22:35:01 0.7 C 85 % -1.53 C
3234 10-03-2004 22:47:00 0.6 C 84 % -1.78 C
3235 10-03-2004 22:59:00 0.5 C 84 % -1.88 C
3236 10-03-2004 23:11:00 0.3 C 84 % -2.08 C
3237 10-03-2004 23:23:58 0.2 C 84 % -2.18 C
3238 10-03-2004 23:35:57 -0.2 C 84 % -2.57 C
3239 10-03-2004 23:47:01 -0.3 C 84 % -2.67 C
3240 10-03-2004 23:59:01 -0.3 C 84 % -2.67 C
3241 11-03-2004 00:11:01 -0.4 C 84 % -2.77 C
3242 11-03-2004 00:23:01 -0.7 C 83 % -3.22 C
3243 11-03-2004 00:35:01 -0.8 C 83 % -3.32 C
3244 11-03-2004 00:47:01 -1 C 83 % -3.51 C
3245 11-03-2004 00:59:01 -1.1 C 83 % -3.61 C
3246 11-03-2004 01:11:01 -1.1 C 83 % -3.61 C
3247 11-03-2004 01:23:01 -1.3 C 83 % -3.81 C
3248 11-03-2004 01:35:01 -1.3 C 84 % -3.65 C
3249 11-03-2004 01:47:00 -1.3 C 83 % -3.81 C
3250 11-03-2004 01:59:00 -1.3 C 83 % -3.81 C
Sensor: Nr:Datum:Temp:Feuchte:Taupunkt:
Aussen-T/F 3251 11-03-2004 02:11:00 -1.4 C 83 % -3.91 C
3252 11-03-2004 02:23:59 -1.1 C 84 % -3.45 C
3253 11-03-2004 02:35:57 -1 C 84 % -3.35 C
3254 11-03-2004 02:48:02 -0.8 C 85 % -3 C
3255 11-03-2004 03:00:02 -0.8 C 85 % -3 C
3256 11-03-2004 03:12:02 -0.8 C 84 % -3.16 C
3257 11-03-2004 03:24:02 -0.7 C 84 % -3.06 C
3258 11-03-2004 03:36:00 -0.7 C 84 % -3.06 C
3259 11-03-2004 03:48:00 -0.7 C 84 % -3.06 C
3260 11-03-2004 04:00:00 -0.7 C 84 % -3.06 C
3261 11-03-2004 04:12:59 -0.7 C 84 % -3.06 C
3262 11-03-2004 04:24:58 -0.7 C 84 % -3.06 C
3263 11-03-2004 04:36:57 -0.6 C 84 % -2.96 C
3264 11-03-2004 04:48:01 -0.7 C 84 % -3.06 C
3265 11-03-2004 05:00:01 -0.7 C 84 % -3.06 C
3266 11-03-2004 05:12:01 -0.7 C 84 % -3.06 C
3267 11-03-2004 05:24:01 -0.7 C 84 % -3.06 C
3268 11-03-2004 05:36:01 -0.7 C 84 % -3.06 C
3269 11-03-2004 05:48:01 -0.6 C 83 % -3.12 C
3270 11-03-2004 06:00:01 -0.7 C 83 % -3.22 C
3271 11-03-2004 06:12:01 -0.7 C 83 % -3.22 C
3272 11-03-2004 06:24:01 -0.6 C 83 % -3.12 C
3273 11-03-2004 06:36:01 -0.6 C 83 % -3.12 C
3274 11-03-2004 06:48:00 -0.6 C 83 % -3.12 C
3275 11-03-2004 07:00:00 -0.7 C 83 % -3.22 C
Sensor: Nr:Datum:Temp:Feuchte:Taupunkt:
Aussen-T/F 3276 11-03-2004 07:12:00 -0.7 C 82 % -3.38 C
3277 11-03-2004 07:24:59 -0.7 C 82 % -3.38 C
3278 11-03-2004 07:36:58 -0.7 C 82 % -3.38 C
3279 11-03-2004 07:48:01 -0.5 C 82 % -3.19 C
3280 11-03-2004 08:00:01 -0.5 C 82 % -3.19 C
3281 11-03-2004 08:12:01 -0.5 C 82 % -3.19 C
3282 11-03-2004 08:24:01 -0.3 C 82 % -2.99 C
3283 11-03-2004 08:36:01 -0.3 C 81 % -3.16 C
3284 11-03-2004 08:48:01 -0.1 C 81 % -2.96 C
3285 11-03-2004 09:00:01 -0.1 C 81 % -2.96 C
3286 11-03-2004 09:12:01 0 C 80 % -3.03 C
3287 11-03-2004 09:24:01 0.1 C 80 % -2.93 C
3288 11-03-2004 09:36:01 0.4 C 80 % -2.64 C
3289 11-03-2004 09:48:00 1 C 78 % -2.39 C
3290 11-03-2004 10:00:00 1.2 C 77 % -2.37 C
3291 11-03-2004 10:12:00 1.2 C 77 % -2.37 C
3292 11-03-2004 10:24:58 1.6 C 76 % -2.16 C
3293 11-03-2004 10:36:57 2 C 75 % -1.95 C
3294 11-03-2004 10:48:02 2 C 71 % -2.69 C
3295 11-03-2004 11:00:02 2.5 C 71 % -2.21 C
3296 11-03-2004 11:12:01 2.7 C 70 % -2.21 C
3297 11-03-2004 11:24:01 2.7 C 69 % -2.4 C
3298 11-03-2004 11:36:01 2.9 C 69 % -2.21 C
3299 11-03-2004 11:48:01 3.2 C 68 % -2.12 C
3300 11-03-2004 12:00:01 3.1 C 67 % -2.42 C
Sensor: Nr:Datum:Temp:Feuchte:Taupunkt:
Aussen-T/F 3301 11-03-2004 12:12:02 2.9 C 66 % -2.81 C
3302 11-03-2004 12:24:01 3.1 C 64 % -3.03 C
3303 11-03-2004 12:36:01 2.9 C 65 % -3.02 C
3304 11-03-2004 12:48:00 3.5 C 63 % -2.86 C
3305 11-03-2004 13:00:00 4 C 60 % -3.05 C
3306 11-03-2004 13:12:00 4.1 C 61 % -2.73 C
3307 11-03-2004 13:24:59 3.6 C 61 % -3.2 C
3308 11-03-2004 13:36:57 3.8 C 63 % -2.58 C
3309 11-03-2004 13:48:01 3.6 C 60 % -3.42 C
3310 11-03-2004 14:00:01 4.1 C 57 % -3.64 C
3311 11-03-2004 14:12:01 4.5 C 57 % -3.26 C
3312 11-03-2004 14:24:01 4.7 C 58 % -2.84 C
3313 11-03-2004 14:36:01 4.1 C 55 % -4.11 C
3314 11-03-2004 14:48:00 4.1 C 60 % -2.95 C
3315 11-03-2004 15:00:00 4.2 C 59 % -3.08 C
3316 11-03-2004 15:11:59 4.3 C 58 % -3.22 C
3317 11-03-2004 15:24:58 4.3 C 55 % -3.93 C
3318 11-03-2004 15:36:57 3.9 C 60 % -3.14 C
3319 11-03-2004 15:48:01 3.2 C 64 % -2.94 C
3320 11-03-2004 16:00:01 3.1 C 67 % -2.42 C
3321 11-03-2004 16:12:01 3 C 70 % -1.92 C
3322 11-03-2004 16:24:01 2.9 C 72 % -1.64 C
3323 11-03-2004 16:36:01 2.7 C 74 % -1.46 C
3324 11-03-2004 16:48:01 2.7 C 75 % -1.28 C
3325 11-03-2004 17:00:01 2.6 C 75 % -1.37 C
Sensor: Nr:Datum:Temp:Feuchte:Taupunkt:
Aussen-T/F 3326 11-03-2004 17:12:01 2.6 C 76 % -1.19 C
3327 11-03-2004 17:24:01 2.3 C 77 % -1.31 C
3328 11-03-2004 17:36:01 2.2 C 77 % -1.4 C
3329 11-03-2004 17:48:01 2.4 C 79 % -0.86 C
3330 11-03-2004 18:00:01 2.3 C 79 % -0.96 C
3331 11-03-2004 18:12:01 2.2 C 79 % -1.05 C
3332 11-03-2004 18:24:02 1.9 C 80 % -1.18 C
3333 11-03-2004 18:36:02 1.9 C 80 % -1.18 C
3334 11-03-2004 18:48:02 1.7 C 81 % -1.2 C
3335 11-03-2004 19:00:02 1.4 C 81 % -1.49 C
3336 11-03-2004 19:12:02 1.3 C 82 % -1.43 C
3337 11-03-2004 19:24:01 1.2 C 82 % -1.52 C
3338 11-03-2004 19:36:02 1.1 C 82 % -1.62 C
3339 11-03-2004 19:48:02 1.3 C 83 % -1.26 C
3340 11-03-2004 20:00:02 1.2 C 83 % -1.36 C
3341 11-03-2004 20:12:02 1.2 C 83 % -1.36 C
3342 11-03-2004 20:24:01 1.2 C 83 % -1.36 C
3343 11-03-2004 20:36:01 1.2 C 83 % -1.36 C
3344 11-03-2004 20:48:01 1.3 C 84 % -1.1 C
3345 11-03-2004 21:00:01 1.4 C 84 % -1 C
3346 11-03-2004 21:12:00 1.3 C 84 % -1.1 C
3347 11-03-2004 21:24:59 1.4 C 83 % -1.16 C
3348 11-03-2004 21:36:58 1.3 C 83 % -1.26 C
3349 11-03-2004 21:48:01 1.3 C 83 % -1.26 C
3350 11-03-2004 22:00:01 1.3 C 83 % -1.26 C
Sensor: Nr:Datum:Temp:Feuchte:Taupunkt:
Aussen-T/F 3351 11-03-2004 22:12:01 1.3 C 83 % -1.26 C
3352 11-03-2004 22:24:02 1.3 C 83 % -1.26 C
3353 11-03-2004 22:36:01 1.3 C 82 % -1.43 C
3354 11-03-2004 22:48:01 1.3 C 83 % -1.26 C
3355 11-03-2004 23:00:01 1.2 C 82 % -1.52 C
3356 11-03-2004 23:12:01 1.2 C 83 % -1.36 C
3357 11-03-2004 23:24:59 1.3 C 83 % -1.26 C
3358 11-03-2004 23:36:58 1.2 C 83 % -1.36 C
3359 11-03-2004 23:48:01 1.2 C 83 % -1.36 C
3360 12-03-2004 00:00:01 1.1 C 82 % -1.62 C
3361 12-03-2004 00:12:01 1.2 C 82 % -1.52 C
3362 12-03-2004 00:24:00 1.2 C 82 % -1.52 C
3363 12-03-2004 00:36:00 1.1 C 82 % -1.62 C
3364 12-03-2004 00:48:01 1.1 C 82 % -1.62 C
3365 12-03-2004 01:00:01 1 C 82 % -1.72 C
3366 12-03-2004 01:12:01 1 C 82 % -1.72 C
3367 12-03-2004 01:24:00 0.9 C 82 % -1.82 C
3368 12-03-2004 01:36:00 0.9 C 82 % -1.82 C
3369 12-03-2004 01:48:01 0.9 C 82 % -1.82 C
3370 12-03-2004 02:00:01 0.9 C 82 % -1.82 C
3371 12-03-2004 02:12:01 0.9 C 82 % -1.82 C
3372 12-03-2004 02:24:01 0.5 C 81 % -2.37 C
3373 12-03-2004 02:36:01 0.3 C 81 % -2.57 C
3374 12-03-2004 02:49:02 0.1 C 80 % -2.93 C
3375 12-03-2004 03:01:02 -0.4 C 80 % -3.42 C
Sensor: Nr:Datum:Temp:Feuchte:Taupunkt:
Aussen-T/F 3376 12-03-2004 03:13:02 -0.7 C 80 % -3.71 C
3377 12-03-2004 03:25:02 -0.9 C 81 % -3.74 C
3378 12-03-2004 03:37:00 -1 C 82 % -3.68 C
3379 12-03-2004 03:49:00 -1.2 C 82 % -3.87 C
3380 12-03-2004 04:01:00 -1.3 C 82 % -3.97 C
3381 12-03-2004 04:13:00 -1.2 C 83 % -3.71 C
3382 12-03-2004 04:25:59 -1.1 C 83 % -3.61 C
3383 12-03-2004 04:37:58 -1.1 C 83 % -3.61 C
3384 12-03-2004 04:49:01 -1 C 83 % -3.51 C
3385 12-03-2004 05:01:01 -1 C 84 % -3.35 C
3386 12-03-2004 05:13:01 -0.8 C 84 % -3.16 C
3387 12-03-2004 05:25:01 -0.7 C 84 % -3.06 C
3388 12-03-2004 05:37:00 -0.6 C 84 % -2.96 C
3389 12-03-2004 05:49:01 -0.4 C 83 % -2.93 C
3390 12-03-2004 06:01:01 -0.4 C 82 % -3.09 C
3391 12-03-2004 06:13:01 -0.6 C 81 % -3.45 C
3392 12-03-2004 06:25:01 -0.5 C 81 % -3.35 C
3393 12-03-2004 06:37:01 -0.4 C 81 % -3.25 C
3394 12-03-2004 06:49:00 -0.1 C 78 % -3.47 C
3395 12-03-2004 07:01:59 -0.1 C 77 % -3.64 C
3396 12-03-2004 07:12:59 -0.2 C 78 % -3.56 C
3397 12-03-2004 07:25:59 0 C 78 % -3.37 C
3398 12-03-2004 07:37:58 0 C 78 % -3.37 C
3399 12-03-2004 07:49:01 0.3 C 76 % -3.42 C
3400 12-03-2004 08:01:00 0.6 C 74 % -3.49 C
Sensor: Nr:Datum:Temp:Feuchte:Taupunkt:
Aussen-T/F 3401 12-03-2004 08:13:00 1 C 70 % -3.84 C
3402 12-03-2004 08:25:00 1.2 C 69 % -3.84 C
3403 12-03-2004 08:37:01 1.5 C 69 % -3.55 C
3404 12-03-2004 08:49:01 1.7 C 67 % -3.75 C
3405 12-03-2004 09:01:01 1.7 C 65 % -4.16 C
3406 12-03-2004 09:13:01 1.8 C 65 % -4.06 C
3407 12-03-2004 09:25:01 2.2 C 65 % -3.68 C
3408 12-03-2004 09:37:01 2.3 C 61 % -4.43 C
3409 12-03-2004 09:49:01 2.4 C 61 % -4.34 C
3410 12-03-2004 10:01:01 2.9 C 61 % -3.86 C
3411 12-03-2004 10:13:01 3.3 C 58 % -4.16 C
3412 12-03-2004 10:25:02 3.6 C 56 % -4.34 C
3413 12-03-2004 10:37:01 4.2 C 54 % -4.26 C
3414 12-03-2004 10:49:00 4.2 C 54 % -4.26 C
3415 12-03-2004 11:01:00 4.5 C 53 % -4.23 C
3416 12-03-2004 11:13:00 4.3 C 52 % -4.67 C
3417 12-03-2004 11:25:59 4.5 C 54 % -3.98 C
3418 12-03-2004 11:37:57 4.7 C 52 % -4.3 C
3419 12-03-2004 11:49:01 5.4 C 51 % -3.91 C
3420 12-03-2004 12:01:01 5.9 C 48 % -4.25 C
3421 12-03-2004 12:13:01 5.9 C 48 % -4.25 C
3422 12-03-2004 12:25:01 6 C 46 % -4.72 C
3423 12-03-2004 12:37:01 6 C 44 % -5.31 C
3424 12-03-2004 12:49:00 6.7 C 43 % -4.97 C
3425 12-03-2004 13:01:00 6.5 C 43 % -5.16 C
Sensor: Nr:Datum:Temp:Feuchte:Taupunkt:
Aussen-T/F 3426 12-03-2004 13:13:00 6.2 C 43 % -5.43 C
3427 12-03-2004 13:25:58 6 C 44 % -5.31 C
3428 12-03-2004 13:37:57 6.2 C 45 % -4.83 C
3429 12-03-2004 13:49:01 6.3 C 43 % -5.34 C
3430 12-03-2004 14:01:01 6.5 C 42 % -5.46 C
3431 12-03-2004 14:13:01 6.6 C 43 % -5.07 C
3432 12-03-2004 14:25:01 6.3 C 43 % -5.34 C
3433 12-03-2004 14:37:01 6.3 C 43 % -5.34 C
3434 12-03-2004 14:49:02 6.6 C 44 % -4.76 C
3435 12-03-2004 15:01:01 6.5 C 45 % -4.56 C
3436 12-03-2004 15:13:01 6.4 C 45 % -4.65 C
3437 12-03-2004 15:25:01 6.5 C 44 % -4.85 C
3438 12-03-2004 15:37:02 6.5 C 43 % -5.16 C
3439 12-03-2004 15:49:01 6.4 C 42 % -5.56 C
3440 12-03-2004 16:01:01 6.2 C 42 % -5.74 C
3441 12-03-2004 16:13:01 6.2 C 42 % -5.74 C
3442 12-03-2004 16:25:01 6.2 C 41 % -6.05 C
3443 12-03-2004 16:37:01 6.2 C 41 % -6.05 C
3444 12-03-2004 16:49:00 6.2 C 43 % -5.43 C
3445 12-03-2004 17:01:00 5.9 C 47 % -4.53 C
3446 12-03-2004 17:13:00 5.8 C 48 % -4.34 C
3447 12-03-2004 17:25:59 5.7 C 49 % -4.16 C
3448 12-03-2004 17:37:58 5.9 C 49 % -3.98 C
3449 12-03-2004 17:49:01 5.9 C 49 % -3.98 C
3450 12-03-2004 18:01:01 5.9 C 50 % -3.71 C
Sensor: Nr:Datum:Temp:Feuchte:Taupunkt:
Aussen-T/F 3451 12-03-2004 18:13:01 5.9 C 51 % -3.44 C
3452 12-03-2004 18:25:01 5.9 C 52 % -3.19 C
3453 12-03-2004 18:37:00 5.9 C 54 % -2.68 C
3454 12-03-2004 18:49:01 5.9 C 55 % -2.43 C
3455 12-03-2004 19:01:01 5.7 C 59 % -1.67 C
3456 12-03-2004 19:13:01 5.6 C 62 % -1.09 C
3457 12-03-2004 19:25:01 5.6 C 62 % -1.09 C
3458 12-03-2004 19:37:01 5.8 C 62 % -0.9 C
3459 12-03-2004 19:49:01 5.8 C 62 % -0.9 C
3460 12-03-2004 20:01:02 5.5 C 66 % -0.33 C
3461 12-03-2004 20:13:02 5.5 C 67 % -0.13 C
3462 12-03-2004 20:25:02 5.7 C 68 % 0.27 C
3463 12-03-2004 20:37:01 5.7 C 69 % 0.47 C
3464 12-03-2004 20:49:02 5.8 C 69 % 0.56 C
3465 12-03-2004 21:01:01 5.9 C 68 % 0.46 C
3466 12-03-2004 21:13:01 6 C 67 % 0.35 C
3467 12-03-2004 21:25:02 6 C 67 % 0.35 C
3468 12-03-2004 21:37:02 6.1 C 67 % 0.44 C
3469 12-03-2004 21:49:01 6.1 C 67 % 0.44 C
3470 12-03-2004 22:01:00 6.2 C 67 % 0.54 C
3471 12-03-2004 22:13:00 6.2 C 67 % 0.54 C
3472 12-03-2004 22:25:00 6.2 C 68 % 0.75 C
3473 12-03-2004 22:37:58 6.1 C 68 % 0.65 C
3474 12-03-2004 22:49:01 6 C 69 % 0.76 C
3475 12-03-2004 23:01:01 6.1 C 69 % 0.85 C
Sensor: Nr:Datum:Temp:Feuchte:Taupunkt:
Aussen-T/F 3476 12-03-2004 23:13:01 6.2 C 69 % 0.95 C
3477 12-03-2004 23:25:01 6.1 C 69 % 0.85 C
3478 12-03-2004 23:37:01 6.1 C 70 % 1.05 C
3479 12-03-2004 23:49:00 6 C 70 % 0.95 C
3480 13-03-2004 00:01:00 6.4 C 70 % 1.34 C
3481 13-03-2004 00:13:00 6.3 C 70 % 1.24 C
3482 13-03-2004 00:25:59 6.4 C 71 % 1.54 C
3483 13-03-2004 00:37:57 6.3 C 71 % 1.44 C
3484 13-03-2004 00:49:01 6.2 C 72 % 1.54 C
3485 13-03-2004 01:01:01 6.3 C 72 % 1.63 C
3486 13-03-2004 01:13:01 6.3 C 72 % 1.63 C
3487 13-03-2004 01:25:01 6.3 C 72 % 1.63 C
3488 13-03-2004 01:37:01 6.4 C 72 % 1.73 C
3489 13-03-2004 01:49:01 6.4 C 73 % 1.92 C
3490 13-03-2004 02:01:01 6.4 C 72 % 1.73 C
3491 13-03-2004 02:13:01 6.4 C 73 % 1.92 C
3492 13-03-2004 02:25:01 6.6 C 72 % 1.92 C
3493 13-03-2004 02:37:01 6.7 C 72 % 2.02 C
3494 13-03-2004 02:50:01 6.8 C 72 % 2.12 C
3495 13-03-2004 03:02:01 6.8 C 72 % 2.12 C
3496 13-03-2004 03:14:00 7 C 70 % 1.91 C
3497 13-03-2004 03:26:00 7 C 70 % 1.91 C
3498 13-03-2004 03:38:01 6.9 C 72 % 2.21 C
3499 13-03-2004 03:50:01 7 C 71 % 2.11 C
3500 13-03-2004 04:02:01 7.1 C 70 % 2.01 C
Sensor: Nr:Datum:Temp:Feuchte:Taupunkt:
Aussen-T/F 3501 13-03-2004 04:14:01 7.2 C 70 % 2.11 C
3502 13-03-2004 04:26:00 7.3 C 70 % 2.2 C
3503 13-03-2004 04:38:00 7.4 C 69 % 2.1 C
3504 13-03-2004 04:50:01 7.4 C 69 % 2.1 C
3505 13-03-2004 05:02:01 7.6 C 69 % 2.29 C
3506 13-03-2004 05:14:01 7.5 C 69 % 2.19 C
3507 13-03-2004 05:26:01 7.6 C 69 % 2.29 C
3508 13-03-2004 05:38:01 7.6 C 70 % 2.49 C
3509 13-03-2004 05:50:00 7.6 C 70 % 2.49 C
3510 13-03-2004 06:02:59 7.5 C 71 % 2.59 C
3511 13-03-2004 06:14:58 7.3 C 72 % 2.6 C
3512 13-03-2004 06:26:58 7.2 C 73 % 2.69 C
3513 13-03-2004 06:38:57 7.2 C 74 % 2.89 C
3514 13-03-2004 06:50:01 7.2 C 74 % 2.89 C
3515 13-03-2004 07:02:01 7.3 C 74 % 2.98 C
3516 13-03-2004 07:14:01 7.4 C 74 % 3.08 C
3517 13-03-2004 07:26:01 7.5 C 73 % 2.98 C
3518 13-03-2004 07:38:00 7.5 C 73 % 2.98 C
3519 13-03-2004 07:50:01 7.8 C 73 % 3.27 C
3520 13-03-2004 08:02:01 7.9 C 72 % 3.17 C
3521 13-03-2004 08:14:01 8.1 C 71 % 3.17 C
3522 13-03-2004 08:26:01 8.4 C 70 % 3.26 C
3523 13-03-2004 08:38:01 8.9 C 68 % 3.32 C
3524 13-03-2004 08:50:01 9 C 66 % 3 C
3525 13-03-2004 09:02:03 9.3 C 66 % 3.28 C
Sensor: Nr:Datum:Temp:Feuchte:Taupunkt:
Aussen-T/F 3526 13-03-2004 09:14:03 9.5 C 66 % 3.47 C
3527 13-03-2004 09:26:58 9.7 C 65 % 3.45 C
3528 13-03-2004 09:38:58 9.8 C 65 % 3.54 C
3529 13-03-2004 09:50:01 10 C 63 % 3.29 C
3530 13-03-2004 10:02:01 10.1 C 63 % 3.39 C
3531 13-03-2004 10:14:01 10.1 C 62 % 3.16 C
3532 13-03-2004 10:26:02 10.1 C 61 % 2.93 C
3533 13-03-2004 10:38:03 10.2 C 61 % 3.03 C
3534 13-03-2004 10:50:01 10.4 C 60 % 2.98 C
3535 13-03-2004 11:02:01 10.5 C 59 % 2.84 C
3536 13-03-2004 11:14:01 10.8 C 58 % 2.88 C
3537 13-03-2004 11:26:01 11.1 C 55 % 2.41 C
3538 13-03-2004 11:38:01 11.3 C 54 % 2.34 C
3539 13-03-2004 11:50:01 11.4 C 52 % 1.91 C
3540 13-03-2004 12:02:00 11.6 C 50 % 1.54 C
3541 13-03-2004 12:14:00 11.7 C 49 % 1.36 C
3542 13-03-2004 12:26:59 11.8 C 48 % 1.16 C
3543 13-03-2004 12:38:58 11.9 C 48 % 1.25 C
3544 13-03-2004 12:50:01 12.1 C 45 % 0.54 C
3545 13-03-2004 13:02:01 12.5 C 45 % 0.91 C
3546 13-03-2004 13:14:01 12.5 C 43 % 0.28 C
3547 13-03-2004 13:26:00 12.7 C 43 % 0.46 C
3548 13-03-2004 13:38:00 13 C 41 % 0.07 C
3549 13-03-2004 13:50:01 12.7 C 41 % -0.2 C
3550 13-03-2004 14:02:01 12.6 C 40 % -0.62 C
Sensor: Nr:Datum:Temp:Feuchte:Taupunkt:
Aussen-T/F 3551 13-03-2004 14:14:01 12.5 C 41 % -0.38 C
3552 13-03-2004 14:26:01 12.4 C 42 % -0.14 C
3553 13-03-2004 14:38:01 12.6 C 42 % 0.04 C
3554 13-03-2004 14:50:01 12.5 C 46 % 1.21 C
3555 13-03-2004 15:02:01 12.9 C 47 % 1.87 C
3556 13-03-2004 15:14:01 12.7 C 47 % 1.69 C
3557 13-03-2004 15:26:00 12.9 C 46 % 1.57 C
3558 13-03-2004 15:38:00 12.6 C 45 % 1 C
3559 13-03-2004 15:50:01 12.5 C 45 % 0.91 C
3560 13-03-2004 16:02:01 12.7 C 45 % 1.09 C
3561 13-03-2004 16:14:01 12.7 C 44 % 0.78 C
3562 13-03-2004 16:26:01 12.9 C 43 % 0.64 C
3563 13-03-2004 16:38:08 12.8 C 42 % 0.22 C
3564 13-03-2004 16:50:02 12.9 C 40 % -0.36 C
3565 13-03-2004 17:02:01 12.6 C 40 % -0.62 C
3566 13-03-2004 17:14:01 12.4 C 40 % -0.8 C
3567 13-03-2004 17:26:02 12.4 C 41 % -0.47 C
3568 13-03-2004 17:38:02 12.7 C 39 % -0.88 C
3569 13-03-2004 17:50:01 12.2 C 40 % -0.98 C
3570 13-03-2004 18:02:01 11.9 C 40 % -1.25 C
3571 13-03-2004 18:14:01 11.5 C 41 % -1.28 C
3572 13-03-2004 18:26:01 11.2 C 45 % -0.28 C
3573 13-03-2004 18:38:01 10.7 C 47 % -0.14 C
3574 13-03-2004 18:50:01 10.4 C 48 % -0.12 C
3575 13-03-2004 19:02:01 10.1 C 50 % 0.16 C
Sensor: Nr:Datum:Temp:Feuchte:Taupunkt:
Aussen-T/F 3576 13-03-2004 19:14:01 9.8 C 50 % -0.11 C
3577 13-03-2004 19:26:00 9.7 C 51 % 0.07 C
3578 13-03-2004 19:38:00 9.2 C 52 % -0.13 C
3579 13-03-2004 19:50:02 9.1 C 54 % 0.3 C
3580 13-03-2004 20:02:02 8.8 C 56 % 0.52 C
3581 13-03-2004 20:14:02 8.6 C 57 % 0.58 C
3582 13-03-2004 20:26:01 8.4 C 58 % 0.63 C
3583 13-03-2004 20:38:01 8.3 C 58 % 0.54 C
3584 13-03-2004 20:50:00 8.3 C 57 % 0.3 C
3585 13-03-2004 21:13:59 8.2 C 57 % 0.2 C
3586 13-03-2004 21:14:58 8 C 58 % 0.25 C
3587 13-03-2004 21:26:58 7.9 C 60 % 0.63 C
3588 13-03-2004 21:38:57 7.8 C 60 % 0.53 C
3589 13-03-2004 21:50:01 7.7 C 60 % 0.44 C
3590 13-03-2004 22:02:01 7.7 C 59 % 0.21 C
3591 13-03-2004 22:14:01 7.7 C 58 % -0.03 C
3592 13-03-2004 22:26:01 7.7 C 58 % -0.03 C
3593 13-03-2004 22:38:01 7.5 C 58 % -0.21 C
3594 13-03-2004 22:50:00 7.4 C 58 % -0.31 C
3595 13-03-2004 23:02:58 7.4 C 58 % -0.31 C
3596 13-03-2004 23:14:57 7.1 C 61 % 0.1 C
3597 13-03-2004 23:26:57 7.3 C 59 % -0.17 C
3598 13-03-2004 23:38:57 7.2 C 60 % -0.03 C
3599 13-03-2004 23:50:01 7.2 C 59 % -0.26 C
3600 14-03-2004 00:02:01 7.1 C 59 % -0.36 C
Sensor: Nr:Datum:Temp:Feuchte:Taupunkt:
Aussen-T/F 3601 14-03-2004 00:14:01 7.1 C 60 % -0.13 C
3602 14-03-2004 00:26:01 7.1 C 60 % -0.13 C
3603 14-03-2004 00:38:01 7 C 60 % -0.22 C
3604 14-03-2004 00:50:01 6.9 C 61 % -0.09 C
3605 14-03-2004 01:02:01 6.8 C 62 % 0.04 C
3606 14-03-2004 01:14:01 6.7 C 63 % 0.17 C
3607 14-03-2004 01:26:01 6.6 C 64 % 0.29 C
3608 14-03-2004 01:38:01 6.5 C 65 % 0.41 C
3609 14-03-2004 01:50:01 6.4 C 65 % 0.31 C
3610 14-03-2004 02:02:01 6.3 C 65 % 0.22 C
3611 14-03-2004 02:14:01 6.2 C 65 % 0.12 C
3612 14-03-2004 02:26:01 6 C 66 % 0.14 C
3613 14-03-2004 02:38:00 5.9 C 68 % 0.46 C
3614 14-03-2004 02:51:03 5.7 C 69 % 0.47 C
3615 14-03-2004 03:03:03 5.5 C 69 % 0.28 C
3616 14-03-2004 03:15:02 5.3 C 71 % 0.48 C
3617 14-03-2004 03:27:02 5.1 C 71 % 0.29 C
3618 14-03-2004 03:39:00 4.8 C 72 % 0.19 C
3619 14-03-2004 03:51:00 4.7 C 73 % 0.28 C
3620 14-03-2004 04:03:00 4.7 C 73 % 0.28 C
3621 14-03-2004 04:15:59 4.7 C 73 % 0.28 C
3622 14-03-2004 04:27:59 4.9 C 74 % 0.67 C
3623 14-03-2004 04:39:58 4.7 C 74 % 0.47 C
3624 14-03-2004 04:51:01 5.2 C 74 % 0.95 C
3625 14-03-2004 05:03:00 5.5 C 73 % 1.06 C
Sensor: Nr:Datum:Temp:Feuchte:Taupunkt:
Aussen-T/F 3626 14-03-2004 05:15:00 5.5 C 72 % 0.86 C
3627 14-03-2004 05:27:00 5.5 C 72 % 0.86 C
3628 14-03-2004 05:39:00 5.5 C 72 % 0.86 C
3629 14-03-2004 05:51:01 5.4 C 72 % 0.77 C
3630 14-03-2004 06:03:01 5.4 C 72 % 0.77 C
3631 14-03-2004 06:15:01 5.6 C 72 % 0.96 C
3632 14-03-2004 06:27:01 5.8 C 73 % 1.34 C
3633 14-03-2004 06:39:00 5.8 C 72 % 1.15 C
3634 14-03-2004 06:51:01 5.9 C 73 % 1.44 C
3635 14-03-2004 07:03:01 6 C 72 % 1.35 C
3636 14-03-2004 07:15:01 6.2 C 72 % 1.54 C
3637 14-03-2004 07:27:01 6.8 C 73 % 2.31 C
3638 14-03-2004 07:39:01 7 C 68 % 1.51 C
3639 14-03-2004 07:51:00 6.9 C 68 % 1.41 C
3640 14-03-2004 08:03:00 7.2 C 69 % 1.9 C
3641 14-03-2004 08:15:58 7.5 C 68 % 1.99 C
3642 14-03-2004 08:27:58 7.5 C 68 % 1.99 C
3643 14-03-2004 08:39:57 7.7 C 67 % 1.97 C
3644 14-03-2004 08:51:01 7.8 C 67 % 2.07 C
3645 14-03-2004 09:03:01 8 C 65 % 1.83 C
3646 14-03-2004 09:15:01 8.2 C 64 % 1.81 C
3647 14-03-2004 09:27:01 8.4 C 63 % 1.78 C
3648 14-03-2004 09:39:02 8.6 C 62 % 1.74 C
3649 14-03-2004 09:51:02 8.8 C 61 % 1.71 C
3650 14-03-2004 10:03:01 9.1 C 59 % 1.52 C
Sensor: Nr:Datum:Temp:Feuchte:Taupunkt:
Aussen-T/F 3651 14-03-2004 10:15:01 9.2 C 58 % 1.38 C
3652 14-03-2004 10:27:01 9.1 C 58 % 1.29 C
3653 14-03-2004 10:39:01 9.4 C 57 % 1.33 C
3654 14-03-2004 10:51:00 9.6 C 56 % 1.27 C
3655 14-03-2004 11:03:00 9.6 C 55 % 1.02 C
3656 14-03-2004 11:15:59 10.1 C 52 % 0.7 C
3657 14-03-2004 11:27:59 10.2 C 51 % 0.53 C
3658 14-03-2004 11:39:57 10.7 C 50 % 0.72 C
3659 14-03-2004 11:51:01 10.8 C 48 % 0.24 C
3660 14-03-2004 12:03:01 10.8 C 47 % -0.04 C
3661 14-03-2004 12:15:01 11.6 C 45 % 0.09 C
3662 14-03-2004 12:27:01 12.3 C 41 % -0.56 C
3663 14-03-2004 12:39:01 12.3 C 40 % -0.89 C
3664 14-03-2004 12:51:00 12.4 C 39 % -1.15 C
3665 14-03-2004 13:03:00 12.8 C 36 % -1.88 C
3666 14-03-2004 13:15:58 13.3 C 35 % -1.82 C
3667 14-03-2004 13:27:58 13.4 C 34 % -2.12 C
3668 14-03-2004 13:39:57 13.9 C 33 % -2.08 C
3669 14-03-2004 13:51:01 14.2 C 32 % -2.24 C
3670 14-03-2004 14:03:01 14.1 C 35 % -1.11 C
3671 14-03-2004 14:15:01 14.2 C 33 % -1.82 C
3672 14-03-2004 14:27:01 14.3 C 35 % -0.93 C
3673 14-03-2004 14:39:01 14.6 C 32 % -1.89 C
3674 14-03-2004 14:51:00 15 C 28 % -3.34 C
3675 14-03-2004 15:03:00 14.6 C 29 % -3.21 C
Sensor: Nr:Datum:Temp:Feuchte:Taupunkt:
Aussen-T/F 3676 14-03-2004 15:15:58 14.2 C 29 % -3.56 C
3677 14-03-2004 15:27:58 14.7 C 28 % -3.59 C
3678 14-03-2004 15:39:57 14.5 C 28 % -3.77 C
3679 14-03-2004 15:51:01 15.1 C 26 % -4.24 C
3680 14-03-2004 16:03:01 14.9 C 28 % -3.42 C
3681 14-03-2004 16:15:01 15.1 C 27 % -3.74 C
3682 14-03-2004 16:27:01 15.1 C 27 % -3.74 C
3683 14-03-2004 16:39:01 14.5 C 28 % -3.77 C
3684 14-03-2004 16:51:00 14 C 29 % -3.73 C
3685 14-03-2004 17:03:59 13.7 C 30 % -3.54 C
3686 14-03-2004 17:15:58 13.5 C 30 % -3.71 C
3687 14-03-2004 17:27:58 13.5 C 30 % -3.71 C
3688 14-03-2004 17:39:57 13.4 C 33 % -2.52 C
3689 14-03-2004 17:51:01 13.2 C 31 % -3.54 C
3690 14-03-2004 18:03:01 13 C 32 % -3.29 C
3691 14-03-2004 18:15:01 12.7 C 36 % -1.97 C
3692 14-03-2004 18:27:01 12.3 C 40 % -0.89 C
3693 14-03-2004 18:39:01 12.2 C 40 % -0.98 C
3694 14-03-2004 18:51:01 12.1 C 41 % -0.74 C
3695 14-03-2004 19:03:00 11.9 C 43 % -0.27 C
3696 14-03-2004 19:15:58 11.9 C 44 % 0.05 C
3697 14-03-2004 19:27:58 11.7 C 46 % 0.48 C
3698 14-03-2004 19:39:57 11.8 C 45 % 0.27 C
3699 14-03-2004 19:51:01 11.6 C 46 % 0.39 C
3700 14-03-2004 20:03:01 11.6 C 47 % 0.69 C
Sensor: Nr:Datum:Temp:Feuchte:Taupunkt:
Aussen-T/F 3701 14-03-2004 20:15:01 11.4 C 47 % 0.5 C
3702 14-03-2004 20:27:01 11.4 C 47 % 0.5 C
3703 14-03-2004 20:39:01 11.3 C 48 % 0.7 C
3704 14-03-2004 20:50:59 11.1 C 50 % 1.08 C
3705 14-03-2004 21:03:59 10.9 C 52 % 1.44 C
3706 14-03-2004 21:15:58 10.9 C 52 % 1.44 C
3707 14-03-2004 21:27:58 10.6 C 53 % 1.43 C
3708 14-03-2004 21:39:57 10.5 C 52 % 1.07 C
3709 14-03-2004 21:51:01 10.3 C 53 % 1.15 C
3710 14-03-2004 22:03:01 10.2 C 54 % 1.32 C
3711 14-03-2004 22:15:01 10.1 C 54 % 1.23 C
3712 14-03-2004 22:27:01 10.1 C 54 % 1.23 C
3713 14-03-2004 22:39:00 10 C 55 % 1.39 C
3714 14-03-2004 22:51:01 9.9 C 56 % 1.55 C
3715 14-03-2004 23:03:02 10.3 C 56 % 1.92 C
3716 14-03-2004 23:15:01 9.9 C 55 % 1.3 C
3717 14-03-2004 23:27:01 10.2 C 54 % 1.32 C
3718 14-03-2004 23:39:01 10.2 C 53 % 1.06 C
3719 14-03-2004 23:51:00 10.2 C 54 % 1.32 C
3720 15-03-2004 00:03:00 10.4 C 52 % 0.98 C
3721 15-03-2004 00:15:59 10.8 C 50 % 0.81 C
3722 15-03-2004 00:27:59 10.6 C 50 % 0.62 C
3723 15-03-2004 00:39:58 10.8 C 48 % 0.24 C
3724 15-03-2004 00:51:01 11.3 C 45 % -0.19 C
3725 15-03-2004 01:03:01 11.4 C 43 % -0.72 C
Sensor: Nr:Datum:Temp:Feuchte:Taupunkt:
Aussen-T/F 3726 15-03-2004 01:15:01 11.5 C 43 % -0.63 C
3727 15-03-2004 01:27:01 11.4 C 43 % -0.72 C
3728 15-03-2004 01:39:01 11.3 C 43 % -0.81 C
3729 15-03-2004 01:51:00 11.2 C 43 % -0.9 C
3730 15-03-2004 02:03:00 11 C 43 % -1.08 C
3731 15-03-2004 02:15:59 11.1 C 43 % -0.99 C
3732 15-03-2004 02:27:59 11 C 44 % -0.77 C
3733 15-03-2004 02:39:57 11.1 C 43 % -0.99 C
3734 15-03-2004 02:52:03 10.8 C 45 % -0.64 C
3735 15-03-2004 03:04:03 10.7 C 46 % -0.43 C
3736 15-03-2004 03:16:02 10.3 C 48 % -0.21 C
3737 15-03-2004 03:28:02 10.2 C 48 % -0.31 C
3738 15-03-2004 03:40:00 10.5 C 46 % -0.61 C
3739 15-03-2004 03:52:00 10.6 C 46 % -0.52 C
3740 15-03-2004 04:04:00 10.6 C 46 % -0.52 C
3741 15-03-2004 04:16:59 10.5 C 46 % -0.61 C
3742 15-03-2004 04:28:59 10.5 C 46 % -0.61 C
3743 15-03-2004 04:40:58 10.4 C 47 % -0.41 C
3744 15-03-2004 04:52:01 10.2 C 47 % -0.59 C
3745 15-03-2004 05:04:01 10.3 C 47 % -0.5 C
3746 15-03-2004 05:16:01 10.2 C 47 % -0.59 C
3747 15-03-2004 05:28:01 10.3 C 47 % -0.5 C
3748 15-03-2004 05:40:01 10.4 C 46 % -0.7 C
3749 15-03-2004 05:52:00 10.6 C 46 % -0.52 C
3750 15-03-2004 06:04:00 10.6 C 46 % -0.52 C
Sensor: Nr:Datum:Temp:Feuchte:Taupunkt:
Aussen-T/F 3751 15-03-2004 06:16:59 10.5 C 46 % -0.61 C
3752 15-03-2004 06:28:59 10.7 C 46 % -0.43 C
3753 15-03-2004 06:40:58 10.8 C 46 % -0.34 C
3754 15-03-2004 06:52:01 10.8 C 46 % -0.34 C
3755 15-03-2004 07:04:01 10.8 C 46 % -0.34 C
3756 15-03-2004 07:16:01 10.8 C 46 % -0.34 C
3757 15-03-2004 07:28:01 10.9 C 46 % -0.25 C
3758 15-03-2004 07:40:02 10.8 C 46 % -0.34 C
3759 15-03-2004 07:52:00 10.8 C 48 % 0.24 C
3760 15-03-2004 08:04:00 10.7 C 49 % 0.44 C
3761 15-03-2004 08:16:59 10.8 C 49 % 0.53 C
3762 15-03-2004 08:28:59 10.8 C 50 % 0.81 C
3763 15-03-2004 08:40:58 11 C 49 % 0.71 C
3764 15-03-2004 08:52:01 11.1 C 49 % 0.8 C
3765 15-03-2004 09:04:01 11.5 C 48 % 0.89 C
3766 15-03-2004 09:16:00 11.5 C 48 % 0.89 C
3767 15-03-2004 09:28:00 11.5 C 48 % 0.89 C
3768 15-03-2004 09:40:00 11.6 C 48 % 0.98 C
3769 15-03-2004 09:52:01 11.7 C 48 % 1.07 C
3770 15-03-2004 10:04:01 11.8 C 47 % 0.87 C
3771 15-03-2004 10:16:01 12 C 47 % 1.05 C
3772 15-03-2004 10:28:01 12 C 48 % 1.34 C
3773 15-03-2004 10:40:01 11.9 C 49 % 1.54 C
3774 15-03-2004 10:52:00 11.9 C 49 % 1.54 C
3775 15-03-2004 11:04:59 12 C 48 % 1.34 C
Sensor: Nr:Datum:Temp:Feuchte:Taupunkt:
Aussen-T/F 3776 15-03-2004 11:16:58 12.9 C 48 % 2.17 C
3777 15-03-2004 11:28:58 12.3 C 48 % 1.62 C
3778 15-03-2004 11:40:57 12.7 C 48 % 1.99 C
3779 15-03-2004 11:52:01 12.6 C 48 % 1.89 C
3780 15-03-2004 12:04:01 12.8 C 49 % 2.37 C
3781 15-03-2004 12:16:01 12.7 C 50 % 2.56 C
3782 15-03-2004 12:28:01 12.8 C 50 % 2.65 C
3783 15-03-2004 12:40:01 13.2 C 48 % 2.44 C
3784 15-03-2004 12:52:01 13.7 C 46 % 2.3 C
3785 15-03-2004 13:04:01 13.8 C 46 % 2.4 C
3786 15-03-2004 13:16:01 13.8 C 47 % 2.7 C
3787 15-03-2004 13:28:01 13.5 C 47 % 2.42 C
3788 15-03-2004 13:40:01 13.4 C 47 % 2.33 C
3789 15-03-2004 13:52:00 13.7 C 46 % 2.3 C
3790 15-03-2004 14:04:00 13.4 C 46 % 2.03 C
3791 15-03-2004 14:16:58 13.4 C 46 % 2.03 C
3792 15-03-2004 14:28:58 13.6 C 45 % 1.91 C
3793 15-03-2004 14:40:57 13.5 C 46 % 2.12 C
3794 15-03-2004 14:52:01 13.5 C 46 % 2.12 C
3795 15-03-2004 15:04:01 13.6 C 46 % 2.21 C
3796 15-03-2004 15:16:01 13.9 C 45 % 2.18 C
3797 15-03-2004 15:28:01 13.9 C 45 % 2.18 C
3798 15-03-2004 15:40:01 14.2 C 45 % 2.45 C
3799 15-03-2004 15:52:00 14.2 C 44 % 2.14 C
3800 15-03-2004 16:04:59 14.2 C 44 % 2.14 C
Sensor: Nr:Datum:Temp:Feuchte:Taupunkt:
Aussen-T/F 3801 15-03-2004 16:16:58 14.3 C 44 % 2.23 C
3802 15-03-2004 16:28:58 14.2 C 44 % 2.14 C
3803 15-03-2004 16:40:57 14.4 C 44 % 2.32 C
3804 15-03-2004 16:52:01 14.4 C 44 % 2.32 C
3805 15-03-2004 17:04:01 14.3 C 45 % 2.54 C
3806 15-03-2004 17:16:01 14.3 C 45 % 2.54 C
3807 15-03-2004 17:28:01 14.2 C 45 % 2.45 C
3808 15-03-2004 17:40:01 14.1 C 45 % 2.36 C
3809 15-03-2004 17:52:00 14.1 C 46 % 2.67 C
3810 15-03-2004 18:04:00 14 C 46 % 2.58 C
3811 15-03-2004 18:16:59 14 C 46 % 2.58 C
3812 15-03-2004 18:28:59 13.9 C 47 % 2.79 C
3813 15-03-2004 18:40:58 13.8 C 48 % 2.99 C
3814 15-03-2004 18:52:01 13.7 C 48 % 2.9 C
3815 15-03-2004 19:04:01 13.4 C 49 % 2.92 C
3816 15-03-2004 19:16:01 12.9 C 52 % 3.29 C
3817 15-03-2004 19:28:01 12.2 C 54 % 3.18 C
3818 15-03-2004 19:40:02 12 C 55 % 3.25 C
3819 15-03-2004 19:52:00 11.5 C 58 % 3.54 C
3820 15-03-2004 20:04:00 11.1 C 59 % 3.4 C
3821 15-03-2004 20:16:59 10.9 C 61 % 3.69 C
3822 15-03-2004 20:28:59 10.5 C 62 % 3.54 C
3823 15-03-2004 20:40:58 10.2 C 63 % 3.48 C
3824 15-03-2004 20:52:01 10.1 C 64 % 3.61 C
3825 15-03-2004 21:04:01 9.8 C 65 % 3.54 C
Sensor: Nr:Datum:Temp:Feuchte:Taupunkt:
Aussen-T/F 3826 15-03-2004 21:16:00 9.6 C 65 % 3.35 C
3827 15-03-2004 21:28:00 9.5 C 67 % 3.69 C
3828 15-03-2004 21:40:01 9.5 C 67 % 3.69 C
3829 15-03-2004 21:52:01 9.4 C 67 % 3.59 C
3830 15-03-2004 22:04:01 9.2 C 67 % 3.4 C
3831 15-03-2004 22:16:01 8.8 C 68 % 3.23 C
3832 15-03-2004 22:28:01 8.6 C 69 % 3.24 C
3833 15-03-2004 22:40:01 8.6 C 70 % 3.45 C
3834 15-03-2004 22:52:00 8.8 C 70 % 3.64 C
3835 15-03-2004 23:04:00 8.9 C 69 % 3.53 C
3836 15-03-2004 23:16:58 8.9 C 69 % 3.53 C
3837 15-03-2004 23:28:58 8.9 C 70 % 3.74 C
3838 15-03-2004 23:40:57 8.8 C 70 % 3.64 C
3839 15-03-2004 23:52:01 8.6 C 69 % 3.24 C
3840 16-03-2004 00:04:01 8.6 C 71 % 3.65 C
3841 16-03-2004 00:16:01 8.6 C 71 % 3.65 C
3842 16-03-2004 00:28:01 8.3 C 70 % 3.16 C
3843 16-03-2004 00:40:01 8.3 C 71 % 3.36 C
3844 16-03-2004 00:52:00 8.5 C 72 % 3.75 C
3845 16-03-2004 01:04:59 8.6 C 71 % 3.65 C
3846 16-03-2004 01:16:58 8.6 C 71 % 3.65 C
3847 16-03-2004 01:28:58 8.7 C 70 % 3.54 C
3848 16-03-2004 01:40:57 8.8 C 70 % 3.64 C
3849 16-03-2004 01:52:01 8.7 C 70 % 3.54 C
3850 16-03-2004 02:04:01 8.5 C 70 % 3.35 C
Sensor: Nr:Datum:Temp:Feuchte:Taupunkt:
Aussen-T/F 3851 16-03-2004 02:16:01 8.7 C 70 % 3.54 C
3852 16-03-2004 02:28:01 8.6 C 71 % 3.65 C
3853 16-03-2004 02:40:01 8.8 C 71 % 3.84 C
3854 16-03-2004 02:53:02 9 C 71 % 4.03 C
3855 16-03-2004 03:05:02 9.2 C 71 % 4.22 C
3856 16-03-2004 03:17:02 9.2 C 69 % 3.82 C
3857 16-03-2004 03:29:02 9.3 C 70 % 4.12 C
3858 16-03-2004 03:41:00 9.5 C 71 % 4.51 C
3859 16-03-2004 03:53:00 9.6 C 70 % 4.41 C
3860 16-03-2004 04:05:00 9.6 C 70 % 4.41 C
3861 16-03-2004 04:17:58 9.6 C 70 % 4.41 C
3862 16-03-2004 04:29:58 9.5 C 70 % 4.31 C
3863 16-03-2004 04:41:57 9.6 C 71 % 4.61 C
3864 16-03-2004 04:53:01 9.4 C 70 % 4.21 C
3865 16-03-2004 05:05:01 9.2 C 71 % 4.22 C
3866 16-03-2004 05:17:01 8.8 C 72 % 4.04 C
3867 16-03-2004 05:29:01 8.7 C 74 % 4.33 C
3868 16-03-2004 05:41:01 8.5 C 74 % 4.14 C
3869 16-03-2004 05:53:01 8.9 C 74 % 4.53 C
3870 16-03-2004 06:05:01 9.6 C 71 % 4.61 C
3871 16-03-2004 06:17:01 9.9 C 69 % 4.49 C
3872 16-03-2004 06:29:01 9.7 C 69 % 4.3 C
3873 16-03-2004 06:41:01 9 C 70 % 3.83 C
3874 16-03-2004 06:53:00 8.6 C 72 % 3.85 C
3875 16-03-2004 07:05:00 8.5 C 73 % 3.95 C
Sensor: Nr:Datum:Temp:Feuchte:Taupunkt:
Aussen-T/F 3876 16-03-2004 07:17:59 8.8 C 75 % 4.62 C
3877 16-03-2004 07:29:59 8.8 C 74 % 4.43 C
3878 16-03-2004 07:41:57 8.4 C 73 % 3.85 C
3879 16-03-2004 07:53:01 8.2 C 73 % 3.66 C
3880 16-03-2004 08:05:01 8.1 C 73 % 3.56 C
3881 16-03-2004 08:17:01 8 C 74 % 3.66 C
3882 16-03-2004 08:29:01 8 C 74 % 3.66 C
3883 16-03-2004 08:41:01 8.1 C 75 % 3.94 C
3884 16-03-2004 08:53:01 8.4 C 75 % 4.23 C
3885 16-03-2004 09:05:00 9.7 C 72 % 4.9 C
3886 16-03-2004 09:17:58 11.5 C 63 % 4.71 C
3887 16-03-2004 09:29:58 12.4 C 57 % 4.13 C
3888 16-03-2004 09:41:57 12.9 C 55 % 4.09 C
3889 16-03-2004 09:53:01 13 C 53 %